<?xml version='1.0' encoding='UTF-8'?>
<gpx version="1.1" creator="https://www.komoot.de" xmlns="http://www.topografix.com/GPX/1/1" xmlns:xsi="http://www.w3.org/2001/XMLSchema-instance" xsi:schemaLocation="http://www.topografix.com/GPX/1/1 http://www.topografix.com/GPX/1/1/gpx.xsd">
  <metadata>
    <name>Berry Roubaix</name>
    <author>
      <link href="https://www.komoot.de">
        <text>komoot</text>
        <type>text/html</type>
      </link>
    </author>
  </metadata>
  <wpt lat="52.070712" lon="5.349858">
    <name>Gravelpad van Maarn naar Austerlitz door het bos van de Utrechtse Heuvelrug</name>
    <sym>Flag, Blue</sym>
  </wpt>
  <wpt lat="52.110577" lon="5.360561">
    <name>Oude Utrechtseweg Grindweg</name>
    <sym>Flag, Blue</sym>
  </wpt>
  <wpt lat="52.098717" lon="5.513928">
    <name>Mooi stuk rechtdoor</name>
    <sym>Flag, Blue</sym>
  </wpt>
  <wpt lat="52.102475" lon="5.572738">
    <name>Nederwoud: klein dorpje met onverharde wegen</name>
    <sym>Shopping Center</sym>
  </wpt>
  <wpt lat="52.078500" lon="5.581419">
    <name>Zwetselaarsepad</name>
    <sym>Flag, Blue</sym>
  </wpt>
  <wpt lat="52.075726" lon="5.561918">
    <name>Slaperdijk</name>
    <sym>Flag, Blue</sym>
  </wpt>
  <trk>
    <name>Berry Roubaix</name>
    <trkseg>
      <trkpt lat="52.003747" lon="5.461395">
        <ele>20.319847</ele>
        <time>2026-03-27T19:44:05.719Z</time>
      </trkpt>
      <trkpt lat="52.003851" lon="5.461162">
        <ele>20.319847</ele>
        <time>2026-03-27T19:44:18.009Z</time>
      </trkpt>
      <trkpt lat="52.003959" lon="5.460844">
        <ele>20.319847</ele>
        <time>2026-03-27T19:44:33.594Z</time>
      </trkpt>
      <trkpt lat="52.004017" lon="5.460555">
        <ele>20.319847</ele>
        <time>2026-03-27T19:44:46.600Z</time>
      </trkpt>
      <trkpt lat="52.004038" lon="5.460492">
        <ele>20.319847</ele>
        <time>2026-03-27T19:44:47.395Z</time>
      </trkpt>
      <trkpt lat="52.004493" lon="5.459137">
        <ele>19.535989</ele>
        <time>2026-03-27T19:45:03.746Z</time>
      </trkpt>
      <trkpt lat="52.004143" lon="5.458640">
        <ele>19.002332</ele>
        <time>2026-03-27T19:45:11.459Z</time>
      </trkpt>
      <trkpt lat="52.003938" lon="5.458427">
        <ele>18.722977</ele>
        <time>2026-03-27T19:45:15.492Z</time>
      </trkpt>
      <trkpt lat="52.004225" lon="5.457360">
        <ele>18.004764</ele>
        <time>2026-03-27T19:45:27.816Z</time>
      </trkpt>
      <trkpt lat="52.004389" lon="5.456782">
        <ele>17.687610</ele>
        <time>2026-03-27T19:45:32.763Z</time>
      </trkpt>
      <trkpt lat="52.004406" lon="5.456719">
        <ele>17.653332</ele>
        <time>2026-03-27T19:45:33.274Z</time>
      </trkpt>
      <trkpt lat="52.004584" lon="5.456066">
        <ele>17.297453</ele>
        <time>2026-03-27T19:45:38.804Z</time>
      </trkpt>
      <trkpt lat="52.004623" lon="5.455828">
        <ele>17.174723</ele>
        <time>2026-03-27T19:45:40.721Z</time>
      </trkpt>
      <trkpt lat="52.004594" lon="5.455723">
        <ele>17.117374</ele>
        <time>2026-03-27T19:45:41.609Z</time>
      </trkpt>
      <trkpt lat="52.004542" lon="5.455661">
        <ele>17.065159</ele>
        <time>2026-03-27T19:45:42.438Z</time>
      </trkpt>
      <trkpt lat="52.003302" lon="5.454787">
        <ele>16.268182</ele>
        <time>2026-03-27T19:46:00.493Z</time>
      </trkpt>
      <trkpt lat="52.003924" lon="5.453929">
        <ele>15.836797</ele>
        <time>2026-03-27T19:46:15.602Z</time>
      </trkpt>
      <trkpt lat="52.003770" lon="5.453660">
        <ele>15.675168</ele>
        <time>2026-03-27T19:46:19.669Z</time>
      </trkpt>
      <trkpt lat="52.003695" lon="5.453571">
        <ele>15.608784</ele>
        <time>2026-03-27T19:46:21.360Z</time>
      </trkpt>
      <trkpt lat="52.002870" lon="5.452598">
        <ele>14.880104</ele>
        <time>2026-03-27T19:46:39.338Z</time>
      </trkpt>
      <trkpt lat="52.002061" lon="5.451577">
        <ele>14.235565</ele>
        <time>2026-03-27T19:46:58.157Z</time>
      </trkpt>
      <trkpt lat="52.001872" lon="5.451127">
        <ele>14.044497</ele>
        <time>2026-03-27T19:47:04.560Z</time>
      </trkpt>
      <trkpt lat="52.001793" lon="5.451009">
        <ele>13.983351</ele>
        <time>2026-03-27T19:47:06.557Z</time>
      </trkpt>
      <trkpt lat="52.001776" lon="5.450994">
        <ele>13.972329</ele>
        <time>2026-03-27T19:47:06.922Z</time>
      </trkpt>
      <trkpt lat="52.001782" lon="5.450808">
        <ele>13.907000</ele>
        <time>2026-03-27T19:47:09.045Z</time>
      </trkpt>
      <trkpt lat="52.001831" lon="5.450349">
        <ele>13.743604</ele>
        <time>2026-03-27T19:47:14.275Z</time>
      </trkpt>
      <trkpt lat="52.001927" lon="5.449706">
        <ele>13.508588</ele>
        <time>2026-03-27T19:47:21.560Z</time>
      </trkpt>
      <trkpt lat="52.001916" lon="5.449622">
        <ele>13.476440</ele>
        <time>2026-03-27T19:47:22.501Z</time>
      </trkpt>
      <trkpt lat="52.001963" lon="5.449477">
        <ele>13.415098</ele>
        <time>2026-03-27T19:47:23.772Z</time>
      </trkpt>
      <trkpt lat="52.001965" lon="5.449312">
        <ele>13.353320</ele>
        <time>2026-03-27T19:47:25.050Z</time>
      </trkpt>
      <trkpt lat="52.002134" lon="5.448630">
        <ele>13.078117</ele>
        <time>2026-03-27T19:47:33.140Z</time>
      </trkpt>
      <trkpt lat="52.002384" lon="5.447969">
        <ele>12.787717</ele>
        <time>2026-03-27T19:47:41.829Z</time>
      </trkpt>
      <trkpt lat="52.002539" lon="5.447666">
        <ele>12.640247</ele>
        <time>2026-03-27T19:47:46.395Z</time>
      </trkpt>
      <trkpt lat="52.002901" lon="5.447074">
        <ele>12.331151</ele>
        <time>2026-03-27T19:47:56.104Z</time>
      </trkpt>
      <trkpt lat="52.003002" lon="5.446909">
        <ele>12.246166</ele>
        <time>2026-03-27T19:47:58.841Z</time>
      </trkpt>
      <trkpt lat="52.004794" lon="5.443993">
        <ele>10.397530</ele>
        <time>2026-03-27T19:48:44.997Z</time>
      </trkpt>
      <trkpt lat="52.005811" lon="5.442373">
        <ele>9.247441</ele>
        <time>2026-03-27T19:49:08.847Z</time>
      </trkpt>
      <trkpt lat="52.005985" lon="5.442088">
        <ele>9.071178</ele>
        <time>2026-03-27T19:49:13.160Z</time>
      </trkpt>
      <trkpt lat="52.006915" lon="5.440569">
        <ele>8.341132</ele>
        <time>2026-03-27T19:49:38.901Z</time>
      </trkpt>
      <trkpt lat="52.007355" lon="5.439866">
        <ele>8.164091</ele>
        <time>2026-03-27T19:49:51.474Z</time>
      </trkpt>
      <trkpt lat="52.007825" lon="5.439099">
        <ele>7.972980</ele>
        <time>2026-03-27T19:50:03.825Z</time>
      </trkpt>
      <trkpt lat="52.007732" lon="5.438872">
        <ele>7.895220</ele>
        <time>2026-03-27T19:50:06.879Z</time>
      </trkpt>
      <trkpt lat="52.007700" lon="5.438784">
        <ele>7.864467</ele>
        <time>2026-03-27T19:50:07.677Z</time>
      </trkpt>
      <trkpt lat="52.007461" lon="5.438394">
        <ele>7.698881</ele>
        <time>2026-03-27T19:50:11.983Z</time>
      </trkpt>
      <trkpt lat="52.007412" lon="5.438155">
        <ele>7.623084</ele>
        <time>2026-03-27T19:50:13.951Z</time>
      </trkpt>
      <trkpt lat="52.007736" lon="5.437079">
        <ele>7.262666</ele>
        <time>2026-03-27T19:50:23.586Z</time>
      </trkpt>
      <trkpt lat="52.008023" lon="5.435816">
        <ele>6.958582</ele>
        <time>2026-03-27T19:50:35.575Z</time>
      </trkpt>
      <trkpt lat="52.008085" lon="5.435658">
        <ele>6.926949</ele>
        <time>2026-03-27T19:50:37.249Z</time>
      </trkpt>
      <trkpt lat="52.007182" lon="5.433889">
        <ele>6.554063</ele>
        <time>2026-03-27T19:50:56.654Z</time>
      </trkpt>
      <trkpt lat="52.007042" lon="5.433564">
        <ele>6.505323</ele>
        <time>2026-03-27T19:51:00.045Z</time>
      </trkpt>
      <trkpt lat="52.006992" lon="5.433422">
        <ele>6.485222</ele>
        <time>2026-03-27T19:51:01.431Z</time>
      </trkpt>
      <trkpt lat="52.006949" lon="5.433177">
        <ele>6.453919</ele>
        <time>2026-03-27T19:51:03.609Z</time>
      </trkpt>
      <trkpt lat="52.006900" lon="5.432463">
        <ele>6.365645</ele>
        <time>2026-03-27T19:51:09.836Z</time>
      </trkpt>
      <trkpt lat="52.006795" lon="5.432099">
        <ele>6.316252</ele>
        <time>2026-03-27T19:51:13.344Z</time>
      </trkpt>
      <trkpt lat="52.006704" lon="5.431912">
        <ele>6.286963</ele>
        <time>2026-03-27T19:51:15.420Z</time>
      </trkpt>
      <trkpt lat="52.006563" lon="5.431512">
        <ele>6.234926</ele>
        <time>2026-03-27T19:51:19.474Z</time>
      </trkpt>
      <trkpt lat="52.006626" lon="5.431404">
        <ele>6.233285</ele>
        <time>2026-03-27T19:51:20.784Z</time>
      </trkpt>
      <trkpt lat="52.006646" lon="5.431273">
        <ele>6.231796</ele>
        <time>2026-03-27T19:51:22.021Z</time>
      </trkpt>
      <trkpt lat="52.006583" lon="5.430165">
        <ele>6.219524</ele>
        <time>2026-03-27T19:51:32.117Z</time>
      </trkpt>
      <trkpt lat="52.006569" lon="5.429927">
        <ele>6.216887</ele>
        <time>2026-03-27T19:51:34.334Z</time>
      </trkpt>
      <trkpt lat="52.006469" lon="5.428268">
        <ele>6.205205</ele>
        <time>2026-03-27T19:51:49.534Z</time>
      </trkpt>
      <trkpt lat="52.006453" lon="5.428027">
        <ele>6.206384</ele>
        <time>2026-03-27T19:51:52.649Z</time>
      </trkpt>
      <trkpt lat="52.006433" lon="5.427670">
        <ele>6.208127</ele>
        <time>2026-03-27T19:51:57.189Z</time>
      </trkpt>
      <trkpt lat="52.006522" lon="5.427426">
        <ele>6.209507</ele>
        <time>2026-03-27T19:52:00.772Z</time>
      </trkpt>
      <trkpt lat="52.006561" lon="5.427319">
        <ele>6.210111</ele>
        <time>2026-03-27T19:52:02.375Z</time>
      </trkpt>
      <trkpt lat="52.006905" lon="5.426401">
        <ele>6.215339</ele>
        <time>2026-03-27T19:52:11.987Z</time>
      </trkpt>
      <trkpt lat="52.007132" lon="5.425774">
        <ele>6.215518</ele>
        <time>2026-03-27T19:52:18.691Z</time>
      </trkpt>
      <trkpt lat="52.007181" lon="5.425650">
        <ele>6.214642</ele>
        <time>2026-03-27T19:52:20.062Z</time>
      </trkpt>
      <trkpt lat="52.007418" lon="5.425053">
        <ele>6.210421</ele>
        <time>2026-03-27T19:52:26.578Z</time>
      </trkpt>
      <trkpt lat="52.007841" lon="5.423923">
        <ele>6.202561</ele>
        <time>2026-03-27T19:52:38.391Z</time>
      </trkpt>
      <trkpt lat="52.008047" lon="5.423359">
        <ele>6.193116</ele>
        <time>2026-03-27T19:52:44.321Z</time>
      </trkpt>
      <trkpt lat="52.008578" lon="5.421973">
        <ele>6.143140</ele>
        <time>2026-03-27T19:52:59.531Z</time>
      </trkpt>
      <trkpt lat="52.008620" lon="5.421858">
        <ele>6.139047</ele>
        <time>2026-03-27T19:53:00.724Z</time>
      </trkpt>
      <trkpt lat="52.008678" lon="5.421700">
        <ele>6.133416</ele>
        <time>2026-03-27T19:53:02.342Z</time>
      </trkpt>
      <trkpt lat="52.008875" lon="5.421166">
        <ele>6.114358</ele>
        <time>2026-03-27T19:53:07.670Z</time>
      </trkpt>
      <trkpt lat="52.009439" lon="5.419672">
        <ele>6.190693</ele>
        <time>2026-03-27T19:53:23.242Z</time>
      </trkpt>
      <trkpt lat="52.009627" lon="5.419158">
        <ele>6.220122</ele>
        <time>2026-03-27T19:53:28.875Z</time>
      </trkpt>
      <trkpt lat="52.009740" lon="5.418852">
        <ele>6.237686</ele>
        <time>2026-03-27T19:53:32.385Z</time>
      </trkpt>
      <trkpt lat="52.010100" lon="5.417896">
        <ele>6.375459</ele>
        <time>2026-03-27T19:53:44.321Z</time>
      </trkpt>
      <trkpt lat="52.010708" lon="5.416279">
        <ele>6.668999</ele>
        <time>2026-03-27T19:54:03.010Z</time>
      </trkpt>
      <trkpt lat="52.011074" lon="5.415272">
        <ele>6.448855</ele>
        <time>2026-03-27T19:54:12.654Z</time>
      </trkpt>
      <trkpt lat="52.011210" lon="5.414940">
        <ele>6.337377</ele>
        <time>2026-03-27T19:54:15.817Z</time>
      </trkpt>
      <trkpt lat="52.011325" lon="5.414756">
        <ele>6.264076</ele>
        <time>2026-03-27T19:54:17.862Z</time>
      </trkpt>
      <trkpt lat="52.011590" lon="5.414410">
        <ele>6.109682</ele>
        <time>2026-03-27T19:54:22.160Z</time>
      </trkpt>
      <trkpt lat="52.011797" lon="5.414202">
        <ele>5.999147</ele>
        <time>2026-03-27T19:54:25.344Z</time>
      </trkpt>
      <trkpt lat="52.011820" lon="5.414141">
        <ele>5.979151</ele>
        <time>2026-03-27T19:54:25.922Z</time>
      </trkpt>
      <trkpt lat="52.011797" lon="5.413314">
        <ele>5.975930</ele>
        <time>2026-03-27T19:54:32.993Z</time>
      </trkpt>
      <trkpt lat="52.011750" lon="5.412860">
        <ele>6.053342</ele>
        <time>2026-03-27T19:54:37.288Z</time>
      </trkpt>
      <trkpt lat="52.011677" lon="5.412519">
        <ele>6.114050</ele>
        <time>2026-03-27T19:54:40.839Z</time>
      </trkpt>
      <trkpt lat="52.011249" lon="5.410809">
        <ele>6.475369</ele>
        <time>2026-03-27T19:55:00.350Z</time>
      </trkpt>
      <trkpt lat="52.011219" lon="5.410547">
        <ele>6.573422</ele>
        <time>2026-03-27T19:55:03.186Z</time>
      </trkpt>
      <trkpt lat="52.011224" lon="5.410083">
        <ele>6.744170</ele>
        <time>2026-03-27T19:55:07.951Z</time>
      </trkpt>
      <trkpt lat="52.011255" lon="5.409752">
        <ele>6.867359</ele>
        <time>2026-03-27T19:55:11.289Z</time>
      </trkpt>
      <trkpt lat="52.011422" lon="5.408918">
        <ele>7.190047</ele>
        <time>2026-03-27T19:55:20.630Z</time>
      </trkpt>
      <trkpt lat="52.011592" lon="5.408401">
        <ele>7.405711</ele>
        <time>2026-03-27T19:55:27.121Z</time>
      </trkpt>
      <trkpt lat="52.011727" lon="5.408188">
        <ele>7.509486</ele>
        <time>2026-03-27T19:55:30.480Z</time>
      </trkpt>
      <trkpt lat="52.011855" lon="5.408055">
        <ele>7.587421</ele>
        <time>2026-03-27T19:55:33.174Z</time>
      </trkpt>
      <trkpt lat="52.012000" lon="5.407907">
        <ele>7.675256</ele>
        <time>2026-03-27T19:55:36.203Z</time>
      </trkpt>
      <trkpt lat="52.012230" lon="5.407671">
        <ele>7.814790</ele>
        <time>2026-03-27T19:55:41.011Z</time>
      </trkpt>
      <trkpt lat="52.012432" lon="5.407493">
        <ele>7.932662</ele>
        <time>2026-03-27T19:55:45.080Z</time>
      </trkpt>
      <trkpt lat="52.012503" lon="5.407411">
        <ele>7.977345</ele>
        <time>2026-03-27T19:55:47.082Z</time>
      </trkpt>
      <trkpt lat="52.012564" lon="5.407276">
        <ele>8.030217</ele>
        <time>2026-03-27T19:55:49.476Z</time>
      </trkpt>
      <trkpt lat="52.013163" lon="5.406623">
        <ele>8.376193</ele>
        <time>2026-03-27T19:56:47.791Z</time>
      </trkpt>
      <trkpt lat="52.013979" lon="5.404703">
        <ele>8.263624</ele>
        <time>2026-03-27T19:58:40.642Z</time>
      </trkpt>
      <trkpt lat="52.015201" lon="5.401772">
        <ele>8.282126</ele>
        <time>2026-03-27T20:01:34.027Z</time>
      </trkpt>
      <trkpt lat="52.014915" lon="5.401224">
        <ele>8.237618</ele>
        <time>2026-03-27T20:02:09.111Z</time>
      </trkpt>
      <trkpt lat="52.014899" lon="5.400689">
        <ele>8.204438</ele>
        <time>2026-03-27T20:02:35.205Z</time>
      </trkpt>
      <trkpt lat="52.014947" lon="5.399297">
        <ele>8.118075</ele>
        <time>2026-03-27T20:03:42.695Z</time>
      </trkpt>
      <trkpt lat="52.014995" lon="5.397901">
        <ele>7.918570</ele>
        <time>2026-03-27T20:04:50.581Z</time>
      </trkpt>
      <trkpt lat="52.014975" lon="5.397023">
        <ele>7.782757</ele>
        <time>2026-03-27T20:05:33.107Z</time>
      </trkpt>
      <trkpt lat="52.014927" lon="5.396624">
        <ele>7.719912</ele>
        <time>2026-03-27T20:05:52.660Z</time>
      </trkpt>
      <trkpt lat="52.014851" lon="5.396309">
        <ele>7.667612</ele>
        <time>2026-03-27T20:06:08.916Z</time>
      </trkpt>
      <trkpt lat="52.013818" lon="5.393849">
        <ele>6.981093</ele>
        <time>2026-03-27T20:08:31.056Z</time>
      </trkpt>
      <trkpt lat="52.013771" lon="5.393543">
        <ele>7.034081</ele>
        <time>2026-03-27T20:08:46.510Z</time>
      </trkpt>
      <trkpt lat="52.013862" lon="5.393497">
        <ele>7.065354</ele>
        <time>2026-03-27T20:08:48.561Z</time>
      </trkpt>
      <trkpt lat="52.014118" lon="5.393208">
        <ele>7.167646</ele>
        <time>2026-03-27T20:08:55.323Z</time>
      </trkpt>
      <trkpt lat="52.014808" lon="5.392464">
        <ele>7.439387</ele>
        <time>2026-03-27T20:09:14.185Z</time>
      </trkpt>
      <trkpt lat="52.015298" lon="5.391935">
        <ele>7.595821</ele>
        <time>2026-03-27T20:09:26.965Z</time>
      </trkpt>
      <trkpt lat="52.016156" lon="5.391067">
        <ele>7.745858</ele>
        <time>2026-03-27T20:09:47.515Z</time>
      </trkpt>
      <trkpt lat="52.016490" lon="5.390792">
        <ele>7.801441</ele>
        <time>2026-03-27T20:09:55.094Z</time>
      </trkpt>
      <trkpt lat="52.016648" lon="5.390727">
        <ele>7.825636</ele>
        <time>2026-03-27T20:09:58.463Z</time>
      </trkpt>
      <trkpt lat="52.017927" lon="5.390202">
        <ele>8.190829</ele>
        <time>2026-03-27T20:10:26.751Z</time>
      </trkpt>
      <trkpt lat="52.018947" lon="5.389842">
        <ele>8.293748</ele>
        <time>2026-03-27T20:10:49.041Z</time>
      </trkpt>
      <trkpt lat="52.018898" lon="5.389478">
        <ele>8.273703</ele>
        <time>2026-03-27T20:10:53.721Z</time>
      </trkpt>
      <trkpt lat="52.018789" lon="5.389232">
        <ele>8.257397</ele>
        <time>2026-03-27T20:10:57.419Z</time>
      </trkpt>
      <trkpt lat="52.018660" lon="5.389036">
        <ele>8.241959</ele>
        <time>2026-03-27T20:11:00.859Z</time>
      </trkpt>
      <trkpt lat="52.018265" lon="5.388627">
        <ele>8.201016</ele>
        <time>2026-03-27T20:11:09.800Z</time>
      </trkpt>
      <trkpt lat="52.017905" lon="5.388267">
        <ele>8.124695</ele>
        <time>2026-03-27T20:11:17.781Z</time>
      </trkpt>
      <trkpt lat="52.017648" lon="5.387844">
        <ele>8.021582</ele>
        <time>2026-03-27T20:11:24.678Z</time>
      </trkpt>
      <trkpt lat="52.017610" lon="5.387782">
        <ele>8.006403</ele>
        <time>2026-03-27T20:11:25.689Z</time>
      </trkpt>
      <trkpt lat="52.016833" lon="5.386102">
        <ele>7.617246</ele>
        <time>2026-03-27T20:11:50.892Z</time>
      </trkpt>
      <trkpt lat="52.016441" lon="5.384646">
        <ele>7.135572</ele>
        <time>2026-03-27T20:12:09.392Z</time>
      </trkpt>
      <trkpt lat="52.016197" lon="5.383864">
        <ele>6.869835</ele>
        <time>2026-03-27T20:12:18.932Z</time>
      </trkpt>
      <trkpt lat="52.016158" lon="5.383883">
        <ele>6.849784</ele>
        <time>2026-03-27T20:12:19.447Z</time>
      </trkpt>
      <trkpt lat="52.015492" lon="5.384130">
        <ele>6.702069</ele>
        <time>2026-03-27T20:12:28.300Z</time>
      </trkpt>
      <trkpt lat="52.015152" lon="5.384198">
        <ele>6.648873</ele>
        <time>2026-03-27T20:12:32.974Z</time>
      </trkpt>
      <trkpt lat="52.014996" lon="5.384260">
        <ele>6.623933</ele>
        <time>2026-03-27T20:12:35.251Z</time>
      </trkpt>
      <trkpt lat="52.014930" lon="5.384370">
        <ele>6.609251</ele>
        <time>2026-03-27T20:12:36.643Z</time>
      </trkpt>
      <trkpt lat="52.013950" lon="5.386370">
        <ele>6.542982</ele>
        <time>2026-03-27T20:13:02.052Z</time>
      </trkpt>
      <trkpt lat="52.013850" lon="5.386440">
        <ele>6.546874</ele>
        <time>2026-03-27T20:13:03.721Z</time>
      </trkpt>
      <trkpt lat="52.013721" lon="5.386416">
        <ele>6.551514</ele>
        <time>2026-03-27T20:13:05.659Z</time>
      </trkpt>
      <trkpt lat="52.013061" lon="5.385421">
        <ele>6.455111</ele>
        <time>2026-03-27T20:13:18.105Z</time>
      </trkpt>
      <trkpt lat="52.012871" lon="5.385113">
        <ele>6.338088</ele>
        <time>2026-03-27T20:13:21.635Z</time>
      </trkpt>
      <trkpt lat="52.012435" lon="5.384114">
        <ele>6.009441</ele>
        <time>2026-03-27T20:13:31.580Z</time>
      </trkpt>
      <trkpt lat="52.011717" lon="5.382586">
        <ele>5.483250</ele>
        <time>2026-03-27T20:13:47.455Z</time>
      </trkpt>
      <trkpt lat="52.011295" lon="5.381683">
        <ele>5.168404</ele>
        <time>2026-03-27T20:13:56.739Z</time>
      </trkpt>
      <trkpt lat="52.010822" lon="5.380747">
        <ele>4.962195</ele>
        <time>2026-03-27T20:14:06.784Z</time>
      </trkpt>
      <trkpt lat="52.007768" lon="5.375232">
        <ele>4.651793</ele>
        <time>2026-03-27T20:15:14.200Z</time>
      </trkpt>
      <trkpt lat="52.006454" lon="5.373086">
        <ele>4.195814</ele>
        <time>2026-03-27T20:15:39.623Z</time>
      </trkpt>
      <trkpt lat="52.006103" lon="5.372477">
        <ele>4.068878</ele>
        <time>2026-03-27T20:15:46.954Z</time>
      </trkpt>
      <trkpt lat="52.006343" lon="5.371931">
        <ele>4.082605</ele>
        <time>2026-03-27T20:15:52.983Z</time>
      </trkpt>
      <trkpt lat="52.006925" lon="5.370625">
        <ele>4.115593</ele>
        <time>2026-03-27T20:16:08.116Z</time>
      </trkpt>
      <trkpt lat="52.006979" lon="5.370504">
        <ele>4.118651</ele>
        <time>2026-03-27T20:16:09.562Z</time>
      </trkpt>
      <trkpt lat="52.007541" lon="5.369225">
        <ele>4.085303</ele>
        <time>2026-03-27T20:16:24.181Z</time>
      </trkpt>
      <trkpt lat="52.007590" lon="5.369094">
        <ele>4.080071</ele>
        <time>2026-03-27T20:16:25.613Z</time>
      </trkpt>
      <trkpt lat="52.008305" lon="5.367457">
        <ele>3.957409</ele>
        <time>2026-03-27T20:16:43.152Z</time>
      </trkpt>
      <trkpt lat="52.009054" lon="5.365812">
        <ele>3.634800</ele>
        <time>2026-03-27T20:17:00.448Z</time>
      </trkpt>
      <trkpt lat="52.010006" lon="5.363632">
        <ele>3.379694</ele>
        <time>2026-03-27T20:17:23.795Z</time>
      </trkpt>
      <trkpt lat="52.010331" lon="5.362913">
        <ele>3.352853</ele>
        <time>2026-03-27T20:17:31.843Z</time>
      </trkpt>
      <trkpt lat="52.010597" lon="5.362331">
        <ele>3.459985</ele>
        <time>2026-03-27T20:17:38.606Z</time>
      </trkpt>
      <trkpt lat="52.012033" lon="5.359149">
        <ele>4.147723</ele>
        <time>2026-03-27T20:18:18.215Z</time>
      </trkpt>
      <trkpt lat="52.012197" lon="5.358722">
        <ele>4.249059</ele>
        <time>2026-03-27T20:18:23.179Z</time>
      </trkpt>
      <trkpt lat="52.012225" lon="5.358651">
        <ele>4.266036</ele>
        <time>2026-03-27T20:18:24.012Z</time>
      </trkpt>
      <trkpt lat="52.012420" lon="5.358879">
        <ele>4.343473</ele>
        <time>2026-03-27T20:18:30.902Z</time>
      </trkpt>
      <trkpt lat="52.014577" lon="5.362551">
        <ele>4.696836</ele>
        <time>2026-03-27T20:19:58.821Z</time>
      </trkpt>
      <trkpt lat="52.016936" lon="5.366568">
        <ele>5.100233</ele>
        <time>2026-03-27T20:21:35.124Z</time>
      </trkpt>
      <trkpt lat="52.017981" lon="5.368421">
        <ele>5.475117</ele>
        <time>2026-03-27T20:22:20.221Z</time>
      </trkpt>
      <trkpt lat="52.018783" lon="5.367273">
        <ele>5.760460</ele>
        <time>2026-03-27T20:22:43.044Z</time>
      </trkpt>
      <trkpt lat="52.019190" lon="5.366710">
        <ele>5.835079</ele>
        <time>2026-03-27T20:22:54.176Z</time>
      </trkpt>
      <trkpt lat="52.019287" lon="5.366767">
        <ele>5.849478</ele>
        <time>2026-03-27T20:22:56.298Z</time>
      </trkpt>
      <trkpt lat="52.021098" lon="5.368953">
        <ele>6.194465</ele>
        <time>2026-03-27T20:23:42.747Z</time>
      </trkpt>
      <trkpt lat="52.021610" lon="5.369600">
        <ele>6.322900</ele>
        <time>2026-03-27T20:23:56.413Z</time>
      </trkpt>
      <trkpt lat="52.023040" lon="5.370990">
        <ele>6.922725</ele>
        <time>2026-03-27T20:24:32.650Z</time>
      </trkpt>
      <trkpt lat="52.024156" lon="5.372112">
        <ele>7.231052</ele>
        <time>2026-03-27T20:25:01.572Z</time>
      </trkpt>
      <trkpt lat="52.024319" lon="5.371432">
        <ele>7.335776</ele>
        <time>2026-03-27T20:25:10.643Z</time>
      </trkpt>
      <trkpt lat="52.025231" lon="5.367641">
        <ele>6.602143</ele>
        <time>2026-03-27T20:25:57.094Z</time>
      </trkpt>
      <trkpt lat="52.025469" lon="5.367019">
        <ele>6.640591</ele>
        <time>2026-03-27T20:26:06.066Z</time>
      </trkpt>
      <trkpt lat="52.025951" lon="5.366060">
        <ele>6.740309</ele>
        <time>2026-03-27T20:26:23.559Z</time>
      </trkpt>
      <trkpt lat="52.026043" lon="5.365886">
        <ele>6.828201</ele>
        <time>2026-03-27T20:26:26.960Z</time>
      </trkpt>
      <trkpt lat="52.026240" lon="5.365894">
        <ele>6.950898</ele>
        <time>2026-03-27T20:26:31.621Z</time>
      </trkpt>
      <trkpt lat="52.026678" lon="5.365629">
        <ele>7.241894</ele>
        <time>2026-03-27T20:26:42.336Z</time>
      </trkpt>
      <trkpt lat="52.026769" lon="5.365610">
        <ele>7.299020</ele>
        <time>2026-03-27T20:26:44.416Z</time>
      </trkpt>
      <trkpt lat="52.026842" lon="5.365612">
        <ele>7.344478</ele>
        <time>2026-03-27T20:26:46.086Z</time>
      </trkpt>
      <trkpt lat="52.026958" lon="5.365693">
        <ele>7.423088</ele>
        <time>2026-03-27T20:26:48.976Z</time>
      </trkpt>
      <trkpt lat="52.027315" lon="5.366167">
        <ele>7.710111</ele>
        <time>2026-03-27T20:26:59.176Z</time>
      </trkpt>
      <trkpt lat="52.029176" lon="5.367621">
        <ele>9.330267</ele>
        <time>2026-03-27T20:27:45.576Z</time>
      </trkpt>
      <trkpt lat="52.029774" lon="5.368091">
        <ele>10.621921</ele>
        <time>2026-03-27T20:28:05.138Z</time>
      </trkpt>
      <trkpt lat="52.030093" lon="5.368520">
        <ele>11.427032</ele>
        <time>2026-03-27T20:28:15.443Z</time>
      </trkpt>
      <trkpt lat="52.030374" lon="5.368818">
        <ele>12.079470</ele>
        <time>2026-03-27T20:28:23.703Z</time>
      </trkpt>
      <trkpt lat="52.031075" lon="5.369275">
        <ele>13.346141</ele>
        <time>2026-03-27T20:28:39.692Z</time>
      </trkpt>
      <trkpt lat="52.031791" lon="5.369728">
        <ele>14.502938</ele>
        <time>2026-03-27T20:28:54.360Z</time>
      </trkpt>
      <trkpt lat="52.031934" lon="5.369795">
        <ele>14.727006</ele>
        <time>2026-03-27T20:28:58.179Z</time>
      </trkpt>
      <trkpt lat="52.032240" lon="5.369993">
        <ele>15.222883</ele>
        <time>2026-03-27T20:29:26.386Z</time>
      </trkpt>
      <trkpt lat="52.032490" lon="5.370150">
        <ele>15.883644</ele>
        <time>2026-03-27T20:29:49.742Z</time>
      </trkpt>
      <trkpt lat="52.032791" lon="5.370264">
        <ele>16.800457</ele>
        <time>2026-03-27T20:30:17.071Z</time>
      </trkpt>
      <trkpt lat="52.033230" lon="5.370334">
        <ele>18.108971</ele>
        <time>2026-03-27T20:30:56.893Z</time>
      </trkpt>
      <trkpt lat="52.033906" lon="5.370359">
        <ele>20.114796</ele>
        <time>2026-03-27T20:31:59.885Z</time>
      </trkpt>
      <trkpt lat="52.035006" lon="5.370303">
        <ele>24.726121</ele>
        <time>2026-03-27T20:33:45.595Z</time>
      </trkpt>
      <trkpt lat="52.035649" lon="5.370267">
        <ele>27.592728</ele>
        <time>2026-03-27T20:34:48.878Z</time>
      </trkpt>
      <trkpt lat="52.036548" lon="5.370181">
        <ele>31.714773</ele>
        <time>2026-03-27T20:36:19.089Z</time>
      </trkpt>
      <trkpt lat="52.037285" lon="5.369998">
        <ele>35.162358</ele>
        <time>2026-03-27T20:37:32.886Z</time>
      </trkpt>
      <trkpt lat="52.037871" lon="5.370001">
        <ele>37.546317</ele>
        <time>2026-03-27T20:38:28.780Z</time>
      </trkpt>
      <trkpt lat="52.037967" lon="5.369971">
        <ele>37.823861</ele>
        <time>2026-03-27T20:38:37.886Z</time>
      </trkpt>
      <trkpt lat="52.038055" lon="5.370068">
        <ele>38.125720</ele>
        <time>2026-03-27T20:38:40.883Z</time>
      </trkpt>
      <trkpt lat="52.038749" lon="5.370882">
        <ele>40.555360</ele>
        <time>2026-03-27T20:39:03.007Z</time>
      </trkpt>
      <trkpt lat="52.039702" lon="5.372069">
        <ele>43.141908</ele>
        <time>2026-03-27T20:39:30.901Z</time>
      </trkpt>
      <trkpt lat="52.039722" lon="5.372094">
        <ele>43.181350</ele>
        <time>2026-03-27T20:39:31.455Z</time>
      </trkpt>
      <trkpt lat="52.040013" lon="5.372454">
        <ele>43.753042</ele>
        <time>2026-03-27T20:39:39.431Z</time>
      </trkpt>
      <trkpt lat="52.040058" lon="5.372508">
        <ele>43.840484</ele>
        <time>2026-03-27T20:39:40.621Z</time>
      </trkpt>
      <trkpt lat="52.040707" lon="5.373335">
        <ele>44.954289</ele>
        <time>2026-03-27T20:39:57.040Z</time>
      </trkpt>
      <trkpt lat="52.041765" lon="5.375007">
        <ele>45.051237</ele>
        <time>2026-03-27T20:40:18.794Z</time>
      </trkpt>
      <trkpt lat="52.041844" lon="5.375138">
        <ele>45.058652</ele>
        <time>2026-03-27T20:40:20.384Z</time>
      </trkpt>
      <trkpt lat="52.042412" lon="5.376121">
        <ele>44.403816</ele>
        <time>2026-03-27T20:40:30.725Z</time>
      </trkpt>
      <trkpt lat="52.042579" lon="5.376496">
        <ele>44.148209</ele>
        <time>2026-03-27T20:40:34.020Z</time>
      </trkpt>
      <trkpt lat="52.042954" lon="5.377525">
        <ele>43.487868</ele>
        <time>2026-03-27T20:40:42.941Z</time>
      </trkpt>
      <trkpt lat="52.043297" lon="5.378757">
        <ele>43.536006</ele>
        <time>2026-03-27T20:40:53.520Z</time>
      </trkpt>
      <trkpt lat="52.043457" lon="5.379546">
        <ele>43.591454</ele>
        <time>2026-03-27T20:41:02.313Z</time>
      </trkpt>
      <trkpt lat="52.043491" lon="5.379736">
        <ele>43.604660</ele>
        <time>2026-03-27T20:41:04.750Z</time>
      </trkpt>
      <trkpt lat="52.042808" lon="5.381167">
        <ele>45.322887</ele>
        <time>2026-03-27T20:41:40.268Z</time>
      </trkpt>
      <trkpt lat="52.042781" lon="5.381222">
        <ele>45.421261</ele>
        <time>2026-03-27T20:41:41.884Z</time>
      </trkpt>
      <trkpt lat="52.042422" lon="5.381984">
        <ele>46.763077</ele>
        <time>2026-03-27T20:42:04.871Z</time>
      </trkpt>
      <trkpt lat="52.042362" lon="5.381990">
        <ele>46.899703</ele>
        <time>2026-03-27T20:42:06.841Z</time>
      </trkpt>
      <trkpt lat="52.042333" lon="5.381936">
        <ele>46.999918</ele>
        <time>2026-03-27T20:42:08.317Z</time>
      </trkpt>
      <trkpt lat="52.042305" lon="5.381876">
        <ele>47.105204</ele>
        <time>2026-03-27T20:42:09.982Z</time>
      </trkpt>
      <trkpt lat="52.041568" lon="5.380252">
        <ele>49.993248</ele>
        <time>2026-03-27T20:43:03.397Z</time>
      </trkpt>
      <trkpt lat="52.041451" lon="5.380178">
        <ele>50.287256</ele>
        <time>2026-03-27T20:43:08.375Z</time>
      </trkpt>
      <trkpt lat="52.041393" lon="5.380179">
        <ele>50.423095</ele>
        <time>2026-03-27T20:43:10.577Z</time>
      </trkpt>
      <trkpt lat="52.041207" lon="5.380259">
        <ele>50.873676</ele>
        <time>2026-03-27T20:43:17.462Z</time>
      </trkpt>
      <trkpt lat="52.040974" lon="5.380303">
        <ele>51.423010</ele>
        <time>2026-03-27T20:43:24.997Z</time>
      </trkpt>
      <trkpt lat="52.040911" lon="5.380382">
        <ele>51.609340</ele>
        <time>2026-03-27T20:43:27.299Z</time>
      </trkpt>
      <trkpt lat="52.040878" lon="5.380445">
        <ele>51.728540</ele>
        <time>2026-03-27T20:43:28.740Z</time>
      </trkpt>
      <trkpt lat="52.040857" lon="5.380616">
        <ele>51.918558</ele>
        <time>2026-03-27T20:43:31.609Z</time>
      </trkpt>
      <trkpt lat="52.040701" lon="5.381039">
        <ele>51.352365</ele>
        <time>2026-03-27T20:43:38.968Z</time>
      </trkpt>
      <trkpt lat="52.040608" lon="5.381258">
        <ele>51.046860</ele>
        <time>2026-03-27T20:43:42.683Z</time>
      </trkpt>
      <trkpt lat="52.040395" lon="5.381617">
        <ele>50.474250</ele>
        <time>2026-03-27T20:43:49.532Z</time>
      </trkpt>
      <trkpt lat="52.040265" lon="5.381944">
        <ele>50.027272</ele>
        <time>2026-03-27T20:43:54.814Z</time>
      </trkpt>
      <trkpt lat="52.040177" lon="5.382478">
        <ele>49.392619</ele>
        <time>2026-03-27T20:44:02.218Z</time>
      </trkpt>
      <trkpt lat="52.040112" lon="5.382603">
        <ele>49.204712</ele>
        <time>2026-03-27T20:44:04.400Z</time>
      </trkpt>
      <trkpt lat="52.040009" lon="5.382985">
        <ele>48.725891</ele>
        <time>2026-03-27T20:44:09.994Z</time>
      </trkpt>
      <trkpt lat="52.039939" lon="5.383165">
        <ele>48.490998</ele>
        <time>2026-03-27T20:44:12.863Z</time>
      </trkpt>
      <trkpt lat="52.039735" lon="5.383402">
        <ele>48.064800</ele>
        <time>2026-03-27T20:44:18.430Z</time>
      </trkpt>
      <trkpt lat="52.039678" lon="5.383522">
        <ele>47.906277</ele>
        <time>2026-03-27T20:44:20.541Z</time>
      </trkpt>
      <trkpt lat="52.039631" lon="5.383876">
        <ele>47.527622</ele>
        <time>2026-03-27T20:44:25.599Z</time>
      </trkpt>
      <trkpt lat="52.039563" lon="5.384066">
        <ele>47.297784</ele>
        <time>2026-03-27T20:44:28.738Z</time>
      </trkpt>
      <trkpt lat="52.039319" lon="5.384468">
        <ele>46.707288</ele>
        <time>2026-03-27T20:44:36.866Z</time>
      </trkpt>
      <trkpt lat="52.039206" lon="5.384925">
        <ele>46.192298</ele>
        <time>2026-03-27T20:44:44.052Z</time>
      </trkpt>
      <trkpt lat="52.039031" lon="5.385241">
        <ele>45.747718</ele>
        <time>2026-03-27T20:44:50.378Z</time>
      </trkpt>
      <trkpt lat="52.038942" lon="5.385491">
        <ele>45.450229</ele>
        <time>2026-03-27T20:44:54.788Z</time>
      </trkpt>
      <trkpt lat="52.038866" lon="5.385612">
        <ele>45.278956</ele>
        <time>2026-03-27T20:44:57.458Z</time>
      </trkpt>
      <trkpt lat="52.038622" lon="5.386343">
        <ele>44.455248</ele>
        <time>2026-03-27T20:45:10.309Z</time>
      </trkpt>
      <trkpt lat="52.038510" lon="5.386504">
        <ele>44.214531</ele>
        <time>2026-03-27T20:45:13.944Z</time>
      </trkpt>
      <trkpt lat="52.038400" lon="5.386757">
        <ele>43.907685</ele>
        <time>2026-03-27T20:45:18.501Z</time>
      </trkpt>
      <trkpt lat="52.038362" lon="5.386928">
        <ele>43.727611</ele>
        <time>2026-03-27T20:45:21.131Z</time>
      </trkpt>
      <trkpt lat="52.038150" lon="5.387221">
        <ele>43.279591</ele>
        <time>2026-03-27T20:45:27.473Z</time>
      </trkpt>
      <trkpt lat="52.038019" lon="5.387638">
        <ele>42.815845</ele>
        <time>2026-03-27T20:45:33.854Z</time>
      </trkpt>
      <trkpt lat="52.037941" lon="5.387794">
        <ele>42.603159</ele>
        <time>2026-03-27T20:45:36.566Z</time>
      </trkpt>
      <trkpt lat="52.037883" lon="5.388107">
        <ele>42.045435</ele>
        <time>2026-03-27T20:45:40.930Z</time>
      </trkpt>
      <trkpt lat="52.037566" lon="5.388876">
        <ele>40.466054</ele>
        <time>2026-03-27T20:45:53.101Z</time>
      </trkpt>
      <trkpt lat="52.037555" lon="5.389260">
        <ele>39.810182</ele>
        <time>2026-03-27T20:45:58.117Z</time>
      </trkpt>
      <trkpt lat="52.037630" lon="5.389616">
        <ele>39.168159</ele>
        <time>2026-03-27T20:46:03.025Z</time>
      </trkpt>
      <trkpt lat="52.037628" lon="5.389820">
        <ele>38.820061</ele>
        <time>2026-03-27T20:46:05.678Z</time>
      </trkpt>
      <trkpt lat="52.037628" lon="5.389932">
        <ele>38.628972</ele>
        <time>2026-03-27T20:46:07.141Z</time>
      </trkpt>
      <trkpt lat="52.037678" lon="5.390293">
        <ele>37.997634</ele>
        <time>2026-03-27T20:46:12.048Z</time>
      </trkpt>
      <trkpt lat="52.037673" lon="5.390707">
        <ele>37.515913</ele>
        <time>2026-03-27T20:46:17.647Z</time>
      </trkpt>
      <trkpt lat="52.037627" lon="5.391106">
        <ele>37.260952</ele>
        <time>2026-03-27T20:46:23.307Z</time>
      </trkpt>
      <trkpt lat="52.037630" lon="5.391382">
        <ele>37.087578</ele>
        <time>2026-03-27T20:46:27.268Z</time>
      </trkpt>
      <trkpt lat="52.037590" lon="5.391666">
        <ele>36.904592</ele>
        <time>2026-03-27T20:46:31.570Z</time>
      </trkpt>
      <trkpt lat="52.037506" lon="5.392035">
        <ele>36.657474</ele>
        <time>2026-03-27T20:46:37.674Z</time>
      </trkpt>
      <trkpt lat="52.037421" lon="5.392192">
        <ele>36.526116</ele>
        <time>2026-03-27T20:46:40.961Z</time>
      </trkpt>
      <trkpt lat="52.037158" lon="5.392379">
        <ele>36.233029</ele>
        <time>2026-03-27T20:46:48.509Z</time>
      </trkpt>
      <trkpt lat="52.037073" lon="5.392397">
        <ele>36.145510</ele>
        <time>2026-03-27T20:46:50.858Z</time>
      </trkpt>
      <trkpt lat="52.036857" lon="5.392289">
        <ele>35.914776</ele>
        <time>2026-03-27T20:46:57.122Z</time>
      </trkpt>
      <trkpt lat="52.036733" lon="5.392324">
        <ele>35.815347</ele>
        <time>2026-03-27T20:47:00.808Z</time>
      </trkpt>
      <trkpt lat="52.036636" lon="5.392422">
        <ele>35.839114</ele>
        <time>2026-03-27T20:47:04.206Z</time>
      </trkpt>
      <trkpt lat="52.035450" lon="5.396165">
        <ele>35.557023</ele>
        <time>2026-03-27T20:48:18.626Z</time>
      </trkpt>
      <trkpt lat="52.035378" lon="5.396282">
        <ele>35.488255</ele>
        <time>2026-03-27T20:48:21.138Z</time>
      </trkpt>
      <trkpt lat="52.035325" lon="5.396473">
        <ele>35.401187</ele>
        <time>2026-03-27T20:48:24.286Z</time>
      </trkpt>
      <trkpt lat="52.034739" lon="5.396326">
        <ele>35.000670</ele>
        <time>2026-03-27T20:48:31.014Z</time>
      </trkpt>
      <trkpt lat="52.034463" lon="5.396310">
        <ele>34.497147</ele>
        <time>2026-03-27T20:48:34.014Z</time>
      </trkpt>
      <trkpt lat="52.034434" lon="5.396449">
        <ele>34.311957</ele>
        <time>2026-03-27T20:48:35.994Z</time>
      </trkpt>
      <trkpt lat="52.034251" lon="5.396593">
        <ele>33.894971</ele>
        <time>2026-03-27T20:48:40.560Z</time>
      </trkpt>
      <trkpt lat="52.034206" lon="5.396665">
        <ele>33.765469</ele>
        <time>2026-03-27T20:48:42.002Z</time>
      </trkpt>
      <trkpt lat="52.034116" lon="5.396873">
        <ele>33.444618</ele>
        <time>2026-03-27T20:48:45.500Z</time>
      </trkpt>
      <trkpt lat="52.034107" lon="5.396968">
        <ele>33.323341</ele>
        <time>2026-03-27T20:48:46.817Z</time>
      </trkpt>
      <trkpt lat="52.034179" lon="5.397369">
        <ele>32.796280</ele>
        <time>2026-03-27T20:48:52.484Z</time>
      </trkpt>
      <trkpt lat="52.034263" lon="5.397614">
        <ele>32.442393</ele>
        <time>2026-03-27T20:48:56.241Z</time>
      </trkpt>
      <trkpt lat="52.034248" lon="5.397853">
        <ele>32.139276</ele>
        <time>2026-03-27T20:48:59.439Z</time>
      </trkpt>
      <trkpt lat="52.034152" lon="5.398287">
        <ele>31.557367</ele>
        <time>2026-03-27T20:49:05.742Z</time>
      </trkpt>
      <trkpt lat="52.034304" lon="5.399656">
        <ele>30.730254</ele>
        <time>2026-03-27T20:49:27.159Z</time>
      </trkpt>
      <trkpt lat="52.034313" lon="5.399693">
        <ele>30.711561</ele>
        <time>2026-03-27T20:49:27.825Z</time>
      </trkpt>
      <trkpt lat="52.034070" lon="5.400419">
        <ele>30.323259</ele>
        <time>2026-03-27T20:49:41.455Z</time>
      </trkpt>
      <trkpt lat="52.033887" lon="5.401062">
        <ele>29.990406</ele>
        <time>2026-03-27T20:49:52.933Z</time>
      </trkpt>
      <trkpt lat="52.033948" lon="5.401891">
        <ele>29.467070</ele>
        <time>2026-03-27T20:50:06.041Z</time>
      </trkpt>
      <trkpt lat="52.034098" lon="5.402188">
        <ele>29.209978</ele>
        <time>2026-03-27T20:50:11.725Z</time>
      </trkpt>
      <trkpt lat="52.034156" lon="5.402537">
        <ele>28.968111</ele>
        <time>2026-03-27T20:50:16.850Z</time>
      </trkpt>
      <trkpt lat="52.034400" lon="5.402937">
        <ele>28.591236</ele>
        <time>2026-03-27T20:50:24.743Z</time>
      </trkpt>
      <trkpt lat="52.034554" lon="5.403308">
        <ele>28.291803</ele>
        <time>2026-03-27T20:50:31.255Z</time>
      </trkpt>
      <trkpt lat="52.034595" lon="5.403484">
        <ele>28.165892</ele>
        <time>2026-03-27T20:50:34.090Z</time>
      </trkpt>
      <trkpt lat="52.034639" lon="5.403911">
        <ele>27.944537</ele>
        <time>2026-03-27T20:50:40.880Z</time>
      </trkpt>
      <trkpt lat="52.034644" lon="5.404190">
        <ele>27.928034</ele>
        <time>2026-03-27T20:50:45.537Z</time>
      </trkpt>
      <trkpt lat="52.034583" lon="5.404437">
        <ele>27.912298</ele>
        <time>2026-03-27T20:50:50.280Z</time>
      </trkpt>
      <trkpt lat="52.034567" lon="5.404630">
        <ele>27.900783</ele>
        <time>2026-03-27T20:50:53.891Z</time>
      </trkpt>
      <trkpt lat="52.034400" lon="5.405077">
        <ele>27.869863</ele>
        <time>2026-03-27T20:51:04.079Z</time>
      </trkpt>
      <trkpt lat="52.034240" lon="5.405318">
        <ele>27.848898</ele>
        <time>2026-03-27T20:51:10.892Z</time>
      </trkpt>
      <trkpt lat="52.034182" lon="5.405558">
        <ele>27.833652</ele>
        <time>2026-03-27T20:51:15.722Z</time>
      </trkpt>
      <trkpt lat="52.034137" lon="5.405652">
        <ele>27.826610</ele>
        <time>2026-03-27T20:51:17.929Z</time>
      </trkpt>
      <trkpt lat="52.034016" lon="5.405788">
        <ele>27.812472</ele>
        <time>2026-03-27T20:51:22.169Z</time>
      </trkpt>
      <trkpt lat="52.033953" lon="5.405950">
        <ele>27.801140</ele>
        <time>2026-03-27T20:51:25.336Z</time>
      </trkpt>
      <trkpt lat="52.033902" lon="5.406108">
        <ele>27.790590</ele>
        <time>2026-03-27T20:51:28.139Z</time>
      </trkpt>
      <trkpt lat="52.033819" lon="5.406226">
        <ele>27.779993</ele>
        <time>2026-03-27T20:51:30.884Z</time>
      </trkpt>
      <trkpt lat="52.033754" lon="5.406426">
        <ele>27.436289</ele>
        <time>2026-03-27T20:51:34.194Z</time>
      </trkpt>
      <trkpt lat="52.033594" lon="5.406668">
        <ele>26.820926</ele>
        <time>2026-03-27T20:51:39.161Z</time>
      </trkpt>
      <trkpt lat="52.033489" lon="5.407044">
        <ele>26.105664</ele>
        <time>2026-03-27T20:51:44.816Z</time>
      </trkpt>
      <trkpt lat="52.033317" lon="5.407297">
        <ele>25.452520</ele>
        <time>2026-03-27T20:51:49.728Z</time>
      </trkpt>
      <trkpt lat="52.033236" lon="5.407491">
        <ele>25.046390</ele>
        <time>2026-03-27T20:51:52.723Z</time>
      </trkpt>
      <trkpt lat="52.033027" lon="5.407674">
        <ele>24.377972</ele>
        <time>2026-03-27T20:51:57.603Z</time>
      </trkpt>
      <trkpt lat="52.032966" lon="5.407787">
        <ele>24.117562</ele>
        <time>2026-03-27T20:51:59.481Z</time>
      </trkpt>
      <trkpt lat="52.032846" lon="5.408131">
        <ele>23.432554</ele>
        <time>2026-03-27T20:52:04.424Z</time>
      </trkpt>
      <trkpt lat="52.032809" lon="5.408857">
        <ele>22.098919</ele>
        <time>2026-03-27T20:52:13.684Z</time>
      </trkpt>
      <trkpt lat="52.032745" lon="5.409042">
        <ele>21.682720</ele>
        <time>2026-03-27T20:52:16.490Z</time>
      </trkpt>
      <trkpt lat="52.032690" lon="5.409130">
        <ele>21.436728</ele>
        <time>2026-03-27T20:52:18.177Z</time>
      </trkpt>
      <trkpt lat="52.032584" lon="5.409323">
        <ele>20.929391</ele>
        <time>2026-03-27T20:52:21.748Z</time>
      </trkpt>
      <trkpt lat="52.032352" lon="5.410027">
        <ele>19.363288</ele>
        <time>2026-03-27T20:52:32.417Z</time>
      </trkpt>
      <trkpt lat="52.032210" lon="5.410273">
        <ele>18.701795</ele>
        <time>2026-03-27T20:52:36.831Z</time>
      </trkpt>
      <trkpt lat="52.032176" lon="5.410503">
        <ele>18.237933</ele>
        <time>2026-03-27T20:52:39.866Z</time>
      </trkpt>
      <trkpt lat="52.032103" lon="5.410673">
        <ele>17.831392</ele>
        <time>2026-03-27T20:52:42.519Z</time>
      </trkpt>
      <trkpt lat="52.032089" lon="5.410774">
        <ele>17.628368</ele>
        <time>2026-03-27T20:52:43.871Z</time>
      </trkpt>
      <trkpt lat="52.032148" lon="5.410913">
        <ele>17.297212</ele>
        <time>2026-03-27T20:52:46.009Z</time>
      </trkpt>
      <trkpt lat="52.032253" lon="5.411041">
        <ele>16.879726</ele>
        <time>2026-03-27T20:52:48.709Z</time>
      </trkpt>
      <trkpt lat="52.032317" lon="5.411175">
        <ele>16.549879</ele>
        <time>2026-03-27T20:52:50.886Z</time>
      </trkpt>
      <trkpt lat="52.032488" lon="5.411982">
        <ele>14.890296</ele>
        <time>2026-03-27T20:53:01.800Z</time>
      </trkpt>
      <trkpt lat="52.032487" lon="5.412066">
        <ele>14.726938</ele>
        <time>2026-03-27T20:53:02.870Z</time>
      </trkpt>
      <trkpt lat="52.032390" lon="5.412278">
        <ele>14.213226</ele>
        <time>2026-03-27T20:53:06.181Z</time>
      </trkpt>
      <trkpt lat="52.032396" lon="5.412481">
        <ele>13.818060</ele>
        <time>2026-03-27T20:53:08.727Z</time>
      </trkpt>
      <trkpt lat="52.032576" lon="5.412981">
        <ele>12.691655</ele>
        <time>2026-03-27T20:53:16.085Z</time>
      </trkpt>
      <trkpt lat="52.032575" lon="5.413141">
        <ele>12.380538</ele>
        <time>2026-03-27T20:53:17.081Z</time>
      </trkpt>
      <trkpt lat="52.032446" lon="5.413816">
        <ele>11.227746</ele>
        <time>2026-03-27T20:53:21.835Z</time>
      </trkpt>
      <trkpt lat="52.032487" lon="5.414158">
        <ele>11.067708</ele>
        <time>2026-03-27T20:53:24.425Z</time>
      </trkpt>
      <trkpt lat="52.032578" lon="5.414770">
        <ele>10.778516</ele>
        <time>2026-03-27T20:53:31.336Z</time>
      </trkpt>
      <trkpt lat="52.032628" lon="5.415108">
        <ele>10.618845</ele>
        <time>2026-03-27T20:53:35.348Z</time>
      </trkpt>
      <trkpt lat="52.032719" lon="5.415715">
        <ele>10.331886</ele>
        <time>2026-03-27T20:53:42.551Z</time>
      </trkpt>
      <trkpt lat="52.032791" lon="5.416166">
        <ele>10.117877</ele>
        <time>2026-03-27T20:53:50.219Z</time>
      </trkpt>
      <trkpt lat="52.032746" lon="5.416308">
        <ele>10.044511</ele>
        <time>2026-03-27T20:53:52.939Z</time>
      </trkpt>
      <trkpt lat="52.032580" lon="5.416417">
        <ele>9.944365</ele>
        <time>2026-03-27T20:53:58.078Z</time>
      </trkpt>
      <trkpt lat="52.032420" lon="5.416534">
        <ele>9.916502</ele>
        <time>2026-03-27T20:54:03.102Z</time>
      </trkpt>
      <trkpt lat="52.032154" lon="5.415240">
        <ele>9.783201</ele>
        <time>2026-03-27T20:54:14.776Z</time>
      </trkpt>
      <trkpt lat="52.032320" lon="5.415192">
        <ele>9.756424</ele>
        <time>2026-03-27T20:54:17.136Z</time>
      </trkpt>
      <trkpt lat="52.032658" lon="5.415045">
        <ele>9.700857</ele>
        <time>2026-03-27T20:54:22.149Z</time>
      </trkpt>
      <trkpt lat="52.032926" lon="5.414927">
        <ele>9.667036</ele>
        <time>2026-03-27T20:54:26.170Z</time>
      </trkpt>
      <trkpt lat="52.036374" lon="5.413523">
        <ele>9.763812</ele>
        <time>2026-03-27T20:55:19.250Z</time>
      </trkpt>
      <trkpt lat="52.036585" lon="5.413483">
        <ele>9.822251</ele>
        <time>2026-03-27T20:55:22.568Z</time>
      </trkpt>
      <trkpt lat="52.036751" lon="5.413345">
        <ele>9.873543</ele>
        <time>2026-03-27T20:55:25.522Z</time>
      </trkpt>
      <trkpt lat="52.038778" lon="5.412322">
        <ele>10.388361</ele>
        <time>2026-03-27T20:55:59.734Z</time>
      </trkpt>
      <trkpt lat="52.041274" lon="5.411065">
        <ele>10.638977</ele>
        <time>2026-03-27T20:56:39.042Z</time>
      </trkpt>
      <trkpt lat="52.041472" lon="5.411027">
        <ele>10.646456</ele>
        <time>2026-03-27T20:56:42.055Z</time>
      </trkpt>
      <trkpt lat="52.041675" lon="5.410865">
        <ele>10.551572</ele>
        <time>2026-03-27T20:56:45.399Z</time>
      </trkpt>
      <trkpt lat="52.042301" lon="5.410536">
        <ele>10.219260</ele>
        <time>2026-03-27T20:56:54.625Z</time>
      </trkpt>
      <trkpt lat="52.043629" lon="5.409946">
        <ele>9.490395</ele>
        <time>2026-03-27T20:57:11.925Z</time>
      </trkpt>
      <trkpt lat="52.044080" lon="5.409650">
        <ele>9.206544</ele>
        <time>2026-03-27T20:57:18.017Z</time>
      </trkpt>
      <trkpt lat="52.044546" lon="5.409424">
        <ele>8.922733</ele>
        <time>2026-03-27T20:57:24.372Z</time>
      </trkpt>
      <trkpt lat="52.044821" lon="5.409249">
        <ele>8.750380</ele>
        <time>2026-03-27T20:57:28.390Z</time>
      </trkpt>
      <trkpt lat="52.045061" lon="5.408935">
        <ele>8.707733</ele>
        <time>2026-03-27T20:57:32.745Z</time>
      </trkpt>
      <trkpt lat="52.045959" lon="5.407506">
        <ele>8.819892</ele>
        <time>2026-03-27T20:57:52.039Z</time>
      </trkpt>
      <trkpt lat="52.046267" lon="5.406993">
        <ele>8.887557</ele>
        <time>2026-03-27T20:57:59.052Z</time>
      </trkpt>
      <trkpt lat="52.046891" lon="5.405989">
        <ele>9.208111</ele>
        <time>2026-03-27T20:58:13.768Z</time>
      </trkpt>
      <trkpt lat="52.047544" lon="5.405021">
        <ele>9.479462</ele>
        <time>2026-03-27T20:58:28.310Z</time>
      </trkpt>
      <trkpt lat="52.047593" lon="5.404943">
        <ele>9.450764</ele>
        <time>2026-03-27T20:58:29.376Z</time>
      </trkpt>
      <trkpt lat="52.047727" lon="5.404726">
        <ele>9.371618</ele>
        <time>2026-03-27T20:58:32.217Z</time>
      </trkpt>
      <trkpt lat="52.047654" lon="5.404635">
        <ele>9.333122</ele>
        <time>2026-03-27T20:58:34.066Z</time>
      </trkpt>
      <trkpt lat="52.047600" lon="5.404531">
        <ele>9.298091</ele>
        <time>2026-03-27T20:58:35.257Z</time>
      </trkpt>
      <trkpt lat="52.047472" lon="5.404274">
        <ele>9.212974</ele>
        <time>2026-03-27T20:58:38.062Z</time>
      </trkpt>
      <trkpt lat="52.047432" lon="5.403919">
        <ele>9.120083</ele>
        <time>2026-03-27T20:58:40.994Z</time>
      </trkpt>
      <trkpt lat="52.047430" lon="5.403612">
        <ele>9.041063</ele>
        <time>2026-03-27T20:58:43.402Z</time>
      </trkpt>
      <trkpt lat="52.047458" lon="5.403023">
        <ele>8.889013</ele>
        <time>2026-03-27T20:58:47.849Z</time>
      </trkpt>
      <trkpt lat="52.047585" lon="5.400334">
        <ele>8.132445</ele>
        <time>2026-03-27T20:59:08.895Z</time>
      </trkpt>
      <trkpt lat="52.047590" lon="5.400230">
        <ele>8.102598</ele>
        <time>2026-03-27T20:59:09.916Z</time>
      </trkpt>
      <trkpt lat="52.047618" lon="5.399889">
        <ele>8.004168</ele>
        <time>2026-03-27T20:59:13.304Z</time>
      </trkpt>
      <trkpt lat="52.047640" lon="5.399466">
        <ele>7.912455</ele>
        <time>2026-03-27T20:59:17.542Z</time>
      </trkpt>
      <trkpt lat="52.047683" lon="5.398616">
        <ele>7.877863</ele>
        <time>2026-03-27T20:59:26.298Z</time>
      </trkpt>
      <trkpt lat="52.047924" lon="5.396001">
        <ele>7.915251</ele>
        <time>2026-03-27T20:59:48.950Z</time>
      </trkpt>
      <trkpt lat="52.047950" lon="5.395722">
        <ele>7.962650</ele>
        <time>2026-03-27T20:59:51.293Z</time>
      </trkpt>
      <trkpt lat="52.047975" lon="5.395293">
        <ele>8.035031</ele>
        <time>2026-03-27T20:59:55.110Z</time>
      </trkpt>
      <trkpt lat="52.047980" lon="5.395030">
        <ele>8.079228</ele>
        <time>2026-03-27T20:59:57.606Z</time>
      </trkpt>
      <trkpt lat="52.047945" lon="5.394756">
        <ele>8.126234</ele>
        <time>2026-03-27T21:00:00.403Z</time>
      </trkpt>
      <trkpt lat="52.047860" lon="5.394480">
        <ele>8.178081</ele>
        <time>2026-03-27T21:00:03.669Z</time>
      </trkpt>
      <trkpt lat="52.047670" lon="5.394140">
        <ele>8.255246</ele>
        <time>2026-03-27T21:00:08.845Z</time>
      </trkpt>
      <trkpt lat="52.046968" lon="5.393035">
        <ele>8.809384</ele>
        <time>2026-03-27T21:00:27.811Z</time>
      </trkpt>
      <trkpt lat="52.046920" lon="5.392960">
        <ele>8.850069</ele>
        <time>2026-03-27T21:00:29.058Z</time>
      </trkpt>
      <trkpt lat="52.046833" lon="5.392818">
        <ele>8.925409</ele>
        <time>2026-03-27T21:00:31.354Z</time>
      </trkpt>
      <trkpt lat="52.046961" lon="5.392629">
        <ele>9.031081</ele>
        <time>2026-03-27T21:00:34.450Z</time>
      </trkpt>
      <trkpt lat="52.047071" lon="5.392535">
        <ele>9.107028</ele>
        <time>2026-03-27T21:00:36.591Z</time>
      </trkpt>
      <trkpt lat="52.048597" lon="5.387664">
        <ele>8.879128</ele>
        <time>2026-03-27T21:01:22.822Z</time>
      </trkpt>
      <trkpt lat="52.049333" lon="5.385269">
        <ele>9.416809</ele>
        <time>2026-03-27T21:01:50.860Z</time>
      </trkpt>
      <trkpt lat="52.049940" lon="5.383324">
        <ele>10.083255</ele>
        <time>2026-03-27T21:02:13.827Z</time>
      </trkpt>
      <trkpt lat="52.050442" lon="5.381665">
        <ele>10.536382</ele>
        <time>2026-03-27T21:02:31.453Z</time>
      </trkpt>
      <trkpt lat="52.050711" lon="5.380765">
        <ele>11.002400</ele>
        <time>2026-03-27T21:02:42.173Z</time>
      </trkpt>
      <trkpt lat="52.050956" lon="5.379446">
        <ele>11.759610</ele>
        <time>2026-03-27T21:02:58.336Z</time>
      </trkpt>
      <trkpt lat="52.051117" lon="5.378548">
        <ele>12.250591</ele>
        <time>2026-03-27T21:03:09.219Z</time>
      </trkpt>
      <trkpt lat="52.051450" lon="5.377130">
        <ele>12.776381</ele>
        <time>2026-03-27T21:03:26.807Z</time>
      </trkpt>
      <trkpt lat="52.051804" lon="5.375910">
        <ele>13.212817</ele>
        <time>2026-03-27T21:03:39.806Z</time>
      </trkpt>
      <trkpt lat="52.051867" lon="5.375747">
        <ele>13.172606</ele>
        <time>2026-03-27T21:03:41.437Z</time>
      </trkpt>
      <trkpt lat="52.051930" lon="5.375583">
        <ele>13.132218</ele>
        <time>2026-03-27T21:03:43.082Z</time>
      </trkpt>
      <trkpt lat="52.052320" lon="5.374790">
        <ele>12.920134</ele>
        <time>2026-03-27T21:03:51.217Z</time>
      </trkpt>
      <trkpt lat="52.052923" lon="5.373623">
        <ele>12.615274</ele>
        <time>2026-03-27T21:04:03.371Z</time>
      </trkpt>
      <trkpt lat="52.052958" lon="5.373551">
        <ele>12.618145</ele>
        <time>2026-03-27T21:04:04.276Z</time>
      </trkpt>
      <trkpt lat="52.053100" lon="5.373260">
        <ele>12.629763</ele>
        <time>2026-03-27T21:04:08.102Z</time>
      </trkpt>
      <trkpt lat="52.053350" lon="5.371990">
        <ele>12.671466</ele>
        <time>2026-03-27T21:04:21.944Z</time>
      </trkpt>
      <trkpt lat="52.053608" lon="5.371364">
        <ele>12.695034</ele>
        <time>2026-03-27T21:04:28.959Z</time>
      </trkpt>
      <trkpt lat="52.054037" lon="5.370426">
        <ele>12.531927</ele>
        <time>2026-03-27T21:04:38.386Z</time>
      </trkpt>
      <trkpt lat="52.054683" lon="5.369182">
        <ele>12.200656</ele>
        <time>2026-03-27T21:04:51.415Z</time>
      </trkpt>
      <trkpt lat="52.055132" lon="5.368344">
        <ele>12.296027</ele>
        <time>2026-03-27T21:05:02.372Z</time>
      </trkpt>
      <trkpt lat="52.055851" lon="5.366886">
        <ele>12.818884</ele>
        <time>2026-03-27T21:05:22.692Z</time>
      </trkpt>
      <trkpt lat="52.056177" lon="5.366279">
        <ele>12.828360</ele>
        <time>2026-03-27T21:05:30.466Z</time>
      </trkpt>
      <trkpt lat="52.056205" lon="5.366246">
        <ele>12.814834</ele>
        <time>2026-03-27T21:05:30.969Z</time>
      </trkpt>
      <trkpt lat="52.056609" lon="5.365935">
        <ele>12.639999</ele>
        <time>2026-03-27T21:05:37.239Z</time>
      </trkpt>
      <trkpt lat="52.058358" lon="5.364660">
        <ele>11.849478</ele>
        <time>2026-03-27T21:06:01.723Z</time>
      </trkpt>
      <trkpt lat="52.059043" lon="5.364166">
        <ele>11.520606</ele>
        <time>2026-03-27T21:06:11.971Z</time>
      </trkpt>
      <trkpt lat="52.059869" lon="5.363550">
        <ele>11.288403</ele>
        <time>2026-03-27T21:06:25.453Z</time>
      </trkpt>
      <trkpt lat="52.060406" lon="5.363148">
        <ele>11.166859</ele>
        <time>2026-03-27T21:06:34.000Z</time>
      </trkpt>
      <trkpt lat="52.060539" lon="5.362991">
        <ele>11.133070</ele>
        <time>2026-03-27T21:06:36.251Z</time>
      </trkpt>
      <trkpt lat="52.060634" lon="5.362863">
        <ele>11.107706</ele>
        <time>2026-03-27T21:06:37.917Z</time>
      </trkpt>
      <trkpt lat="52.061031" lon="5.362156">
        <ele>10.980601</ele>
        <time>2026-03-27T21:06:45.626Z</time>
      </trkpt>
      <trkpt lat="52.061338" lon="5.361645">
        <ele>10.883331</ele>
        <time>2026-03-27T21:06:51.469Z</time>
      </trkpt>
      <trkpt lat="52.061422" lon="5.361488">
        <ele>10.854996</ele>
        <time>2026-03-27T21:06:53.236Z</time>
      </trkpt>
      <trkpt lat="52.061591" lon="5.361203">
        <ele>10.801088</ele>
        <time>2026-03-27T21:06:56.723Z</time>
      </trkpt>
      <trkpt lat="52.061962" lon="5.360555">
        <ele>10.680539</ele>
        <time>2026-03-27T21:07:04.980Z</time>
      </trkpt>
      <trkpt lat="52.062488" lon="5.359680">
        <ele>10.782725</ele>
        <time>2026-03-27T21:07:16.770Z</time>
      </trkpt>
      <trkpt lat="52.063084" lon="5.359055">
        <ele>10.901181</ele>
        <time>2026-03-27T21:07:27.822Z</time>
      </trkpt>
      <trkpt lat="52.063270" lon="5.358840">
        <ele>10.939298</ele>
        <time>2026-03-27T21:07:31.326Z</time>
      </trkpt>
      <trkpt lat="52.063400" lon="5.358540">
        <ele>10.979801</ele>
        <time>2026-03-27T21:07:34.702Z</time>
      </trkpt>
      <trkpt lat="52.063627" lon="5.357767">
        <ele>11.094095</ele>
        <time>2026-03-27T21:07:42.762Z</time>
      </trkpt>
      <trkpt lat="52.063732" lon="5.357411">
        <ele>11.146775</ele>
        <time>2026-03-27T21:07:46.708Z</time>
      </trkpt>
      <trkpt lat="52.063893" lon="5.357525">
        <ele>11.184881</ele>
        <time>2026-03-27T21:07:49.592Z</time>
      </trkpt>
      <trkpt lat="52.064012" lon="5.357557">
        <ele>11.211057</ele>
        <time>2026-03-27T21:07:51.589Z</time>
      </trkpt>
      <trkpt lat="52.064941" lon="5.357336">
        <ele>11.324489</ele>
        <time>2026-03-27T21:08:06.479Z</time>
      </trkpt>
      <trkpt lat="52.066295" lon="5.357302">
        <ele>11.151673</ele>
        <time>2026-03-27T21:08:25.528Z</time>
      </trkpt>
      <trkpt lat="52.066667" lon="5.357316">
        <ele>11.116593</ele>
        <time>2026-03-27T21:08:30.602Z</time>
      </trkpt>
      <trkpt lat="52.066916" lon="5.357372">
        <ele>11.100955</ele>
        <time>2026-03-27T21:08:34.023Z</time>
      </trkpt>
      <trkpt lat="52.067454" lon="5.357601">
        <ele>11.066359</ele>
        <time>2026-03-27T21:08:41.575Z</time>
      </trkpt>
      <trkpt lat="52.067465" lon="5.357281">
        <ele>11.054102</ele>
        <time>2026-03-27T21:08:45.412Z</time>
      </trkpt>
      <trkpt lat="52.067462" lon="5.357133">
        <ele>11.048439</ele>
        <time>2026-03-27T21:08:47.206Z</time>
      </trkpt>
      <trkpt lat="52.067462" lon="5.357024">
        <ele>11.044271</ele>
        <time>2026-03-27T21:08:48.564Z</time>
      </trkpt>
      <trkpt lat="52.067511" lon="5.356862">
        <ele>11.037366</ele>
        <time>2026-03-27T21:08:50.823Z</time>
      </trkpt>
      <trkpt lat="52.067625" lon="5.356870">
        <ele>11.030268</ele>
        <time>2026-03-27T21:08:53.215Z</time>
      </trkpt>
      <trkpt lat="52.067965" lon="5.356835">
        <ele>11.240139</ele>
        <time>2026-03-27T21:08:58.854Z</time>
      </trkpt>
      <trkpt lat="52.068007" lon="5.356779">
        <ele>11.341887</ele>
        <time>2026-03-27T21:08:59.830Z</time>
      </trkpt>
      <trkpt lat="52.068025" lon="5.356097">
        <ele>12.128120</ele>
        <time>2026-03-27T21:09:08.007Z</time>
      </trkpt>
      <trkpt lat="52.067978" lon="5.355492">
        <ele>12.830486</ele>
        <time>2026-03-27T21:09:16.761Z</time>
      </trkpt>
      <trkpt lat="52.067960" lon="5.354658">
        <ele>13.791658</ele>
        <time>2026-03-27T21:09:29.696Z</time>
      </trkpt>
      <trkpt lat="52.068357" lon="5.353997">
        <ele>14.906281</ele>
        <time>2026-03-27T21:09:44.447Z</time>
      </trkpt>
      <trkpt lat="52.068650" lon="5.353497">
        <ele>15.787046</ele>
        <time>2026-03-27T21:09:55.172Z</time>
      </trkpt>
      <trkpt lat="52.069068" lon="5.352792">
        <ele>17.035911</ele>
        <time>2026-03-27T21:10:08.860Z</time>
      </trkpt>
      <trkpt lat="52.070631" lon="5.350149">
        <ele>20.855395</ele>
        <time>2026-03-27T21:10:55.029Z</time>
      </trkpt>
      <trkpt lat="52.070651" lon="5.350038">
        <ele>20.971939</ele>
        <time>2026-03-27T21:10:57.678Z</time>
      </trkpt>
      <trkpt lat="52.070660" lon="5.349852">
        <ele>21.239417</ele>
        <time>2026-03-27T21:11:01.949Z</time>
      </trkpt>
      <trkpt lat="52.070807" lon="5.346846">
        <ele>25.416289</ele>
        <time>2026-03-27T21:12:12.419Z</time>
      </trkpt>
      <trkpt lat="52.070847" lon="5.346655">
        <ele>25.602088</ele>
        <time>2026-03-27T21:12:16.628Z</time>
      </trkpt>
      <trkpt lat="52.070870" lon="5.346619">
        <ele>25.649899</ele>
        <time>2026-03-27T21:12:17.698Z</time>
      </trkpt>
      <trkpt lat="52.070944" lon="5.346578">
        <ele>25.767002</ele>
        <time>2026-03-27T21:12:20.317Z</time>
      </trkpt>
      <trkpt lat="52.071432" lon="5.346541">
        <ele>26.498814</ele>
        <time>2026-03-27T21:12:36.357Z</time>
      </trkpt>
      <trkpt lat="52.071484" lon="5.346474">
        <ele>26.598180</ele>
        <time>2026-03-27T21:12:38.493Z</time>
      </trkpt>
      <trkpt lat="52.071659" lon="5.345873">
        <ele>27.210520</ele>
        <time>2026-03-27T21:12:51.405Z</time>
      </trkpt>
      <trkpt lat="52.071977" lon="5.344785">
        <ele>28.394121</ele>
        <time>2026-03-27T21:13:15.970Z</time>
      </trkpt>
      <trkpt lat="52.072784" lon="5.341969">
        <ele>31.542233</ele>
        <time>2026-03-27T21:14:23.670Z</time>
      </trkpt>
      <trkpt lat="52.072865" lon="5.341660">
        <ele>31.821052</ele>
        <time>2026-03-27T21:14:30.611Z</time>
      </trkpt>
      <trkpt lat="52.072987" lon="5.341341">
        <ele>32.132889</ele>
        <time>2026-03-27T21:14:38.288Z</time>
      </trkpt>
      <trkpt lat="52.073145" lon="5.340721">
        <ele>32.689962</ele>
        <time>2026-03-27T21:14:51.601Z</time>
      </trkpt>
      <trkpt lat="52.073181" lon="5.340452">
        <ele>32.918461</ele>
        <time>2026-03-27T21:14:56.975Z</time>
      </trkpt>
      <trkpt lat="52.073223" lon="5.339699">
        <ele>33.485369</ele>
        <time>2026-03-27T21:15:11.649Z</time>
      </trkpt>
      <trkpt lat="52.073328" lon="5.339086">
        <ele>33.800350</ele>
        <time>2026-03-27T21:15:23.970Z</time>
      </trkpt>
      <trkpt lat="52.073801" lon="5.337941">
        <ele>34.483201</ele>
        <time>2026-03-27T21:15:50.615Z</time>
      </trkpt>
      <trkpt lat="52.074162" lon="5.336954">
        <ele>34.798771</ele>
        <time>2026-03-27T21:16:12.206Z</time>
      </trkpt>
      <trkpt lat="52.074528" lon="5.335805">
        <ele>34.658519</ele>
        <time>2026-03-27T21:16:34.678Z</time>
      </trkpt>
      <trkpt lat="52.074836" lon="5.334371">
        <ele>34.189023</ele>
        <time>2026-03-27T21:16:58.278Z</time>
      </trkpt>
      <trkpt lat="52.075122" lon="5.333922">
        <ele>33.474737</ele>
        <time>2026-03-27T21:17:07.729Z</time>
      </trkpt>
      <trkpt lat="52.075353" lon="5.333421">
        <ele>32.782905</ele>
        <time>2026-03-27T21:17:16.619Z</time>
      </trkpt>
      <trkpt lat="52.075573" lon="5.333117">
        <ele>32.264156</ele>
        <time>2026-03-27T21:17:23.134Z</time>
      </trkpt>
      <trkpt lat="52.075947" lon="5.332744">
        <ele>31.475759</ele>
        <time>2026-03-27T21:17:32.871Z</time>
      </trkpt>
      <trkpt lat="52.076241" lon="5.330957">
        <ele>28.406988</ele>
        <time>2026-03-27T21:17:57.602Z</time>
      </trkpt>
      <trkpt lat="52.076334" lon="5.330311">
        <ele>27.270555</ele>
        <time>2026-03-27T21:18:06.440Z</time>
      </trkpt>
      <trkpt lat="52.076362" lon="5.330262">
        <ele>27.155956</ele>
        <time>2026-03-27T21:18:07.314Z</time>
      </trkpt>
      <trkpt lat="52.076390" lon="5.330213">
        <ele>27.041358</ele>
        <time>2026-03-27T21:18:08.204Z</time>
      </trkpt>
      <trkpt lat="52.076468" lon="5.329716">
        <ele>26.171898</ele>
        <time>2026-03-27T21:18:14.900Z</time>
      </trkpt>
      <trkpt lat="52.076604" lon="5.328745">
        <ele>24.596742</ele>
        <time>2026-03-27T21:18:27.801Z</time>
      </trkpt>
      <trkpt lat="52.076641" lon="5.328357">
        <ele>23.975721</ele>
        <time>2026-03-27T21:18:32.985Z</time>
      </trkpt>
      <trkpt lat="52.076716" lon="5.328110">
        <ele>23.539978</ele>
        <time>2026-03-27T21:18:36.684Z</time>
      </trkpt>
      <trkpt lat="52.076693" lon="5.327823">
        <ele>23.082204</ele>
        <time>2026-03-27T21:18:40.601Z</time>
      </trkpt>
      <trkpt lat="52.076784" lon="5.326992">
        <ele>21.747160</ele>
        <time>2026-03-27T21:18:52.234Z</time>
      </trkpt>
      <trkpt lat="52.077035" lon="5.324459">
        <ele>19.514728</ele>
        <time>2026-03-27T21:19:29.944Z</time>
      </trkpt>
      <trkpt lat="52.077099" lon="5.324057">
        <ele>19.160402</ele>
        <time>2026-03-27T21:19:36.156Z</time>
      </trkpt>
      <trkpt lat="52.077136" lon="5.323632">
        <ele>18.991777</ele>
        <time>2026-03-27T21:19:42.650Z</time>
      </trkpt>
      <trkpt lat="52.077155" lon="5.323233">
        <ele>18.836690</ele>
        <time>2026-03-27T21:19:48.762Z</time>
      </trkpt>
      <trkpt lat="52.077169" lon="5.322944">
        <ele>18.724347</ele>
        <time>2026-03-27T21:19:53.219Z</time>
      </trkpt>
      <trkpt lat="52.077194" lon="5.322808">
        <ele>18.669337</ele>
        <time>2026-03-27T21:19:54.315Z</time>
      </trkpt>
      <trkpt lat="52.077011" lon="5.322691">
        <ele>18.545360</ele>
        <time>2026-03-27T21:19:57.819Z</time>
      </trkpt>
      <trkpt lat="52.076101" lon="5.322148">
        <ele>17.934003</ele>
        <time>2026-03-27T21:20:16.755Z</time>
      </trkpt>
      <trkpt lat="52.075750" lon="5.321984">
        <ele>17.703215</ele>
        <time>2026-03-27T21:20:23.836Z</time>
      </trkpt>
      <trkpt lat="52.075565" lon="5.321860">
        <ele>17.576767</ele>
        <time>2026-03-27T21:20:27.609Z</time>
      </trkpt>
      <trkpt lat="52.075105" lon="5.321635">
        <ele>17.273206</ele>
        <time>2026-03-27T21:20:36.245Z</time>
      </trkpt>
      <trkpt lat="52.074939" lon="5.321583">
        <ele>17.166372</ele>
        <time>2026-03-27T21:20:39.182Z</time>
      </trkpt>
      <trkpt lat="52.074645" lon="5.321380">
        <ele>16.964532</ele>
        <time>2026-03-27T21:20:44.638Z</time>
      </trkpt>
      <trkpt lat="52.074097" lon="5.321087">
        <ele>16.631973</ele>
        <time>2026-03-27T21:20:54.591Z</time>
      </trkpt>
      <trkpt lat="52.073880" lon="5.321019">
        <ele>16.507963</ele>
        <time>2026-03-27T21:20:58.494Z</time>
      </trkpt>
      <trkpt lat="52.073824" lon="5.320947">
        <ele>16.467910</ele>
        <time>2026-03-27T21:20:59.767Z</time>
      </trkpt>
      <trkpt lat="52.073730" lon="5.320707">
        <ele>16.369753</ele>
        <time>2026-03-27T21:21:02.928Z</time>
      </trkpt>
      <trkpt lat="52.073696" lon="5.320624">
        <ele>16.335350</ele>
        <time>2026-03-27T21:21:04.057Z</time>
      </trkpt>
      <trkpt lat="52.073640" lon="5.320581">
        <ele>16.300601</ele>
        <time>2026-03-27T21:21:05.199Z</time>
      </trkpt>
      <trkpt lat="52.073416" lon="5.320726">
        <ele>16.165317</ele>
        <time>2026-03-27T21:21:09.722Z</time>
      </trkpt>
      <trkpt lat="52.073349" lon="5.320732">
        <ele>16.127663</ele>
        <time>2026-03-27T21:21:11.012Z</time>
      </trkpt>
      <trkpt lat="52.073031" lon="5.320610">
        <ele>15.944320</ele>
        <time>2026-03-27T21:21:17.468Z</time>
      </trkpt>
      <trkpt lat="52.071534" lon="5.320180">
        <ele>15.832027</ele>
        <time>2026-03-27T21:21:48.814Z</time>
      </trkpt>
      <trkpt lat="52.070679" lon="5.319871">
        <ele>15.473101</ele>
        <time>2026-03-27T21:22:05.602Z</time>
      </trkpt>
      <trkpt lat="52.070376" lon="5.319556">
        <ele>15.211357</ele>
        <time>2026-03-27T21:22:12.236Z</time>
      </trkpt>
      <trkpt lat="52.070127" lon="5.319183">
        <ele>14.964972</ele>
        <time>2026-03-27T21:22:18.319Z</time>
      </trkpt>
      <trkpt lat="52.069867" lon="5.318913">
        <ele>14.740443</ele>
        <time>2026-03-27T21:22:23.707Z</time>
      </trkpt>
      <trkpt lat="52.069446" lon="5.318500">
        <ele>14.276488</ele>
        <time>2026-03-27T21:22:31.975Z</time>
      </trkpt>
      <trkpt lat="52.068950" lon="5.317935">
        <ele>13.469200</ele>
        <time>2026-03-27T21:22:41.982Z</time>
      </trkpt>
      <trkpt lat="52.068848" lon="5.317799">
        <ele>13.293369</ele>
        <time>2026-03-27T21:22:44.131Z</time>
      </trkpt>
      <trkpt lat="52.068526" lon="5.317483">
        <ele>12.791999</ele>
        <time>2026-03-27T21:22:50.298Z</time>
      </trkpt>
      <trkpt lat="52.067303" lon="5.315952">
        <ele>11.167793</ele>
        <time>2026-03-27T21:23:16.619Z</time>
      </trkpt>
      <trkpt lat="52.067168" lon="5.315800">
        <ele>11.017740</ele>
        <time>2026-03-27T21:23:19.521Z</time>
      </trkpt>
      <trkpt lat="52.067008" lon="5.315758">
        <ele>10.869618</ele>
        <time>2026-03-27T21:23:22.360Z</time>
      </trkpt>
      <trkpt lat="52.066311" lon="5.315208">
        <ele>10.534190</ele>
        <time>2026-03-27T21:23:36.786Z</time>
      </trkpt>
      <trkpt lat="52.066079" lon="5.315148">
        <ele>10.580313</ele>
        <time>2026-03-27T21:23:41.613Z</time>
      </trkpt>
      <trkpt lat="52.065945" lon="5.315165">
        <ele>10.606702</ele>
        <time>2026-03-27T21:23:44.479Z</time>
      </trkpt>
      <trkpt lat="52.065172" lon="5.315180">
        <ele>10.758483</ele>
        <time>2026-03-27T21:24:01.511Z</time>
      </trkpt>
      <trkpt lat="52.065037" lon="5.315125">
        <ele>10.785808</ele>
        <time>2026-03-27T21:24:04.693Z</time>
      </trkpt>
      <trkpt lat="52.064913" lon="5.314939">
        <ele>10.818925</ele>
        <time>2026-03-27T21:24:08.572Z</time>
      </trkpt>
      <trkpt lat="52.064869" lon="5.314763">
        <ele>10.824954</ele>
        <time>2026-03-27T21:24:11.296Z</time>
      </trkpt>
      <trkpt lat="52.064849" lon="5.313791">
        <ele>10.845119</ele>
        <time>2026-03-27T21:24:24.400Z</time>
      </trkpt>
      <trkpt lat="52.064831" lon="5.312992">
        <ele>10.861697</ele>
        <time>2026-03-27T21:24:34.175Z</time>
      </trkpt>
      <trkpt lat="52.064772" lon="5.312652">
        <ele>10.869022</ele>
        <time>2026-03-27T21:24:38.275Z</time>
      </trkpt>
      <trkpt lat="52.064718" lon="5.312473">
        <ele>10.873157</ele>
        <time>2026-03-27T21:24:40.562Z</time>
      </trkpt>
      <trkpt lat="52.064581" lon="5.312148">
        <ele>10.881327</ele>
        <time>2026-03-27T21:24:45.073Z</time>
      </trkpt>
      <trkpt lat="52.064436" lon="5.311931">
        <ele>10.810567</ele>
        <time>2026-03-27T21:24:48.754Z</time>
      </trkpt>
      <trkpt lat="52.063891" lon="5.311393">
        <ele>10.548126</ele>
        <time>2026-03-27T21:25:00.679Z</time>
      </trkpt>
      <trkpt lat="52.063453" lon="5.310953">
        <ele>10.336203</ele>
        <time>2026-03-27T21:25:07.723Z</time>
      </trkpt>
      <trkpt lat="52.063282" lon="5.310781">
        <ele>10.253436</ele>
        <time>2026-03-27T21:25:10.445Z</time>
      </trkpt>
      <trkpt lat="52.062930" lon="5.310418">
        <ele>10.021847</ele>
        <time>2026-03-27T21:25:16.092Z</time>
      </trkpt>
      <trkpt lat="52.062936" lon="5.310378">
        <ele>10.000971</ele>
        <time>2026-03-27T21:25:16.752Z</time>
      </trkpt>
      <trkpt lat="52.063111" lon="5.309583">
        <ele>9.572825</ele>
        <time>2026-03-27T21:25:30.061Z</time>
      </trkpt>
      <trkpt lat="52.063410" lon="5.308554">
        <ele>8.995759</ele>
        <time>2026-03-27T21:25:47.337Z</time>
      </trkpt>
      <trkpt lat="52.063463" lon="5.308283">
        <ele>8.851571</ele>
        <time>2026-03-27T21:25:51.591Z</time>
      </trkpt>
      <trkpt lat="52.063478" lon="5.308054">
        <ele>8.734806</ele>
        <time>2026-03-27T21:25:55.056Z</time>
      </trkpt>
      <trkpt lat="52.063431" lon="5.307215">
        <ele>8.352377</ele>
        <time>2026-03-27T21:26:07.795Z</time>
      </trkpt>
      <trkpt lat="52.063433" lon="5.306861">
        <ele>8.195776</ele>
        <time>2026-03-27T21:26:13.233Z</time>
      </trkpt>
      <trkpt lat="52.063673" lon="5.304246">
        <ele>7.226147</ele>
        <time>2026-03-27T21:26:55.280Z</time>
      </trkpt>
      <trkpt lat="52.063678" lon="5.304189">
        <ele>7.215747</ele>
        <time>2026-03-27T21:26:56.202Z</time>
      </trkpt>
      <trkpt lat="52.063770" lon="5.304051">
        <ele>7.178976</ele>
        <time>2026-03-27T21:26:59.468Z</time>
      </trkpt>
      <trkpt lat="52.063719" lon="5.303500">
        <ele>7.078324</ele>
        <time>2026-03-27T21:27:08.542Z</time>
      </trkpt>
      <trkpt lat="52.063765" lon="5.303275">
        <ele>7.035492</ele>
        <time>2026-03-27T21:27:12.463Z</time>
      </trkpt>
      <trkpt lat="52.063858" lon="5.302478">
        <ele>6.888955</ele>
        <time>2026-03-27T21:27:26.150Z</time>
      </trkpt>
      <trkpt lat="52.063841" lon="5.302116">
        <ele>6.840815</ele>
        <time>2026-03-27T21:27:32.387Z</time>
      </trkpt>
      <trkpt lat="52.063910" lon="5.301783">
        <ele>6.867367</ele>
        <time>2026-03-27T21:27:38.441Z</time>
      </trkpt>
      <trkpt lat="52.063944" lon="5.301179">
        <ele>6.913195</ele>
        <time>2026-03-27T21:27:49.014Z</time>
      </trkpt>
      <trkpt lat="52.063984" lon="5.301006">
        <ele>6.927161</ele>
        <time>2026-03-27T21:27:52.253Z</time>
      </trkpt>
      <trkpt lat="52.064031" lon="5.300408">
        <ele>6.972713</ele>
        <time>2026-03-27T21:28:02.866Z</time>
      </trkpt>
      <trkpt lat="52.064107" lon="5.299854">
        <ele>7.015602</ele>
        <time>2026-03-27T21:28:12.822Z</time>
      </trkpt>
      <trkpt lat="52.064095" lon="5.299603">
        <ele>7.034624</ele>
        <time>2026-03-27T21:28:17.210Z</time>
      </trkpt>
      <trkpt lat="52.064138" lon="5.299216">
        <ele>7.065916</ele>
        <time>2026-03-27T21:28:24.050Z</time>
      </trkpt>
      <trkpt lat="52.064171" lon="5.299075">
        <ele>7.079678</ele>
        <time>2026-03-27T21:28:26.680Z</time>
      </trkpt>
      <trkpt lat="52.064235" lon="5.298417">
        <ele>7.140446</ele>
        <time>2026-03-27T21:28:38.328Z</time>
      </trkpt>
      <trkpt lat="52.064372" lon="5.296971">
        <ele>7.273904</ele>
        <time>2026-03-27T21:29:04.079Z</time>
      </trkpt>
      <trkpt lat="52.064367" lon="5.296143">
        <ele>7.312979</ele>
        <time>2026-03-27T21:29:18.630Z</time>
      </trkpt>
      <trkpt lat="52.064290" lon="5.295489">
        <ele>7.287992</ele>
        <time>2026-03-27T21:29:29.810Z</time>
      </trkpt>
      <trkpt lat="52.064214" lon="5.295110">
        <ele>7.273032</ele>
        <time>2026-03-27T21:29:36.353Z</time>
      </trkpt>
      <trkpt lat="52.064262" lon="5.294592">
        <ele>7.253375</ele>
        <time>2026-03-27T21:29:45.053Z</time>
      </trkpt>
      <trkpt lat="52.064317" lon="5.294280">
        <ele>7.241195</ele>
        <time>2026-03-27T21:29:50.528Z</time>
      </trkpt>
      <trkpt lat="52.064378" lon="5.294202">
        <ele>7.236459</ele>
        <time>2026-03-27T21:29:52.674Z</time>
      </trkpt>
      <trkpt lat="52.064557" lon="5.294080">
        <ele>7.224613</ele>
        <time>2026-03-27T21:29:58.052Z</time>
      </trkpt>
      <trkpt lat="52.064671" lon="5.293777">
        <ele>7.215754</ele>
        <time>2026-03-27T21:30:04.106Z</time>
      </trkpt>
      <trkpt lat="52.064647" lon="5.293311">
        <ele>7.229142</ele>
        <time>2026-03-27T21:30:12.120Z</time>
      </trkpt>
      <trkpt lat="52.064699" lon="5.293055">
        <ele>7.236861</ele>
        <time>2026-03-27T21:30:16.724Z</time>
      </trkpt>
      <trkpt lat="52.064673" lon="5.292926">
        <ele>7.240748</ele>
        <time>2026-03-27T21:30:19.052Z</time>
      </trkpt>
      <trkpt lat="52.064610" lon="5.292809">
        <ele>7.245201</ele>
        <time>2026-03-27T21:30:21.738Z</time>
      </trkpt>
      <trkpt lat="52.064470" lon="5.292722">
        <ele>7.252180</ele>
        <time>2026-03-27T21:30:26.003Z</time>
      </trkpt>
      <trkpt lat="52.064416" lon="5.292628">
        <ele>7.255864</ele>
        <time>2026-03-27T21:30:28.285Z</time>
      </trkpt>
      <trkpt lat="52.064377" lon="5.292301">
        <ele>7.265401</ele>
        <time>2026-03-27T21:30:34.145Z</time>
      </trkpt>
      <trkpt lat="52.064267" lon="5.292151">
        <ele>7.272085</ele>
        <time>2026-03-27T21:30:38.269Z</time>
      </trkpt>
      <trkpt lat="52.064205" lon="5.291948">
        <ele>7.278575</ele>
        <time>2026-03-27T21:30:42.248Z</time>
      </trkpt>
      <trkpt lat="52.064095" lon="5.291717">
        <ele>7.286941</ele>
        <time>2026-03-27T21:30:47.324Z</time>
      </trkpt>
      <trkpt lat="52.063891" lon="5.291218">
        <ele>7.274974</ele>
        <time>2026-03-27T21:30:57.350Z</time>
      </trkpt>
      <trkpt lat="52.063840" lon="5.291084">
        <ele>7.259316</ele>
        <time>2026-03-27T21:30:59.950Z</time>
      </trkpt>
      <trkpt lat="52.063857" lon="5.291025">
        <ele>7.252842</ele>
        <time>2026-03-27T21:31:01.035Z</time>
      </trkpt>
      <trkpt lat="52.063934" lon="5.290961">
        <ele>7.238868</ele>
        <time>2026-03-27T21:31:03.347Z</time>
      </trkpt>
      <trkpt lat="52.064350" lon="5.290667">
        <ele>7.165568</ele>
        <time>2026-03-27T21:31:15.431Z</time>
      </trkpt>
      <trkpt lat="52.064317" lon="5.290486">
        <ele>7.146811</ele>
        <time>2026-03-27T21:31:18.493Z</time>
      </trkpt>
      <trkpt lat="52.064253" lon="5.290132">
        <ele>7.110150</ele>
        <time>2026-03-27T21:31:24.489Z</time>
      </trkpt>
      <trkpt lat="52.064229" lon="5.289651">
        <ele>7.062205</ele>
        <time>2026-03-27T21:31:32.479Z</time>
      </trkpt>
      <trkpt lat="52.064307" lon="5.288503">
        <ele>7.038383</ele>
        <time>2026-03-27T21:31:52.546Z</time>
      </trkpt>
      <trkpt lat="52.064305" lon="5.288367">
        <ele>7.045538</ele>
        <time>2026-03-27T21:31:54.954Z</time>
      </trkpt>
      <trkpt lat="52.064257" lon="5.288126">
        <ele>7.058862</ele>
        <time>2026-03-27T21:31:59.440Z</time>
      </trkpt>
      <trkpt lat="52.064072" lon="5.287576">
        <ele>7.091837</ele>
        <time>2026-03-27T21:32:10.533Z</time>
      </trkpt>
      <trkpt lat="52.063880" lon="5.287038">
        <ele>7.124557</ele>
        <time>2026-03-27T21:32:21.452Z</time>
      </trkpt>
      <trkpt lat="52.063786" lon="5.286466">
        <ele>7.155698</ele>
        <time>2026-03-27T21:32:31.697Z</time>
      </trkpt>
      <trkpt lat="52.063722" lon="5.286208">
        <ele>7.109582</ele>
        <time>2026-03-27T21:32:36.339Z</time>
      </trkpt>
      <trkpt lat="52.063281" lon="5.285039">
        <ele>6.722478</ele>
        <time>2026-03-27T21:32:57.843Z</time>
      </trkpt>
      <trkpt lat="52.063136" lon="5.284594">
        <ele>6.580330</ele>
        <time>2026-03-27T21:33:05.789Z</time>
      </trkpt>
      <trkpt lat="52.063090" lon="5.284518">
        <ele>6.550228</ele>
        <time>2026-03-27T21:33:07.435Z</time>
      </trkpt>
      <trkpt lat="52.062880" lon="5.283528">
        <ele>6.350724</ele>
        <time>2026-03-27T21:33:24.584Z</time>
      </trkpt>
      <trkpt lat="52.062780" lon="5.282930">
        <ele>6.384809</ele>
        <time>2026-03-27T21:33:35.148Z</time>
      </trkpt>
      <trkpt lat="52.062749" lon="5.282818">
        <ele>6.391564</ele>
        <time>2026-03-27T21:33:37.235Z</time>
      </trkpt>
      <trkpt lat="52.062659" lon="5.282676">
        <ele>6.402781</ele>
        <time>2026-03-27T21:33:40.858Z</time>
      </trkpt>
      <trkpt lat="52.062576" lon="5.282583">
        <ele>6.411798</ele>
        <time>2026-03-27T21:33:42.486Z</time>
      </trkpt>
      <trkpt lat="52.062814" lon="5.281714">
        <ele>6.464121</ele>
        <time>2026-03-27T21:33:51.969Z</time>
      </trkpt>
      <trkpt lat="52.062901" lon="5.281310">
        <ele>6.487664</ele>
        <time>2026-03-27T21:33:56.082Z</time>
      </trkpt>
      <trkpt lat="52.062935" lon="5.280583">
        <ele>6.464307</ele>
        <time>2026-03-27T21:34:02.822Z</time>
      </trkpt>
      <trkpt lat="52.063004" lon="5.279874">
        <ele>6.425013</ele>
        <time>2026-03-27T21:34:09.137Z</time>
      </trkpt>
      <trkpt lat="52.063166" lon="5.278539">
        <ele>6.350525</ele>
        <time>2026-03-27T21:34:20.864Z</time>
      </trkpt>
      <trkpt lat="52.063296" lon="5.277765">
        <ele>6.381771</ele>
        <time>2026-03-27T21:34:28.108Z</time>
      </trkpt>
      <trkpt lat="52.063379" lon="5.277105">
        <ele>6.439793</ele>
        <time>2026-03-27T21:34:34.187Z</time>
      </trkpt>
      <trkpt lat="52.063488" lon="5.276526">
        <ele>6.491948</ele>
        <time>2026-03-27T21:34:39.871Z</time>
      </trkpt>
      <trkpt lat="52.063558" lon="5.276262">
        <ele>6.516711</ele>
        <time>2026-03-27T21:34:43.648Z</time>
      </trkpt>
      <trkpt lat="52.063625" lon="5.276068">
        <ele>6.535876</ele>
        <time>2026-03-27T21:34:46.637Z</time>
      </trkpt>
      <trkpt lat="52.063656" lon="5.275993">
        <ele>6.543659</ele>
        <time>2026-03-27T21:34:47.865Z</time>
      </trkpt>
      <trkpt lat="52.063806" lon="5.275668">
        <ele>6.578662</ele>
        <time>2026-03-27T21:34:53.286Z</time>
      </trkpt>
      <trkpt lat="52.063833" lon="5.275625">
        <ele>6.583955</ele>
        <time>2026-03-27T21:34:54.098Z</time>
      </trkpt>
      <trkpt lat="52.063883" lon="5.275519">
        <ele>6.604652</ele>
        <time>2026-03-27T21:34:55.891Z</time>
      </trkpt>
      <trkpt lat="52.064352" lon="5.274640">
        <ele>6.825025</ele>
        <time>2026-03-27T21:35:11.670Z</time>
      </trkpt>
      <trkpt lat="52.064513" lon="5.274325">
        <ele>6.902588</ele>
        <time>2026-03-27T21:35:17.200Z</time>
      </trkpt>
      <trkpt lat="52.065051" lon="5.273389">
        <ele>7.143203</ele>
        <time>2026-03-27T21:35:29.511Z</time>
      </trkpt>
      <trkpt lat="52.065564" lon="5.272625">
        <ele>7.233184</ele>
        <time>2026-03-27T21:35:39.941Z</time>
      </trkpt>
      <trkpt lat="52.066445" lon="5.271324">
        <ele>7.404680</ele>
        <time>2026-03-27T21:35:57.950Z</time>
      </trkpt>
      <trkpt lat="52.066970" lon="5.270495">
        <ele>7.630452</ele>
        <time>2026-03-27T21:36:10.292Z</time>
      </trkpt>
      <trkpt lat="52.067096" lon="5.270328">
        <ele>7.680604</ele>
        <time>2026-03-27T21:36:12.999Z</time>
      </trkpt>
      <trkpt lat="52.067126" lon="5.270277">
        <ele>7.693993</ele>
        <time>2026-03-27T21:36:13.698Z</time>
      </trkpt>
      <trkpt lat="52.067456" lon="5.269734">
        <ele>7.838832</ele>
        <time>2026-03-27T21:36:21.235Z</time>
      </trkpt>
      <trkpt lat="52.067844" lon="5.269143">
        <ele>7.902596</ele>
        <time>2026-03-27T21:36:29.499Z</time>
      </trkpt>
      <trkpt lat="52.067970" lon="5.268939">
        <ele>7.882524</ele>
        <time>2026-03-27T21:36:32.216Z</time>
      </trkpt>
      <trkpt lat="52.068317" lon="5.268373">
        <ele>7.827042</ele>
        <time>2026-03-27T21:36:39.367Z</time>
      </trkpt>
      <trkpt lat="52.068593" lon="5.267913">
        <ele>7.782427</ele>
        <time>2026-03-27T21:36:44.894Z</time>
      </trkpt>
      <trkpt lat="52.070005" lon="5.265498">
        <ele>7.270930</ele>
        <time>2026-03-27T21:37:12.780Z</time>
      </trkpt>
      <trkpt lat="52.070113" lon="5.265317">
        <ele>7.225437</ele>
        <time>2026-03-27T21:37:14.979Z</time>
      </trkpt>
      <trkpt lat="52.070147" lon="5.265257">
        <ele>7.210720</ele>
        <time>2026-03-27T21:37:15.954Z</time>
      </trkpt>
      <trkpt lat="52.070167" lon="5.265221">
        <ele>7.201968</ele>
        <time>2026-03-27T21:37:16.550Z</time>
      </trkpt>
      <trkpt lat="52.070218" lon="5.265131">
        <ele>7.206361</ele>
        <time>2026-03-27T21:37:18.066Z</time>
      </trkpt>
      <trkpt lat="52.070317" lon="5.264990">
        <ele>7.222208</ele>
        <time>2026-03-27T21:37:20.719Z</time>
      </trkpt>
      <trkpt lat="52.070341" lon="5.264952">
        <ele>7.226242</ele>
        <time>2026-03-27T21:37:21.214Z</time>
      </trkpt>
      <trkpt lat="52.070851" lon="5.264144">
        <ele>7.311977</ele>
        <time>2026-03-27T21:37:31.956Z</time>
      </trkpt>
      <trkpt lat="52.071193" lon="5.263503">
        <ele>7.374812</ele>
        <time>2026-03-27T21:37:40.150Z</time>
      </trkpt>
      <trkpt lat="52.071429" lon="5.263132">
        <ele>7.414336</ele>
        <time>2026-03-27T21:37:45.438Z</time>
      </trkpt>
      <trkpt lat="52.071655" lon="5.262756">
        <ele>7.481904</ele>
        <time>2026-03-27T21:37:50.747Z</time>
      </trkpt>
      <trkpt lat="52.071803" lon="5.262490">
        <ele>7.528485</ele>
        <time>2026-03-27T21:37:54.307Z</time>
      </trkpt>
      <trkpt lat="52.072320" lon="5.261582">
        <ele>7.689175</ele>
        <time>2026-03-27T21:38:06.211Z</time>
      </trkpt>
      <trkpt lat="52.072752" lon="5.260851">
        <ele>7.791159</ele>
        <time>2026-03-27T21:38:16.094Z</time>
      </trkpt>
      <trkpt lat="52.073329" lon="5.259874">
        <ele>7.763566</ele>
        <time>2026-03-27T21:38:28.158Z</time>
      </trkpt>
      <trkpt lat="52.074117" lon="5.258474">
        <ele>7.719423</ele>
        <time>2026-03-27T21:38:44.845Z</time>
      </trkpt>
      <trkpt lat="52.075154" lon="5.256660">
        <ele>7.632276</ele>
        <time>2026-03-27T21:39:07.491Z</time>
      </trkpt>
      <trkpt lat="52.075266" lon="5.256662">
        <ele>7.600597</ele>
        <time>2026-03-27T21:39:09.116Z</time>
      </trkpt>
      <trkpt lat="52.075334" lon="5.256596">
        <ele>7.578203</ele>
        <time>2026-03-27T21:39:10.222Z</time>
      </trkpt>
      <trkpt lat="52.075400" lon="5.256468">
        <ele>7.549160</ele>
        <time>2026-03-27T21:39:11.667Z</time>
      </trkpt>
      <trkpt lat="52.075409" lon="5.256213">
        <ele>7.504759</ele>
        <time>2026-03-27T21:39:13.833Z</time>
      </trkpt>
      <trkpt lat="52.075801" lon="5.255527">
        <ele>7.341935</ele>
        <time>2026-03-27T21:39:21.695Z</time>
      </trkpt>
      <trkpt lat="52.075943" lon="5.255298">
        <ele>7.285388</ele>
        <time>2026-03-27T21:39:24.417Z</time>
      </trkpt>
      <trkpt lat="52.076038" lon="5.255106">
        <ele>7.242541</ele>
        <time>2026-03-27T21:39:26.490Z</time>
      </trkpt>
      <trkpt lat="52.076081" lon="5.254953">
        <ele>7.213296</ele>
        <time>2026-03-27T21:39:27.900Z</time>
      </trkpt>
      <trkpt lat="52.076217" lon="5.254694">
        <ele>7.154081</ele>
        <time>2026-03-27T21:39:30.734Z</time>
      </trkpt>
      <trkpt lat="52.076424" lon="5.254259">
        <ele>7.118416</ele>
        <time>2026-03-27T21:39:35.334Z</time>
      </trkpt>
      <trkpt lat="52.077155" lon="5.253027">
        <ele>7.048890</ele>
        <time>2026-03-27T21:39:50.626Z</time>
      </trkpt>
      <trkpt lat="52.077267" lon="5.252958">
        <ele>7.040978</ele>
        <time>2026-03-27T21:39:52.453Z</time>
      </trkpt>
      <trkpt lat="52.077335" lon="5.252851">
        <ele>7.034729</ele>
        <time>2026-03-27T21:39:53.912Z</time>
      </trkpt>
      <trkpt lat="52.077483" lon="5.252587">
        <ele>7.020222</ele>
        <time>2026-03-27T21:39:57.288Z</time>
      </trkpt>
      <trkpt lat="52.077955" lon="5.251942">
        <ele>7.204699</ele>
        <time>2026-03-27T21:40:06.986Z</time>
      </trkpt>
      <trkpt lat="52.078285" lon="5.251336">
        <ele>7.364759</ele>
        <time>2026-03-27T21:40:15.155Z</time>
      </trkpt>
      <trkpt lat="52.078718" lon="5.250697">
        <ele>7.552791</ele>
        <time>2026-03-27T21:40:24.838Z</time>
      </trkpt>
      <trkpt lat="52.078964" lon="5.250092">
        <ele>7.676557</ele>
        <time>2026-03-27T21:40:32.121Z</time>
      </trkpt>
      <trkpt lat="52.079122" lon="5.249817">
        <ele>7.736327</ele>
        <time>2026-03-27T21:40:35.833Z</time>
      </trkpt>
      <trkpt lat="52.080374" lon="5.248500">
        <ele>8.099479</ele>
        <time>2026-03-27T21:40:59.146Z</time>
      </trkpt>
      <trkpt lat="52.081316" lon="5.247506">
        <ele>8.283874</ele>
        <time>2026-03-27T21:41:16.890Z</time>
      </trkpt>
      <trkpt lat="52.081842" lon="5.246995">
        <ele>8.347323</ele>
        <time>2026-03-27T21:41:26.131Z</time>
      </trkpt>
      <trkpt lat="52.082236" lon="5.246617">
        <ele>8.322701</ele>
        <time>2026-03-27T21:41:32.605Z</time>
      </trkpt>
      <trkpt lat="52.082298" lon="5.246558">
        <ele>8.318835</ele>
        <time>2026-03-27T21:41:33.604Z</time>
      </trkpt>
      <trkpt lat="52.082354" lon="5.246573">
        <ele>8.315780</ele>
        <time>2026-03-27T21:41:34.408Z</time>
      </trkpt>
      <trkpt lat="52.082398" lon="5.246568">
        <ele>8.313406</ele>
        <time>2026-03-27T21:41:35.004Z</time>
      </trkpt>
      <trkpt lat="52.082412" lon="5.246617">
        <ele>8.311618</ele>
        <time>2026-03-27T21:41:35.481Z</time>
      </trkpt>
      <trkpt lat="52.082746" lon="5.247624">
        <ele>8.273764</ele>
        <time>2026-03-27T21:41:45.669Z</time>
      </trkpt>
      <trkpt lat="52.083079" lon="5.248724">
        <ele>8.281234</ele>
        <time>2026-03-27T21:41:56.915Z</time>
      </trkpt>
      <trkpt lat="52.083317" lon="5.249532">
        <ele>8.305371</ele>
        <time>2026-03-27T21:42:05.394Z</time>
      </trkpt>
      <trkpt lat="52.083665" lon="5.250784">
        <ele>8.324017</ele>
        <time>2026-03-27T21:42:18.280Z</time>
      </trkpt>
      <trkpt lat="52.083883" lon="5.251740">
        <ele>8.220971</ele>
        <time>2026-03-27T21:42:27.232Z</time>
      </trkpt>
      <trkpt lat="52.084055" lon="5.252326">
        <ele>8.155345</ele>
        <time>2026-03-27T21:42:32.775Z</time>
      </trkpt>
      <trkpt lat="52.084006" lon="5.252515">
        <ele>8.134616</ele>
        <time>2026-03-27T21:42:34.500Z</time>
      </trkpt>
      <trkpt lat="52.084021" lon="5.252694">
        <ele>8.116359</ele>
        <time>2026-03-27T21:42:36.017Z</time>
      </trkpt>
      <trkpt lat="52.084064" lon="5.252801">
        <ele>8.103440</ele>
        <time>2026-03-27T21:42:37.086Z</time>
      </trkpt>
      <trkpt lat="52.084156" lon="5.252893">
        <ele>8.085682</ele>
        <time>2026-03-27T21:42:38.541Z</time>
      </trkpt>
      <trkpt lat="52.084215" lon="5.252910">
        <ele>8.075829</ele>
        <time>2026-03-27T21:42:39.355Z</time>
      </trkpt>
      <trkpt lat="52.085060" lon="5.255933">
        <ele>7.725326</ele>
        <time>2026-03-27T21:43:19.029Z</time>
      </trkpt>
      <trkpt lat="52.085347" lon="5.256939">
        <ele>7.801679</ele>
        <time>2026-03-27T21:43:33.641Z</time>
      </trkpt>
      <trkpt lat="52.085588" lon="5.257806">
        <ele>7.867186</ele>
        <time>2026-03-27T21:43:46.260Z</time>
      </trkpt>
      <trkpt lat="52.086304" lon="5.260380">
        <ele>7.812299</ele>
        <time>2026-03-27T21:44:20.305Z</time>
      </trkpt>
      <trkpt lat="52.086897" lon="5.262536">
        <ele>7.918843</ele>
        <time>2026-03-27T21:44:49.369Z</time>
      </trkpt>
      <trkpt lat="52.087047" lon="5.263078">
        <ele>7.982112</ele>
        <time>2026-03-27T21:44:57.145Z</time>
      </trkpt>
      <trkpt lat="52.087138" lon="5.263397">
        <ele>8.019545</ele>
        <time>2026-03-27T21:45:01.835Z</time>
      </trkpt>
      <trkpt lat="52.087255" lon="5.263809">
        <ele>8.067853</ele>
        <time>2026-03-27T21:45:08.001Z</time>
      </trkpt>
      <trkpt lat="52.087222" lon="5.263996">
        <ele>8.107610</ele>
        <time>2026-03-27T21:45:10.680Z</time>
      </trkpt>
      <trkpt lat="52.086658" lon="5.264753">
        <ele>8.411173</ele>
        <time>2026-03-27T21:45:23.487Z</time>
      </trkpt>
      <trkpt lat="52.086129" lon="5.265375">
        <ele>8.682163</ele>
        <time>2026-03-27T21:45:34.330Z</time>
      </trkpt>
      <trkpt lat="52.085002" lon="5.266621">
        <ele>9.107849</ele>
        <time>2026-03-27T21:45:55.376Z</time>
      </trkpt>
      <trkpt lat="52.084959" lon="5.266663">
        <ele>9.121829</ele>
        <time>2026-03-27T21:45:56.144Z</time>
      </trkpt>
      <trkpt lat="52.084998" lon="5.266783">
        <ele>9.145082</ele>
        <time>2026-03-27T21:45:57.884Z</time>
      </trkpt>
      <trkpt lat="52.085052" lon="5.266904">
        <ele>9.170698</ele>
        <time>2026-03-27T21:45:59.774Z</time>
      </trkpt>
      <trkpt lat="52.085068" lon="5.266958">
        <ele>9.180967</ele>
        <time>2026-03-27T21:46:00.811Z</time>
      </trkpt>
      <trkpt lat="52.085440" lon="5.267942">
        <ele>9.453623</ele>
        <time>2026-03-27T21:46:21.487Z</time>
      </trkpt>
      <trkpt lat="52.085544" lon="5.268241">
        <ele>9.591462</ele>
        <time>2026-03-27T21:46:27.918Z</time>
      </trkpt>
      <trkpt lat="52.085684" lon="5.268637">
        <ele>9.774749</ele>
        <time>2026-03-27T21:46:36.658Z</time>
      </trkpt>
      <trkpt lat="52.086086" lon="5.269793">
        <ele>10.307634</ele>
        <time>2026-03-27T21:47:02.091Z</time>
      </trkpt>
      <trkpt lat="52.086104" lon="5.269961">
        <ele>10.376049</ele>
        <time>2026-03-27T21:47:05.326Z</time>
      </trkpt>
      <trkpt lat="52.086190" lon="5.270427">
        <ele>10.496788</ele>
        <time>2026-03-27T21:47:14.392Z</time>
      </trkpt>
      <trkpt lat="52.086325" lon="5.270832">
        <ele>10.495086</ele>
        <time>2026-03-27T21:47:22.725Z</time>
      </trkpt>
      <trkpt lat="52.086511" lon="5.271388">
        <ele>10.492748</ele>
        <time>2026-03-27T21:47:33.650Z</time>
      </trkpt>
      <trkpt lat="52.087224" lon="5.273527">
        <ele>10.502791</ele>
        <time>2026-03-27T21:48:13.517Z</time>
      </trkpt>
      <trkpt lat="52.087720" lon="5.275008">
        <ele>10.537504</ele>
        <time>2026-03-27T21:48:43.130Z</time>
      </trkpt>
      <trkpt lat="52.088020" lon="5.275906">
        <ele>10.482228</ele>
        <time>2026-03-27T21:49:01.487Z</time>
      </trkpt>
      <trkpt lat="52.087360" lon="5.276855">
        <ele>10.318369</ele>
        <time>2026-03-27T21:49:24.772Z</time>
      </trkpt>
      <trkpt lat="52.086716" lon="5.277875">
        <ele>10.282997</ele>
        <time>2026-03-27T21:49:48.242Z</time>
      </trkpt>
      <trkpt lat="52.086720" lon="5.278005">
        <ele>10.300234</ele>
        <time>2026-03-27T21:49:50.357Z</time>
      </trkpt>
      <trkpt lat="52.088588" lon="5.280829">
        <ele>11.254161</ele>
        <time>2026-03-27T21:51:05.746Z</time>
      </trkpt>
      <trkpt lat="52.088651" lon="5.281956">
        <ele>11.632403</ele>
        <time>2026-03-27T21:51:27.737Z</time>
      </trkpt>
      <trkpt lat="52.089335" lon="5.283012">
        <ele>11.924626</ele>
        <time>2026-03-27T21:51:49.041Z</time>
      </trkpt>
      <trkpt lat="52.089624" lon="5.283467">
        <ele>12.049257</ele>
        <time>2026-03-27T21:51:57.041Z</time>
      </trkpt>
      <trkpt lat="52.090414" lon="5.284683">
        <ele>12.239739</ele>
        <time>2026-03-27T21:52:18.030Z</time>
      </trkpt>
      <trkpt lat="52.090336" lon="5.284871">
        <ele>12.253316</ele>
        <time>2026-03-27T21:52:20.812Z</time>
      </trkpt>
      <trkpt lat="52.090347" lon="5.285083">
        <ele>12.266050</ele>
        <time>2026-03-27T21:52:23.456Z</time>
      </trkpt>
      <trkpt lat="52.090381" lon="5.285176">
        <ele>12.272527</ele>
        <time>2026-03-27T21:52:24.841Z</time>
      </trkpt>
      <trkpt lat="52.090229" lon="5.285469">
        <ele>12.295478</ele>
        <time>2026-03-27T21:52:29.760Z</time>
      </trkpt>
      <trkpt lat="52.090173" lon="5.285901">
        <ele>12.321903</ele>
        <time>2026-03-27T21:52:35.639Z</time>
      </trkpt>
      <trkpt lat="52.089959" lon="5.286489">
        <ele>12.452953</ele>
        <time>2026-03-27T21:52:42.855Z</time>
      </trkpt>
      <trkpt lat="52.089072" lon="5.289393">
        <ele>13.575258</ele>
        <time>2026-03-27T21:53:18.559Z</time>
      </trkpt>
      <trkpt lat="52.088731" lon="5.290290">
        <ele>13.576995</ele>
        <time>2026-03-27T21:53:27.910Z</time>
      </trkpt>
      <trkpt lat="52.088610" lon="5.290774">
        <ele>13.577856</ele>
        <time>2026-03-27T21:53:32.162Z</time>
      </trkpt>
      <trkpt lat="52.088486" lon="5.291478">
        <ele>13.579062</ele>
        <time>2026-03-27T21:53:38.110Z</time>
      </trkpt>
      <trkpt lat="52.088430" lon="5.291707">
        <ele>13.611770</ele>
        <time>2026-03-27T21:53:40.216Z</time>
      </trkpt>
      <trkpt lat="52.088309" lon="5.292201">
        <ele>13.700491</ele>
        <time>2026-03-27T21:53:45.091Z</time>
      </trkpt>
      <trkpt lat="52.088250" lon="5.292514">
        <ele>13.755110</ele>
        <time>2026-03-27T21:53:48.295Z</time>
      </trkpt>
      <trkpt lat="52.088210" lon="5.292918">
        <ele>13.823378</ele>
        <time>2026-03-27T21:53:52.322Z</time>
      </trkpt>
      <trkpt lat="52.088149" lon="5.293303">
        <ele>13.889709</ele>
        <time>2026-03-27T21:53:56.491Z</time>
      </trkpt>
      <trkpt lat="52.088084" lon="5.293456">
        <ele>13.920741</ele>
        <time>2026-03-27T21:53:58.460Z</time>
      </trkpt>
      <trkpt lat="52.087959" lon="5.293679">
        <ele>13.971098</ele>
        <time>2026-03-27T21:54:01.738Z</time>
      </trkpt>
      <trkpt lat="52.087952" lon="5.293750">
        <ele>13.983095</ele>
        <time>2026-03-27T21:54:02.517Z</time>
      </trkpt>
      <trkpt lat="52.087959" lon="5.293954">
        <ele>14.017181</ele>
        <time>2026-03-27T21:54:04.785Z</time>
      </trkpt>
      <trkpt lat="52.087966" lon="5.294085">
        <ele>14.039118</ele>
        <time>2026-03-27T21:54:06.212Z</time>
      </trkpt>
      <trkpt lat="52.088049" lon="5.294323">
        <ele>14.075810</ele>
        <time>2026-03-27T21:54:09.215Z</time>
      </trkpt>
      <trkpt lat="52.088084" lon="5.294506">
        <ele>14.091196</ele>
        <time>2026-03-27T21:54:11.289Z</time>
      </trkpt>
      <trkpt lat="52.088016" lon="5.298344">
        <ele>14.458665</ele>
        <time>2026-03-27T21:54:46.329Z</time>
      </trkpt>
      <trkpt lat="52.087937" lon="5.301500">
        <ele>14.765164</ele>
        <time>2026-03-27T21:55:17.811Z</time>
      </trkpt>
      <trkpt lat="52.087923" lon="5.301717">
        <ele>14.777914</ele>
        <time>2026-03-27T21:55:19.708Z</time>
      </trkpt>
      <trkpt lat="52.087917" lon="5.301854">
        <ele>14.785939</ele>
        <time>2026-03-27T21:55:20.898Z</time>
      </trkpt>
      <trkpt lat="52.088008" lon="5.301863">
        <ele>14.794609</ele>
        <time>2026-03-27T21:55:22.165Z</time>
      </trkpt>
      <trkpt lat="52.088067" lon="5.301887">
        <ele>14.800392</ele>
        <time>2026-03-27T21:55:23.001Z</time>
      </trkpt>
      <trkpt lat="52.088097" lon="5.301940">
        <ele>14.804603</ele>
        <time>2026-03-27T21:55:23.605Z</time>
      </trkpt>
      <trkpt lat="52.088127" lon="5.302129">
        <ele>14.816009</ele>
        <time>2026-03-27T21:55:25.285Z</time>
      </trkpt>
      <trkpt lat="52.088431" lon="5.302371">
        <ele>14.848191</ele>
        <time>2026-03-27T21:55:30.043Z</time>
      </trkpt>
      <trkpt lat="52.088545" lon="5.302401">
        <ele>14.848698</ele>
        <time>2026-03-27T21:55:31.707Z</time>
      </trkpt>
      <trkpt lat="52.088990" lon="5.302757">
        <ele>14.825740</ele>
        <time>2026-03-27T21:55:39.016Z</time>
      </trkpt>
      <trkpt lat="52.089980" lon="5.303572">
        <ele>14.774372</ele>
        <time>2026-03-27T21:55:55.542Z</time>
      </trkpt>
      <trkpt lat="52.090602" lon="5.304086">
        <ele>14.830125</ele>
        <time>2026-03-27T21:56:05.721Z</time>
      </trkpt>
      <trkpt lat="52.093121" lon="5.306158">
        <ele>15.625327</ele>
        <time>2026-03-27T21:56:49.971Z</time>
      </trkpt>
      <trkpt lat="52.093227" lon="5.306246">
        <ele>15.674786</ele>
        <time>2026-03-27T21:56:52.333Z</time>
      </trkpt>
      <trkpt lat="52.093767" lon="5.306487">
        <ele>16.130106</ele>
        <time>2026-03-27T21:57:03.374Z</time>
      </trkpt>
      <trkpt lat="52.093956" lon="5.306626">
        <ele>16.312015</ele>
        <time>2026-03-27T21:57:07.359Z</time>
      </trkpt>
      <trkpt lat="52.094234" lon="5.306908">
        <ele>16.599324</ele>
        <time>2026-03-27T21:57:13.714Z</time>
      </trkpt>
      <trkpt lat="52.094315" lon="5.306931">
        <ele>16.671442</ele>
        <time>2026-03-27T21:57:15.282Z</time>
      </trkpt>
      <trkpt lat="52.094449" lon="5.306896">
        <ele>16.790477</ele>
        <time>2026-03-27T21:57:17.793Z</time>
      </trkpt>
      <trkpt lat="52.094235" lon="5.307596">
        <ele>17.211798</ele>
        <time>2026-03-27T21:57:26.156Z</time>
      </trkpt>
      <trkpt lat="52.094228" lon="5.307626">
        <ele>17.229090</ele>
        <time>2026-03-27T21:57:26.471Z</time>
      </trkpt>
      <trkpt lat="52.093795" lon="5.309412">
        <ele>17.800533</ele>
        <time>2026-03-27T21:57:46.078Z</time>
      </trkpt>
      <trkpt lat="52.093672" lon="5.309480">
        <ele>17.860569</ele>
        <time>2026-03-27T21:57:48.239Z</time>
      </trkpt>
      <trkpt lat="52.093645" lon="5.309555">
        <ele>17.885251</ele>
        <time>2026-03-27T21:57:49.125Z</time>
      </trkpt>
      <trkpt lat="52.093486" lon="5.310296">
        <ele>18.108116</ele>
        <time>2026-03-27T21:57:57.025Z</time>
      </trkpt>
      <trkpt lat="52.093528" lon="5.310590">
        <ele>18.231596</ele>
        <time>2026-03-27T21:58:00.024Z</time>
      </trkpt>
      <trkpt lat="52.093437" lon="5.310998">
        <ele>18.414580</ele>
        <time>2026-03-27T21:58:04.313Z</time>
      </trkpt>
      <trkpt lat="52.093073" lon="5.312543">
        <ele>19.112158</ele>
        <time>2026-03-27T21:58:21.511Z</time>
      </trkpt>
      <trkpt lat="52.093009" lon="5.312807">
        <ele>19.231804</ele>
        <time>2026-03-27T21:58:27.106Z</time>
      </trkpt>
      <trkpt lat="52.093040" lon="5.312884">
        <ele>19.270614</ele>
        <time>2026-03-27T21:58:28.955Z</time>
      </trkpt>
      <trkpt lat="52.093124" lon="5.313105">
        <ele>19.409532</ele>
        <time>2026-03-27T21:58:34.227Z</time>
      </trkpt>
      <trkpt lat="52.093551" lon="5.316376">
        <ele>21.849268</ele>
        <time>2026-03-27T21:59:43.894Z</time>
      </trkpt>
      <trkpt lat="52.093802" lon="5.318262">
        <ele>22.089493</ele>
        <time>2026-03-27T22:00:16.637Z</time>
      </trkpt>
      <trkpt lat="52.094000" lon="5.319770">
        <ele>22.530136</ele>
        <time>2026-03-27T22:00:41.580Z</time>
      </trkpt>
      <trkpt lat="52.094030" lon="5.319767">
        <ele>22.548015</ele>
        <time>2026-03-27T22:00:43.723Z</time>
      </trkpt>
      <trkpt lat="52.094060" lon="5.319984">
        <ele>22.629302</ele>
        <time>2026-03-27T22:00:53.228Z</time>
      </trkpt>
      <trkpt lat="52.094030" lon="5.319767">
        <ele>22.710589</ele>
        <time>2026-03-27T22:01:02.732Z</time>
      </trkpt>
      <trkpt lat="52.094000" lon="5.319770">
        <ele>22.728468</ele>
        <time>2026-03-27T22:01:04.875Z</time>
      </trkpt>
      <trkpt lat="52.094461" lon="5.323122">
        <ele>25.295378</ele>
        <time>2026-03-27T22:02:15.768Z</time>
      </trkpt>
      <trkpt lat="52.094521" lon="5.325447">
        <ele>27.301958</ele>
        <time>2026-03-27T22:03:06.795Z</time>
      </trkpt>
      <trkpt lat="52.094576" lon="5.328119">
        <ele>28.942123</ele>
        <time>2026-03-27T22:03:56.530Z</time>
      </trkpt>
      <trkpt lat="52.094606" lon="5.329716">
        <ele>29.596960</ele>
        <time>2026-03-27T22:04:25.129Z</time>
      </trkpt>
      <trkpt lat="52.094668" lon="5.333330">
        <ele>33.616705</ele>
        <time>2026-03-27T22:05:43.901Z</time>
      </trkpt>
      <trkpt lat="52.094679" lon="5.333955">
        <ele>34.426078</ele>
        <time>2026-03-27T22:05:58.830Z</time>
      </trkpt>
      <trkpt lat="52.094685" lon="5.334366">
        <ele>34.958254</ele>
        <time>2026-03-27T22:06:08.345Z</time>
      </trkpt>
      <trkpt lat="52.094698" lon="5.335211">
        <ele>36.052420</ele>
        <time>2026-03-27T22:06:27.270Z</time>
      </trkpt>
      <trkpt lat="52.094734" lon="5.335234">
        <ele>36.133907</ele>
        <time>2026-03-27T22:06:28.105Z</time>
      </trkpt>
      <trkpt lat="52.094805" lon="5.335281">
        <ele>36.295404</ele>
        <time>2026-03-27T22:06:29.807Z</time>
      </trkpt>
      <trkpt lat="52.095536" lon="5.335725">
        <ele>37.786021</ele>
        <time>2026-03-27T22:06:46.016Z</time>
      </trkpt>
      <trkpt lat="52.095927" lon="5.335879">
        <ele>38.532895</ele>
        <time>2026-03-27T22:06:54.060Z</time>
      </trkpt>
      <trkpt lat="52.095912" lon="5.335935">
        <ele>38.602574</ele>
        <time>2026-03-27T22:06:54.847Z</time>
      </trkpt>
      <trkpt lat="52.095423" lon="5.337978">
        <ele>41.247678</ele>
        <time>2026-03-27T22:07:27.630Z</time>
      </trkpt>
      <trkpt lat="52.095205" lon="5.338921">
        <ele>42.545602</ele>
        <time>2026-03-27T22:07:43.181Z</time>
      </trkpt>
      <trkpt lat="52.095019" lon="5.339749">
        <ele>43.681299</ele>
        <time>2026-03-27T22:07:55.096Z</time>
      </trkpt>
      <trkpt lat="52.094923" lon="5.340172">
        <ele>43.893835</ele>
        <time>2026-03-27T22:08:00.432Z</time>
      </trkpt>
      <trkpt lat="52.094660" lon="5.342161">
        <ele>44.592508</ele>
        <time>2026-03-27T22:08:20.080Z</time>
      </trkpt>
      <trkpt lat="52.094443" lon="5.343872">
        <ele>45.053778</ele>
        <time>2026-03-27T22:08:37.945Z</time>
      </trkpt>
      <trkpt lat="52.094089" lon="5.346562">
        <ele>44.890940</ele>
        <time>2026-03-27T22:09:05.602Z</time>
      </trkpt>
      <trkpt lat="52.093930" lon="5.347791">
        <ele>44.239734</ele>
        <time>2026-03-27T22:09:14.988Z</time>
      </trkpt>
      <trkpt lat="52.093699" lon="5.349509">
        <ele>41.519066</ele>
        <time>2026-03-27T22:09:26.545Z</time>
      </trkpt>
      <trkpt lat="52.093480" lon="5.351249">
        <ele>37.811416</ele>
        <time>2026-03-27T22:09:37.260Z</time>
      </trkpt>
      <trkpt lat="52.093197" lon="5.353629">
        <ele>29.911249</ele>
        <time>2026-03-27T22:09:51.086Z</time>
      </trkpt>
      <trkpt lat="52.092803" lon="5.356826">
        <ele>19.483058</ele>
        <time>2026-03-27T22:10:09.792Z</time>
      </trkpt>
      <trkpt lat="52.092774" lon="5.357079">
        <ele>18.769987</ele>
        <time>2026-03-27T22:10:11.294Z</time>
      </trkpt>
      <trkpt lat="52.092657" lon="5.358079">
        <ele>16.741175</ele>
        <time>2026-03-27T22:10:17.312Z</time>
      </trkpt>
      <trkpt lat="52.092423" lon="5.360048">
        <ele>13.024189</ele>
        <time>2026-03-27T22:10:30.207Z</time>
      </trkpt>
      <trkpt lat="52.092403" lon="5.360198">
        <ele>12.949708</ele>
        <time>2026-03-27T22:10:31.335Z</time>
      </trkpt>
      <trkpt lat="52.092369" lon="5.360476">
        <ele>12.812163</ele>
        <time>2026-03-27T22:10:33.492Z</time>
      </trkpt>
      <trkpt lat="52.092416" lon="5.360540">
        <ele>12.763765</ele>
        <time>2026-03-27T22:10:34.262Z</time>
      </trkpt>
      <trkpt lat="52.092439" lon="5.360674">
        <ele>12.696253</ele>
        <time>2026-03-27T22:10:35.358Z</time>
      </trkpt>
      <trkpt lat="52.092358" lon="5.361306">
        <ele>12.382977</ele>
        <time>2026-03-27T22:10:40.524Z</time>
      </trkpt>
      <trkpt lat="52.092439" lon="5.360674">
        <ele>12.069701</ele>
        <time>2026-03-27T22:10:45.996Z</time>
      </trkpt>
      <trkpt lat="52.092416" lon="5.360540">
        <ele>12.002189</ele>
        <time>2026-03-27T22:10:47.236Z</time>
      </trkpt>
      <trkpt lat="52.092369" lon="5.360476">
        <ele>11.953791</ele>
        <time>2026-03-27T22:10:48.101Z</time>
      </trkpt>
      <trkpt lat="52.092391" lon="5.360580">
        <ele>11.900418</ele>
        <time>2026-03-27T22:10:49.045Z</time>
      </trkpt>
      <trkpt lat="52.092337" lon="5.360744">
        <ele>11.810130</ele>
        <time>2026-03-27T22:10:50.622Z</time>
      </trkpt>
      <trkpt lat="52.092245" lon="5.361482">
        <ele>11.626864</ele>
        <time>2026-03-27T22:10:57.278Z</time>
      </trkpt>
      <trkpt lat="52.092197" lon="5.361621">
        <ele>11.606088</ele>
        <time>2026-03-27T22:10:58.688Z</time>
      </trkpt>
      <trkpt lat="52.092142" lon="5.361784">
        <ele>11.581856</ele>
        <time>2026-03-27T22:11:00.368Z</time>
      </trkpt>
      <trkpt lat="52.092119" lon="5.361960">
        <ele>11.558410</ele>
        <time>2026-03-27T22:11:01.955Z</time>
      </trkpt>
      <trkpt lat="52.092100" lon="5.362163">
        <ele>11.531654</ele>
        <time>2026-03-27T22:11:03.718Z</time>
      </trkpt>
      <trkpt lat="52.092241" lon="5.362207">
        <ele>11.501206</ele>
        <time>2026-03-27T22:11:05.713Z</time>
      </trkpt>
      <trkpt lat="52.093008" lon="5.362324">
        <ele>11.337827</ele>
        <time>2026-03-27T22:11:16.698Z</time>
      </trkpt>
      <trkpt lat="52.093433" lon="5.362345">
        <ele>11.140106</ele>
        <time>2026-03-27T22:11:22.555Z</time>
      </trkpt>
      <trkpt lat="52.094949" lon="5.362217">
        <ele>10.281892</ele>
        <time>2026-03-27T22:11:42.082Z</time>
      </trkpt>
      <trkpt lat="52.095744" lon="5.362232">
        <ele>9.817529</ele>
        <time>2026-03-27T22:11:52.240Z</time>
      </trkpt>
      <trkpt lat="52.097677" lon="5.362487">
        <ele>9.135748</ele>
        <time>2026-03-27T22:12:18.100Z</time>
      </trkpt>
      <trkpt lat="52.102580" lon="5.362940">
        <ele>10.050701</ele>
        <time>2026-03-27T22:13:36.593Z</time>
      </trkpt>
      <trkpt lat="52.105491" lon="5.362071">
        <ele>9.966893</ele>
        <time>2026-03-27T22:14:19.354Z</time>
      </trkpt>
      <trkpt lat="52.106247" lon="5.361744">
        <ele>9.998117</ele>
        <time>2026-03-27T22:14:31.328Z</time>
      </trkpt>
      <trkpt lat="52.106730" lon="5.361604">
        <ele>10.030659</ele>
        <time>2026-03-27T22:14:41.419Z</time>
      </trkpt>
      <trkpt lat="52.107181" lon="5.361522">
        <ele>10.060761</ele>
        <time>2026-03-27T22:14:48.328Z</time>
      </trkpt>
      <trkpt lat="52.110508" lon="5.360517">
        <ele>9.949930</ele>
        <time>2026-03-27T22:15:37.835Z</time>
      </trkpt>
      <trkpt lat="52.110529" lon="5.360511">
        <ele>9.949459</ele>
        <time>2026-03-27T22:15:38.170Z</time>
      </trkpt>
      <trkpt lat="52.110572" lon="5.360501">
        <ele>9.948498</ele>
        <time>2026-03-27T22:15:38.804Z</time>
      </trkpt>
      <trkpt lat="52.110529" lon="5.360511">
        <ele>9.947537</ele>
        <time>2026-03-27T22:15:39.420Z</time>
      </trkpt>
      <trkpt lat="52.110508" lon="5.360517">
        <ele>9.947065</ele>
        <time>2026-03-27T22:15:39.725Z</time>
      </trkpt>
      <trkpt lat="52.110482" lon="5.360839">
        <ele>9.942652</ele>
        <time>2026-03-27T22:15:45.268Z</time>
      </trkpt>
      <trkpt lat="52.110416" lon="5.360959">
        <ele>9.940463</ele>
        <time>2026-03-27T22:15:47.991Z</time>
      </trkpt>
      <trkpt lat="52.110402" lon="5.361198">
        <ele>9.954464</ele>
        <time>2026-03-27T22:15:52.107Z</time>
      </trkpt>
      <trkpt lat="52.110427" lon="5.361329">
        <ele>9.964065</ele>
        <time>2026-03-27T22:15:54.485Z</time>
      </trkpt>
      <trkpt lat="52.110408" lon="5.361749">
        <ele>9.993540</ele>
        <time>2026-03-27T22:16:01.744Z</time>
      </trkpt>
      <trkpt lat="52.110278" lon="5.363227">
        <ele>10.098039</ele>
        <time>2026-03-27T22:16:27.981Z</time>
      </trkpt>
      <trkpt lat="52.110020" lon="5.366180">
        <ele>9.903607</ele>
        <time>2026-03-27T22:17:19.315Z</time>
      </trkpt>
      <trkpt lat="52.110008" lon="5.366312">
        <ele>9.889676</ele>
        <time>2026-03-27T22:17:21.400Z</time>
      </trkpt>
      <trkpt lat="52.109800" lon="5.368650">
        <ele>9.164102</ele>
        <time>2026-03-27T22:17:57.432Z</time>
      </trkpt>
      <trkpt lat="52.109754" lon="5.369152">
        <ele>8.981751</ele>
        <time>2026-03-27T22:18:05.562Z</time>
      </trkpt>
      <trkpt lat="52.109660" lon="5.370189">
        <ele>8.862667</ele>
        <time>2026-03-27T22:18:23.571Z</time>
      </trkpt>
      <trkpt lat="52.109525" lon="5.371849">
        <ele>9.112848</ele>
        <time>2026-03-27T22:18:54.089Z</time>
      </trkpt>
      <trkpt lat="52.109101" lon="5.376739">
        <ele>9.343074</ele>
        <time>2026-03-27T22:20:19.475Z</time>
      </trkpt>
      <trkpt lat="52.108834" lon="5.379903">
        <ele>9.114301</ele>
        <time>2026-03-27T22:21:12.236Z</time>
      </trkpt>
      <trkpt lat="52.108863" lon="5.380089">
        <ele>9.098621</ele>
        <time>2026-03-27T22:21:15.421Z</time>
      </trkpt>
      <trkpt lat="52.108875" lon="5.380359">
        <ele>9.076503</ele>
        <time>2026-03-27T22:21:19.917Z</time>
      </trkpt>
      <trkpt lat="52.108852" lon="5.380658">
        <ele>9.051882</ele>
        <time>2026-03-27T22:21:24.932Z</time>
      </trkpt>
      <trkpt lat="52.108472" lon="5.384981">
        <ele>9.605768</ele>
        <time>2026-03-27T22:22:41.703Z</time>
      </trkpt>
      <trkpt lat="52.108446" lon="5.385200">
        <ele>9.677300</ele>
        <time>2026-03-27T22:22:46.005Z</time>
      </trkpt>
      <trkpt lat="52.108346" lon="5.385444">
        <ele>9.771371</ele>
        <time>2026-03-27T22:22:51.689Z</time>
      </trkpt>
      <trkpt lat="52.107664" lon="5.387328">
        <ele>10.117537</ele>
        <time>2026-03-27T22:23:32.694Z</time>
      </trkpt>
      <trkpt lat="52.107433" lon="5.387983">
        <ele>9.893678</ele>
        <time>2026-03-27T22:23:45.028Z</time>
      </trkpt>
      <trkpt lat="52.106936" lon="5.390034">
        <ele>8.984769</ele>
        <time>2026-03-27T22:24:18.114Z</time>
      </trkpt>
      <trkpt lat="52.106923" lon="5.390080">
        <ele>8.948461</ele>
        <time>2026-03-27T22:24:18.868Z</time>
      </trkpt>
      <trkpt lat="52.106653" lon="5.391429">
        <ele>7.931108</ele>
        <time>2026-03-27T22:24:40.154Z</time>
      </trkpt>
      <trkpt lat="52.106714" lon="5.391537">
        <ele>7.825901</ele>
        <time>2026-03-27T22:24:42.357Z</time>
      </trkpt>
      <trkpt lat="52.106809" lon="5.391575">
        <ele>7.711695</ele>
        <time>2026-03-27T22:24:43.529Z</time>
      </trkpt>
      <trkpt lat="52.106714" lon="5.391537">
        <ele>7.597488</ele>
        <time>2026-03-27T22:24:44.703Z</time>
      </trkpt>
      <trkpt lat="52.106580" lon="5.391508">
        <ele>7.439674</ele>
        <time>2026-03-27T22:24:46.312Z</time>
      </trkpt>
      <trkpt lat="52.106543" lon="5.391787">
        <ele>7.194840</ele>
        <time>2026-03-27T22:24:50.492Z</time>
      </trkpt>
      <trkpt lat="52.106449" lon="5.392182">
        <ele>6.748078</ele>
        <time>2026-03-27T22:24:56.651Z</time>
      </trkpt>
      <trkpt lat="52.106223" lon="5.392612">
        <ele>6.151202</ele>
        <time>2026-03-27T22:25:04.855Z</time>
      </trkpt>
      <trkpt lat="52.105954" lon="5.393391">
        <ele>5.208680</ele>
        <time>2026-03-27T22:25:17.351Z</time>
      </trkpt>
      <trkpt lat="52.105835" lon="5.393623">
        <ele>4.889897</ele>
        <time>2026-03-27T22:25:21.554Z</time>
      </trkpt>
      <trkpt lat="52.105731" lon="5.393956">
        <ele>4.495898</ele>
        <time>2026-03-27T22:25:26.766Z</time>
      </trkpt>
      <trkpt lat="52.105732" lon="5.394054">
        <ele>4.392527</ele>
        <time>2026-03-27T22:25:28.149Z</time>
      </trkpt>
      <trkpt lat="52.105735" lon="5.395002">
        <ele>3.700273</ele>
        <time>2026-03-27T22:25:41.641Z</time>
      </trkpt>
      <trkpt lat="52.105693" lon="5.395153">
        <ele>3.589530</ele>
        <time>2026-03-27T22:25:44.086Z</time>
      </trkpt>
      <trkpt lat="52.105643" lon="5.395198">
        <ele>3.527388</ele>
        <time>2026-03-27T22:25:45.467Z</time>
      </trkpt>
      <trkpt lat="52.104658" lon="5.395473">
        <ele>2.440345</ele>
        <time>2026-03-27T22:26:10.440Z</time>
      </trkpt>
      <trkpt lat="52.104592" lon="5.395549">
        <ele>2.352414</ele>
        <time>2026-03-27T22:26:12.599Z</time>
      </trkpt>
      <trkpt lat="52.104551" lon="5.398188">
        <ele>1.810089</ele>
        <time>2026-03-27T22:26:56.139Z</time>
      </trkpt>
      <trkpt lat="52.104527" lon="5.399356">
        <ele>1.676788</ele>
        <time>2026-03-27T22:27:15.449Z</time>
      </trkpt>
      <trkpt lat="52.104302" lon="5.400760">
        <ele>1.565084</ele>
        <time>2026-03-27T22:27:39.697Z</time>
      </trkpt>
      <trkpt lat="52.104385" lon="5.401878">
        <ele>1.546537</ele>
        <time>2026-03-27T22:27:59.005Z</time>
      </trkpt>
      <trkpt lat="52.104422" lon="5.402120">
        <ele>1.568415</ele>
        <time>2026-03-27T22:28:03.317Z</time>
      </trkpt>
      <trkpt lat="52.104411" lon="5.402390">
        <ele>1.592154</ele>
        <time>2026-03-27T22:28:05.851Z</time>
      </trkpt>
      <trkpt lat="52.104150" lon="5.403659">
        <ele>1.709558</ele>
        <time>2026-03-27T22:28:18.495Z</time>
      </trkpt>
      <trkpt lat="52.104065" lon="5.404039">
        <ele>1.745037</ele>
        <time>2026-03-27T22:28:22.573Z</time>
      </trkpt>
      <trkpt lat="52.103944" lon="5.404385">
        <ele>1.794112</ele>
        <time>2026-03-27T22:28:26.540Z</time>
      </trkpt>
      <trkpt lat="52.103930" lon="5.404422">
        <ele>1.802129</ele>
        <time>2026-03-27T22:28:26.978Z</time>
      </trkpt>
      <trkpt lat="52.103894" lon="5.404619">
        <ele>1.840043</ele>
        <time>2026-03-27T22:28:29.012Z</time>
      </trkpt>
      <trkpt lat="52.103864" lon="5.404743">
        <ele>1.864627</ele>
        <time>2026-03-27T22:28:30.327Z</time>
      </trkpt>
      <trkpt lat="52.103672" lon="5.405513">
        <ele>2.017925</ele>
        <time>2026-03-27T22:28:38.463Z</time>
      </trkpt>
      <trkpt lat="52.103394" lon="5.406398">
        <ele>2.201290</ele>
        <time>2026-03-27T22:28:48.177Z</time>
      </trkpt>
      <trkpt lat="52.102979" lon="5.407029">
        <ele>2.356705</ele>
        <time>2026-03-27T22:28:57.219Z</time>
      </trkpt>
      <trkpt lat="52.102901" lon="5.407226">
        <ele>2.389807</ele>
        <time>2026-03-27T22:28:59.476Z</time>
      </trkpt>
      <trkpt lat="52.102879" lon="5.407660">
        <ele>2.451311</ele>
        <time>2026-03-27T22:29:03.704Z</time>
      </trkpt>
      <trkpt lat="52.103087" lon="5.409236">
        <ele>2.678977</ele>
        <time>2026-03-27T22:29:19.351Z</time>
      </trkpt>
      <trkpt lat="52.103117" lon="5.409842">
        <ele>2.729287</ele>
        <time>2026-03-27T22:29:25.163Z</time>
      </trkpt>
      <trkpt lat="52.103062" lon="5.410099">
        <ele>2.736641</ele>
        <time>2026-03-27T22:29:27.728Z</time>
      </trkpt>
      <trkpt lat="52.102958" lon="5.410356">
        <ele>2.744957</ele>
        <time>2026-03-27T22:29:30.596Z</time>
      </trkpt>
      <trkpt lat="52.102735" lon="5.410732">
        <ele>2.759080</ele>
        <time>2026-03-27T22:29:35.408Z</time>
      </trkpt>
      <trkpt lat="52.102504" lon="5.411027">
        <ele>2.771996</ele>
        <time>2026-03-27T22:29:39.715Z</time>
      </trkpt>
      <trkpt lat="52.101964" lon="5.411605">
        <ele>2.800023</ele>
        <time>2026-03-27T22:29:49.262Z</time>
      </trkpt>
      <trkpt lat="52.101185" lon="5.412890">
        <ele>2.802615</ele>
        <time>2026-03-27T22:30:05.751Z</time>
      </trkpt>
      <trkpt lat="52.101208" lon="5.412928">
        <ele>2.802691</ele>
        <time>2026-03-27T22:30:06.942Z</time>
      </trkpt>
      <trkpt lat="52.101217" lon="5.412942">
        <ele>2.802720</ele>
        <time>2026-03-27T22:30:08.524Z</time>
      </trkpt>
      <trkpt lat="52.101192" lon="5.413028">
        <ele>2.802857</ele>
        <time>2026-03-27T22:30:14.998Z</time>
      </trkpt>
      <trkpt lat="52.101217" lon="5.412942">
        <ele>2.802994</ele>
        <time>2026-03-27T22:30:21.516Z</time>
      </trkpt>
      <trkpt lat="52.101208" lon="5.412928">
        <ele>2.803023</ele>
        <time>2026-03-27T22:30:23.098Z</time>
      </trkpt>
      <trkpt lat="52.101185" lon="5.412890">
        <ele>2.803099</ele>
        <time>2026-03-27T22:30:24.270Z</time>
      </trkpt>
      <trkpt lat="52.101090" lon="5.413062">
        <ele>2.803431</ele>
        <time>2026-03-27T22:30:26.379Z</time>
      </trkpt>
      <trkpt lat="52.101067" lon="5.413239">
        <ele>2.803691</ele>
        <time>2026-03-27T22:30:28.020Z</time>
      </trkpt>
      <trkpt lat="52.101066" lon="5.413335">
        <ele>2.803829</ele>
        <time>2026-03-27T22:30:29.204Z</time>
      </trkpt>
      <trkpt lat="52.101348" lon="5.413366">
        <ele>2.806770</ele>
        <time>2026-03-27T22:30:33.383Z</time>
      </trkpt>
      <trkpt lat="52.105267" lon="5.414616">
        <ele>2.942108</ele>
        <time>2026-03-27T22:31:33.160Z</time>
      </trkpt>
      <trkpt lat="52.105917" lon="5.414864">
        <ele>2.998792</ele>
        <time>2026-03-27T22:31:43.807Z</time>
      </trkpt>
      <trkpt lat="52.106073" lon="5.414887">
        <ele>3.012092</ele>
        <time>2026-03-27T22:31:46.192Z</time>
      </trkpt>
      <trkpt lat="52.106180" lon="5.414857">
        <ele>3.021310</ele>
        <time>2026-03-27T22:31:47.818Z</time>
      </trkpt>
      <trkpt lat="52.106286" lon="5.414823">
        <ele>3.030483</ele>
        <time>2026-03-27T22:31:49.412Z</time>
      </trkpt>
      <trkpt lat="52.106322" lon="5.414847">
        <ele>3.033786</ele>
        <time>2026-03-27T22:31:49.967Z</time>
      </trkpt>
      <trkpt lat="52.106376" lon="5.414962">
        <ele>3.041335</ele>
        <time>2026-03-27T22:31:51.254Z</time>
      </trkpt>
      <trkpt lat="52.106425" lon="5.414956">
        <ele>3.045507</ele>
        <time>2026-03-27T22:31:51.952Z</time>
      </trkpt>
      <trkpt lat="52.106467" lon="5.415386">
        <ele>3.010282</ele>
        <time>2026-03-27T22:31:55.742Z</time>
      </trkpt>
      <trkpt lat="52.106295" lon="5.416710">
        <ele>2.845972</ele>
        <time>2026-03-27T22:32:07.138Z</time>
      </trkpt>
      <trkpt lat="52.106182" lon="5.417779">
        <ele>2.714270</ele>
        <time>2026-03-27T22:32:16.413Z</time>
      </trkpt>
      <trkpt lat="52.106163" lon="5.417998">
        <ele>2.700028</ele>
        <time>2026-03-27T22:32:18.408Z</time>
      </trkpt>
      <trkpt lat="52.106002" lon="5.420425">
        <ele>2.880894</ele>
        <time>2026-03-27T22:32:41.792Z</time>
      </trkpt>
      <trkpt lat="52.105872" lon="5.423895">
        <ele>3.137573</ele>
        <time>2026-03-27T22:33:14.254Z</time>
      </trkpt>
      <trkpt lat="52.105805" lon="5.426391">
        <ele>3.404481</ele>
        <time>2026-03-27T22:33:38.593Z</time>
      </trkpt>
      <trkpt lat="52.105772" lon="5.426722">
        <ele>3.432866</ele>
        <time>2026-03-27T22:33:41.670Z</time>
      </trkpt>
      <trkpt lat="52.105621" lon="5.427079">
        <ele>3.373590</ele>
        <time>2026-03-27T22:33:45.548Z</time>
      </trkpt>
      <trkpt lat="52.105612" lon="5.427186">
        <ele>3.358821</ele>
        <time>2026-03-27T22:33:46.484Z</time>
      </trkpt>
      <trkpt lat="52.105729" lon="5.427576">
        <ele>3.299467</ele>
        <time>2026-03-27T22:33:50.253Z</time>
      </trkpt>
      <trkpt lat="52.105759" lon="5.427727">
        <ele>3.277764</ele>
        <time>2026-03-27T22:33:51.589Z</time>
      </trkpt>
      <trkpt lat="52.105638" lon="5.432576">
        <ele>2.468742</ele>
        <time>2026-03-27T22:34:32.362Z</time>
      </trkpt>
      <trkpt lat="52.105590" lon="5.434343">
        <ele>2.383218</ele>
        <time>2026-03-27T22:34:47.974Z</time>
      </trkpt>
      <trkpt lat="52.105584" lon="5.434623">
        <ele>2.369671</ele>
        <time>2026-03-27T22:34:50.600Z</time>
      </trkpt>
      <trkpt lat="52.105580" lon="5.434724">
        <ele>2.364777</ele>
        <time>2026-03-27T22:34:51.539Z</time>
      </trkpt>
      <trkpt lat="52.105572" lon="5.435056">
        <ele>2.348712</ele>
        <time>2026-03-27T22:34:54.660Z</time>
      </trkpt>
      <trkpt lat="52.105569" lon="5.435106">
        <ele>2.346283</ele>
        <time>2026-03-27T22:34:55.153Z</time>
      </trkpt>
      <trkpt lat="52.105546" lon="5.435901">
        <ele>2.327474</ele>
        <time>2026-03-27T22:35:02.520Z</time>
      </trkpt>
      <trkpt lat="52.105579" lon="5.436106">
        <ele>2.324658</ele>
        <time>2026-03-27T22:35:04.458Z</time>
      </trkpt>
      <trkpt lat="52.105667" lon="5.436232">
        <ele>2.322124</ele>
        <time>2026-03-27T22:35:06.177Z</time>
      </trkpt>
      <trkpt lat="52.105960" lon="5.436336">
        <ele>2.315637</ele>
        <time>2026-03-27T22:35:10.629Z</time>
      </trkpt>
      <trkpt lat="52.107662" lon="5.436941">
        <ele>2.260199</ele>
        <time>2026-03-27T22:35:35.888Z</time>
      </trkpt>
      <trkpt lat="52.107780" lon="5.437088">
        <ele>2.253827</ele>
        <time>2026-03-27T22:35:38.055Z</time>
      </trkpt>
      <trkpt lat="52.107819" lon="5.437349">
        <ele>2.246751</ele>
        <time>2026-03-27T22:35:40.477Z</time>
      </trkpt>
      <trkpt lat="52.107116" lon="5.442987">
        <ele>2.296143</ele>
        <time>2026-03-27T22:36:33.161Z</time>
      </trkpt>
      <trkpt lat="52.107011" lon="5.443834">
        <ele>2.309276</ele>
        <time>2026-03-27T22:36:41.063Z</time>
      </trkpt>
      <trkpt lat="52.105680" lon="5.454924">
        <ele>2.706359</ele>
        <time>2026-03-27T22:38:25.393Z</time>
      </trkpt>
      <trkpt lat="52.105308" lon="5.457857">
        <ele>3.125937</ele>
        <time>2026-03-27T22:38:55.070Z</time>
      </trkpt>
      <trkpt lat="52.105196" lon="5.458136">
        <ele>3.179447</ele>
        <time>2026-03-27T22:38:58.254Z</time>
      </trkpt>
      <trkpt lat="52.103659" lon="5.461111">
        <ele>3.287816</ele>
        <time>2026-03-27T22:39:33.436Z</time>
      </trkpt>
      <trkpt lat="52.103191" lon="5.462022">
        <ele>3.395458</ele>
        <time>2026-03-27T22:39:44.604Z</time>
      </trkpt>
      <trkpt lat="52.102288" lon="5.463743">
        <ele>3.652222</ele>
        <time>2026-03-27T22:40:06.748Z</time>
      </trkpt>
      <trkpt lat="52.101606" lon="5.465009">
        <ele>3.879146</ele>
        <time>2026-03-27T22:40:22.975Z</time>
      </trkpt>
      <trkpt lat="52.101050" lon="5.466109">
        <ele>3.985200</ele>
        <time>2026-03-27T22:40:36.169Z</time>
      </trkpt>
      <trkpt lat="52.100372" lon="5.467434">
        <ele>4.106942</ele>
        <time>2026-03-27T22:40:52.244Z</time>
      </trkpt>
      <trkpt lat="52.099867" lon="5.468418">
        <ele>4.190211</ele>
        <time>2026-03-27T22:41:04.339Z</time>
      </trkpt>
      <trkpt lat="52.099147" lon="5.469825">
        <ele>4.312546</ele>
        <time>2026-03-27T22:41:21.702Z</time>
      </trkpt>
      <trkpt lat="52.097684" lon="5.472681">
        <ele>4.528400</ele>
        <time>2026-03-27T22:41:56.635Z</time>
      </trkpt>
      <trkpt lat="52.097219" lon="5.473459">
        <ele>4.548290</ele>
        <time>2026-03-27T22:42:06.433Z</time>
      </trkpt>
      <trkpt lat="52.096281" lon="5.474918">
        <ele>4.503899</ele>
        <time>2026-03-27T22:42:25.467Z</time>
      </trkpt>
      <trkpt lat="52.096163" lon="5.475022">
        <ele>4.494864</ele>
        <time>2026-03-27T22:42:27.455Z</time>
      </trkpt>
      <trkpt lat="52.095878" lon="5.475122">
        <ele>4.475234</ele>
        <time>2026-03-27T22:42:31.738Z</time>
      </trkpt>
      <trkpt lat="52.094031" lon="5.475622">
        <ele>4.476070</ele>
        <time>2026-03-27T22:42:58.845Z</time>
      </trkpt>
      <trkpt lat="52.093726" lon="5.475800">
        <ele>4.484608</ele>
        <time>2026-03-27T22:43:03.848Z</time>
      </trkpt>
      <trkpt lat="52.093416" lon="5.476200">
        <ele>4.628756</ele>
        <time>2026-03-27T22:43:10.224Z</time>
      </trkpt>
      <trkpt lat="52.092486" lon="5.477871">
        <ele>5.337374</ele>
        <time>2026-03-27T22:43:34.312Z</time>
      </trkpt>
      <trkpt lat="52.092039" lon="5.478798">
        <ele>5.504925</ele>
        <time>2026-03-27T22:43:46.204Z</time>
      </trkpt>
      <trkpt lat="52.091866" lon="5.479401">
        <ele>5.572624</ele>
        <time>2026-03-27T22:43:52.342Z</time>
      </trkpt>
      <trkpt lat="52.091774" lon="5.479844">
        <ele>5.620193</ele>
        <time>2026-03-27T22:43:56.567Z</time>
      </trkpt>
      <trkpt lat="52.091725" lon="5.480039">
        <ele>5.641624</ele>
        <time>2026-03-27T22:43:58.468Z</time>
      </trkpt>
      <trkpt lat="52.091594" lon="5.480573">
        <ele>5.700116</ele>
        <time>2026-03-27T22:44:03.698Z</time>
      </trkpt>
      <trkpt lat="52.091391" lon="5.481385">
        <ele>5.773453</ele>
        <time>2026-03-27T22:44:11.694Z</time>
      </trkpt>
      <trkpt lat="52.090990" lon="5.482440">
        <ele>5.875747</ele>
        <time>2026-03-27T22:44:23.442Z</time>
      </trkpt>
      <trkpt lat="52.090630" lon="5.483249">
        <ele>5.968625</ele>
        <time>2026-03-27T22:44:33.109Z</time>
      </trkpt>
      <trkpt lat="52.090232" lon="5.484144">
        <ele>6.146345</ele>
        <time>2026-03-27T22:44:43.750Z</time>
      </trkpt>
      <trkpt lat="52.090298" lon="5.484151">
        <ele>6.163661</ele>
        <time>2026-03-27T22:44:44.818Z</time>
      </trkpt>
      <trkpt lat="52.091784" lon="5.484091">
        <ele>6.457427</ele>
        <time>2026-03-27T22:45:08.805Z</time>
      </trkpt>
      <trkpt lat="52.092598" lon="5.484053">
        <ele>6.519822</ele>
        <time>2026-03-27T22:45:21.158Z</time>
      </trkpt>
      <trkpt lat="52.092879" lon="5.484168">
        <ele>6.542022</ele>
        <time>2026-03-27T22:45:25.319Z</time>
      </trkpt>
      <trkpt lat="52.093022" lon="5.484331">
        <ele>6.555398</ele>
        <time>2026-03-27T22:45:27.721Z</time>
      </trkpt>
      <trkpt lat="52.093127" lon="5.484527">
        <ele>6.515692</ele>
        <time>2026-03-27T22:45:29.918Z</time>
      </trkpt>
      <trkpt lat="52.093440" lon="5.485472">
        <ele>6.345083</ele>
        <time>2026-03-27T22:45:39.200Z</time>
      </trkpt>
      <trkpt lat="52.093581" lon="5.485699">
        <ele>6.293785</ele>
        <time>2026-03-27T22:45:41.949Z</time>
      </trkpt>
      <trkpt lat="52.093700" lon="5.485812">
        <ele>6.258149</ele>
        <time>2026-03-27T22:45:43.836Z</time>
      </trkpt>
      <trkpt lat="52.093674" lon="5.485971">
        <ele>6.232002</ele>
        <time>2026-03-27T22:45:45.250Z</time>
      </trkpt>
      <trkpt lat="52.093677" lon="5.486129">
        <ele>6.206881</ele>
        <time>2026-03-27T22:45:46.578Z</time>
      </trkpt>
      <trkpt lat="52.093870" lon="5.486692">
        <ele>6.104427</ele>
        <time>2026-03-27T22:45:51.962Z</time>
      </trkpt>
      <trkpt lat="52.093920" lon="5.486984">
        <ele>6.068944</ele>
        <time>2026-03-27T22:45:54.493Z</time>
      </trkpt>
      <trkpt lat="52.093893" lon="5.489429">
        <ele>5.824214</ele>
        <time>2026-03-27T22:46:16.051Z</time>
      </trkpt>
      <trkpt lat="52.093879" lon="5.490462">
        <ele>5.612553</ele>
        <time>2026-03-27T22:46:25.213Z</time>
      </trkpt>
      <trkpt lat="52.093860" lon="5.490545">
        <ele>5.591182</ele>
        <time>2026-03-27T22:46:25.998Z</time>
      </trkpt>
      <trkpt lat="52.093759" lon="5.490699">
        <ele>5.536832</ele>
        <time>2026-03-27T22:46:27.901Z</time>
      </trkpt>
      <trkpt lat="52.093962" lon="5.491008">
        <ele>5.427680</ele>
        <time>2026-03-27T22:46:31.657Z</time>
      </trkpt>
      <trkpt lat="52.094763" lon="5.492302">
        <ele>5.060185</ele>
        <time>2026-03-27T22:46:46.161Z</time>
      </trkpt>
      <trkpt lat="52.095030" lon="5.492789">
        <ele>5.014452</ele>
        <time>2026-03-27T22:46:51.478Z</time>
      </trkpt>
      <trkpt lat="52.097694" lon="5.496806">
        <ele>5.152682</ele>
        <time>2026-03-27T22:47:47.936Z</time>
      </trkpt>
      <trkpt lat="52.098363" lon="5.497740">
        <ele>5.119635</ele>
        <time>2026-03-27T22:48:00.240Z</time>
      </trkpt>
      <trkpt lat="52.098446" lon="5.497803">
        <ele>5.116201</ele>
        <time>2026-03-27T22:48:01.493Z</time>
      </trkpt>
      <trkpt lat="52.099953" lon="5.498602">
        <ele>5.049740</ele>
        <time>2026-03-27T22:48:24.662Z</time>
      </trkpt>
      <trkpt lat="52.100164" lon="5.498737">
        <ele>5.040151</ele>
        <time>2026-03-27T22:48:28.134Z</time>
      </trkpt>
      <trkpt lat="52.100450" lon="5.498984">
        <ele>5.051198</ele>
        <time>2026-03-27T22:48:33.073Z</time>
      </trkpt>
      <trkpt lat="52.100739" lon="5.499279">
        <ele>5.075520</ele>
        <time>2026-03-27T22:48:38.228Z</time>
      </trkpt>
      <trkpt lat="52.102267" lon="5.501326">
        <ele>5.262475</ele>
        <time>2026-03-27T22:49:08.174Z</time>
      </trkpt>
      <trkpt lat="52.102474" lon="5.501954">
        <ele>5.320851</ele>
        <time>2026-03-27T22:49:17.429Z</time>
      </trkpt>
      <trkpt lat="52.103079" lon="5.503426">
        <ele>5.444463</ele>
        <time>2026-03-27T22:49:40.010Z</time>
      </trkpt>
      <trkpt lat="52.103530" lon="5.504600">
        <ele>5.518731</ele>
        <time>2026-03-27T22:49:57.320Z</time>
      </trkpt>
      <trkpt lat="52.103738" lon="5.504998">
        <ele>5.546758</ele>
        <time>2026-03-27T22:50:03.924Z</time>
      </trkpt>
      <trkpt lat="52.103941" lon="5.505306">
        <ele>5.590218</ele>
        <time>2026-03-27T22:50:09.650Z</time>
      </trkpt>
      <trkpt lat="52.104222" lon="5.505669">
        <ele>5.680747</ele>
        <time>2026-03-27T22:50:17.172Z</time>
      </trkpt>
      <trkpt lat="52.104326" lon="5.505805">
        <ele>5.714412</ele>
        <time>2026-03-27T22:50:20.016Z</time>
      </trkpt>
      <trkpt lat="52.103577" lon="5.506765">
        <ele>5.954988</ele>
        <time>2026-03-27T22:50:47.924Z</time>
      </trkpt>
      <trkpt lat="52.103003" lon="5.507295">
        <ele>6.033996</ele>
        <time>2026-03-27T22:51:06.670Z</time>
      </trkpt>
      <trkpt lat="52.102296" lon="5.507736">
        <ele>6.068448</ele>
        <time>2026-03-27T22:51:27.968Z</time>
      </trkpt>
      <trkpt lat="52.102131" lon="5.507862">
        <ele>6.076741</ele>
        <time>2026-03-27T22:51:32.991Z</time>
      </trkpt>
      <trkpt lat="52.102075" lon="5.507977">
        <ele>6.080843</ele>
        <time>2026-03-27T22:51:35.472Z</time>
      </trkpt>
      <trkpt lat="52.102059" lon="5.508092">
        <ele>6.084139</ele>
        <time>2026-03-27T22:51:37.453Z</time>
      </trkpt>
      <trkpt lat="52.102065" lon="5.508641">
        <ele>6.086522</ele>
        <time>2026-03-27T22:51:46.616Z</time>
      </trkpt>
      <trkpt lat="52.102021" lon="5.508777">
        <ele>6.071602</ele>
        <time>2026-03-27T22:51:49.186Z</time>
      </trkpt>
      <trkpt lat="52.100649" lon="5.510093">
        <ele>5.819959</ele>
        <time>2026-03-27T22:52:32.441Z</time>
      </trkpt>
      <trkpt lat="52.100518" lon="5.510129">
        <ele>5.807065</ele>
        <time>2026-03-27T22:52:36.082Z</time>
      </trkpt>
      <trkpt lat="52.099875" lon="5.509644">
        <ele>5.762795</ele>
        <time>2026-03-27T22:52:55.586Z</time>
      </trkpt>
      <trkpt lat="52.099770" lon="5.509632">
        <ele>5.756219</ele>
        <time>2026-03-27T22:52:58.520Z</time>
      </trkpt>
      <trkpt lat="52.099162" lon="5.511836">
        <ele>5.759784</ele>
        <time>2026-03-27T22:53:20.409Z</time>
      </trkpt>
      <trkpt lat="52.098905" lon="5.512959">
        <ele>5.835120</ele>
        <time>2026-03-27T22:53:31.438Z</time>
      </trkpt>
      <trkpt lat="52.098678" lon="5.513954">
        <ele>5.961690</ele>
        <time>2026-03-27T22:53:41.843Z</time>
      </trkpt>
      <trkpt lat="52.099203" lon="5.514597">
        <ele>6.255215</ele>
        <time>2026-03-27T22:53:56.406Z</time>
      </trkpt>
      <trkpt lat="52.099602" lon="5.515278">
        <ele>6.513493</ele>
        <time>2026-03-27T22:54:09.393Z</time>
      </trkpt>
      <trkpt lat="52.100316" lon="5.517130">
        <ele>6.775957</ele>
        <time>2026-03-27T22:54:38.158Z</time>
      </trkpt>
      <trkpt lat="52.100583" lon="5.517765">
        <ele>6.819747</ele>
        <time>2026-03-27T22:54:47.600Z</time>
      </trkpt>
      <trkpt lat="52.101009" lon="5.518451">
        <ele>6.840407</ele>
        <time>2026-03-27T22:54:56.117Z</time>
      </trkpt>
      <trkpt lat="52.102345" lon="5.520052">
        <ele>6.754123</ele>
        <time>2026-03-27T22:55:20.064Z</time>
      </trkpt>
      <trkpt lat="52.102548" lon="5.520181">
        <ele>6.778768</ele>
        <time>2026-03-27T22:55:23.420Z</time>
      </trkpt>
      <trkpt lat="52.102734" lon="5.520611">
        <ele>6.815303</ele>
        <time>2026-03-27T22:55:28.496Z</time>
      </trkpt>
      <trkpt lat="52.103566" lon="5.521638">
        <ele>6.933387</ele>
        <time>2026-03-27T22:55:44.935Z</time>
      </trkpt>
      <trkpt lat="52.103764" lon="5.521769">
        <ele>6.926427</ele>
        <time>2026-03-27T22:55:48.146Z</time>
      </trkpt>
      <trkpt lat="52.103918" lon="5.521950">
        <ele>6.879989</ele>
        <time>2026-03-27T22:55:50.919Z</time>
      </trkpt>
      <trkpt lat="52.104011" lon="5.522221">
        <ele>6.833370</ele>
        <time>2026-03-27T22:55:53.651Z</time>
      </trkpt>
      <trkpt lat="52.105215" lon="5.523721">
        <ele>6.471769</ele>
        <time>2026-03-27T22:56:14.167Z</time>
      </trkpt>
      <trkpt lat="52.107309" lon="5.526361">
        <ele>6.133942</ele>
        <time>2026-03-27T22:56:52.006Z</time>
      </trkpt>
      <trkpt lat="52.108883" lon="5.528309">
        <ele>6.354617</ele>
        <time>2026-03-27T22:57:22.584Z</time>
      </trkpt>
      <trkpt lat="52.109408" lon="5.528973">
        <ele>6.476702</ele>
        <time>2026-03-27T22:57:33.178Z</time>
      </trkpt>
      <trkpt lat="52.109737" lon="5.529358">
        <ele>6.515789</ele>
        <time>2026-03-27T22:57:39.537Z</time>
      </trkpt>
      <trkpt lat="52.110069" lon="5.529840">
        <ele>6.558701</ele>
        <time>2026-03-27T22:57:46.394Z</time>
      </trkpt>
      <trkpt lat="52.111122" lon="5.531517">
        <ele>6.659915</ele>
        <time>2026-03-27T22:58:08.085Z</time>
      </trkpt>
      <trkpt lat="52.111501" lon="5.532073">
        <ele>6.674579</ele>
        <time>2026-03-27T22:58:15.698Z</time>
      </trkpt>
      <trkpt lat="52.114852" lon="5.536817">
        <ele>7.216390</ele>
        <time>2026-03-27T22:59:23.712Z</time>
      </trkpt>
      <trkpt lat="52.115456" lon="5.537582">
        <ele>7.305827</ele>
        <time>2026-03-27T22:59:35.797Z</time>
      </trkpt>
      <trkpt lat="52.115540" lon="5.537685">
        <ele>7.318117</ele>
        <time>2026-03-27T22:59:37.439Z</time>
      </trkpt>
      <trkpt lat="52.115798" lon="5.538023">
        <ele>7.356820</ele>
        <time>2026-03-27T22:59:42.552Z</time>
      </trkpt>
      <trkpt lat="52.116180" lon="5.538398">
        <ele>7.406800</ele>
        <time>2026-03-27T22:59:49.197Z</time>
      </trkpt>
      <trkpt lat="52.118304" lon="5.540440">
        <ele>7.030440</ele>
        <time>2026-03-27T23:00:23.940Z</time>
      </trkpt>
      <trkpt lat="52.118787" lon="5.540857">
        <ele>6.998278</ele>
        <time>2026-03-27T23:00:32.072Z</time>
      </trkpt>
      <trkpt lat="52.118905" lon="5.540959">
        <ele>6.990418</ele>
        <time>2026-03-27T23:00:34.083Z</time>
      </trkpt>
      <trkpt lat="52.118860" lon="5.541110">
        <ele>6.984355</ele>
        <time>2026-03-27T23:00:35.620Z</time>
      </trkpt>
      <trkpt lat="52.118833" lon="5.541187">
        <ele>6.981152</ele>
        <time>2026-03-27T23:00:36.451Z</time>
      </trkpt>
      <trkpt lat="52.118902" lon="5.541369">
        <ele>6.973425</ele>
        <time>2026-03-27T23:00:38.411Z</time>
      </trkpt>
      <trkpt lat="52.118918" lon="5.541620">
        <ele>6.964300</ele>
        <time>2026-03-27T23:00:40.704Z</time>
      </trkpt>
      <trkpt lat="52.118955" lon="5.541667">
        <ele>6.960325</ele>
        <time>2026-03-27T23:00:41.402Z</time>
      </trkpt>
      <trkpt lat="52.118591" lon="5.542466">
        <ele>6.908572</ele>
        <time>2026-03-27T23:00:50.325Z</time>
      </trkpt>
      <trkpt lat="52.118473" lon="5.542809">
        <ele>6.888120</ele>
        <time>2026-03-27T23:00:53.861Z</time>
      </trkpt>
      <trkpt lat="52.118324" lon="5.543465">
        <ele>6.851735</ele>
        <time>2026-03-27T23:00:59.964Z</time>
      </trkpt>
      <trkpt lat="52.118215" lon="5.543767">
        <ele>6.833513</ele>
        <time>2026-03-27T23:01:03.039Z</time>
      </trkpt>
      <trkpt lat="52.117897" lon="5.544462">
        <ele>6.807761</ele>
        <time>2026-03-27T23:01:10.718Z</time>
      </trkpt>
      <trkpt lat="52.117666" lon="5.544952">
        <ele>6.802037</ele>
        <time>2026-03-27T23:01:16.309Z</time>
      </trkpt>
      <trkpt lat="52.117463" lon="5.545483">
        <ele>6.796240</ele>
        <time>2026-03-27T23:01:22.076Z</time>
      </trkpt>
      <trkpt lat="52.117336" lon="5.545907">
        <ele>6.791868</ele>
        <time>2026-03-27T23:01:26.439Z</time>
      </trkpt>
      <trkpt lat="52.117167" lon="5.546573">
        <ele>6.785190</ele>
        <time>2026-03-27T23:01:33.002Z</time>
      </trkpt>
      <trkpt lat="52.117081" lon="5.547242">
        <ele>6.826992</ele>
        <time>2026-03-27T23:01:39.145Z</time>
      </trkpt>
      <trkpt lat="52.117003" lon="5.547976">
        <ele>6.875919</ele>
        <time>2026-03-27T23:01:45.820Z</time>
      </trkpt>
      <trkpt lat="52.116889" lon="5.548562">
        <ele>6.916295</ele>
        <time>2026-03-27T23:01:51.514Z</time>
      </trkpt>
      <trkpt lat="52.116801" lon="5.548827">
        <ele>6.936083</ele>
        <time>2026-03-27T23:01:54.422Z</time>
      </trkpt>
      <trkpt lat="52.116588" lon="5.549266">
        <ele>6.972833</ele>
        <time>2026-03-27T23:01:59.991Z</time>
      </trkpt>
      <trkpt lat="52.116459" lon="5.549529">
        <ele>7.041818</ele>
        <time>2026-03-27T23:02:03.470Z</time>
      </trkpt>
      <trkpt lat="52.115479" lon="5.551498">
        <ele>7.648189</ele>
        <time>2026-03-27T23:02:29.503Z</time>
      </trkpt>
      <trkpt lat="52.114725" lon="5.552681">
        <ele>7.662706</ele>
        <time>2026-03-27T23:02:44.745Z</time>
      </trkpt>
      <trkpt lat="52.114554" lon="5.552859">
        <ele>7.659516</ele>
        <time>2026-03-27T23:02:47.610Z</time>
      </trkpt>
      <trkpt lat="52.114060" lon="5.553099">
        <ele>7.651414</ele>
        <time>2026-03-27T23:02:55.154Z</time>
      </trkpt>
      <trkpt lat="52.113897" lon="5.553223">
        <ele>7.655227</ele>
        <time>2026-03-27T23:02:57.817Z</time>
      </trkpt>
      <trkpt lat="52.113689" lon="5.553481">
        <ele>7.675802</ele>
        <time>2026-03-27T23:03:01.725Z</time>
      </trkpt>
      <trkpt lat="52.113603" lon="5.553640">
        <ele>7.686041</ele>
        <time>2026-03-27T23:03:03.682Z</time>
      </trkpt>
      <trkpt lat="52.113527" lon="5.553862">
        <ele>7.698323</ele>
        <time>2026-03-27T23:03:06.063Z</time>
      </trkpt>
      <trkpt lat="52.113199" lon="5.553887">
        <ele>7.724162</ele>
        <time>2026-03-27T23:03:11.134Z</time>
      </trkpt>
      <trkpt lat="52.112980" lon="5.553834">
        <ele>7.741585</ele>
        <time>2026-03-27T23:03:14.579Z</time>
      </trkpt>
      <trkpt lat="52.112656" lon="5.553694">
        <ele>7.767964</ele>
        <time>2026-03-27T23:03:19.683Z</time>
      </trkpt>
      <trkpt lat="52.112614" lon="5.553762">
        <ele>7.772624</ele>
        <time>2026-03-27T23:03:20.585Z</time>
      </trkpt>
      <trkpt lat="52.112585" lon="5.553878">
        <ele>7.778677</ele>
        <time>2026-03-27T23:03:21.727Z</time>
      </trkpt>
      <trkpt lat="52.112528" lon="5.554003">
        <ele>7.786201</ele>
        <time>2026-03-27T23:03:23.132Z</time>
      </trkpt>
      <trkpt lat="52.112432" lon="5.554103">
        <ele>7.788094</ele>
        <time>2026-03-27T23:03:24.787Z</time>
      </trkpt>
      <trkpt lat="52.112083" lon="5.554152">
        <ele>7.766145</ele>
        <time>2026-03-27T23:03:29.900Z</time>
      </trkpt>
      <trkpt lat="52.111470" lon="5.554441">
        <ele>7.726159</ele>
        <time>2026-03-27T23:03:39.340Z</time>
      </trkpt>
      <trkpt lat="52.111251" lon="5.554649">
        <ele>7.710273</ele>
        <time>2026-03-27T23:03:43.056Z</time>
      </trkpt>
      <trkpt lat="52.108947" lon="5.557856">
        <ele>7.549292</ele>
        <time>2026-03-27T23:04:27.178Z</time>
      </trkpt>
      <trkpt lat="52.108608" lon="5.558327">
        <ele>7.549811</ele>
        <time>2026-03-27T23:04:33.672Z</time>
      </trkpt>
      <trkpt lat="52.108473" lon="5.558472">
        <ele>7.549999</ele>
        <time>2026-03-27T23:04:36.042Z</time>
      </trkpt>
      <trkpt lat="52.107999" lon="5.558728">
        <ele>7.556370</ele>
        <time>2026-03-27T23:04:43.574Z</time>
      </trkpt>
      <trkpt lat="52.107797" lon="5.558897">
        <ele>7.595306</ele>
        <time>2026-03-27T23:04:47.088Z</time>
      </trkpt>
      <trkpt lat="52.107603" lon="5.559153">
        <ele>7.638117</ele>
        <time>2026-03-27T23:04:50.969Z</time>
      </trkpt>
      <trkpt lat="52.107588" lon="5.559174">
        <ele>7.641508</ele>
        <time>2026-03-27T23:04:51.280Z</time>
      </trkpt>
      <trkpt lat="52.106956" lon="5.560134">
        <ele>7.789690</ele>
        <time>2026-03-27T23:05:04.727Z</time>
      </trkpt>
      <trkpt lat="52.106045" lon="5.561566">
        <ele>8.176749</ele>
        <time>2026-03-27T23:05:24.574Z</time>
      </trkpt>
      <trkpt lat="52.105556" lon="5.562380">
        <ele>8.434446</ele>
        <time>2026-03-27T23:05:36.415Z</time>
      </trkpt>
      <trkpt lat="52.105144" lon="5.563166">
        <ele>8.604896</ele>
        <time>2026-03-27T23:05:47.357Z</time>
      </trkpt>
      <trkpt lat="52.104634" lon="5.564045">
        <ele>8.760214</ele>
        <time>2026-03-27T23:05:58.982Z</time>
      </trkpt>
      <trkpt lat="52.104365" lon="5.564508">
        <ele>8.842079</ele>
        <time>2026-03-27T23:06:04.715Z</time>
      </trkpt>
      <trkpt lat="52.103899" lon="5.565189">
        <ele>8.904122</ele>
        <time>2026-03-27T23:06:14.029Z</time>
      </trkpt>
      <trkpt lat="52.103739" lon="5.565361">
        <ele>8.907481</ele>
        <time>2026-03-27T23:06:16.799Z</time>
      </trkpt>
      <trkpt lat="52.103581" lon="5.565463">
        <ele>8.910459</ele>
        <time>2026-03-27T23:06:19.251Z</time>
      </trkpt>
      <trkpt lat="52.103022" lon="5.565691">
        <ele>8.920556</ele>
        <time>2026-03-27T23:06:27.810Z</time>
      </trkpt>
      <trkpt lat="52.102848" lon="5.565806">
        <ele>8.923846</ele>
        <time>2026-03-27T23:06:30.652Z</time>
      </trkpt>
      <trkpt lat="52.102663" lon="5.565967">
        <ele>8.927522</ele>
        <time>2026-03-27T23:06:33.874Z</time>
      </trkpt>
      <trkpt lat="52.102040" lon="5.566625">
        <ele>8.977353</ele>
        <time>2026-03-27T23:06:44.946Z</time>
      </trkpt>
      <trkpt lat="52.101750" lon="5.566867">
        <ele>9.001835</ele>
        <time>2026-03-27T23:06:49.679Z</time>
      </trkpt>
      <trkpt lat="52.101386" lon="5.567112">
        <ele>9.031425</ele>
        <time>2026-03-27T23:06:55.759Z</time>
      </trkpt>
      <trkpt lat="52.101000" lon="5.567265">
        <ele>9.061271</ele>
        <time>2026-03-27T23:07:01.958Z</time>
      </trkpt>
      <trkpt lat="52.101110" lon="5.567666">
        <ele>9.081495</ele>
        <time>2026-03-27T23:07:06.181Z</time>
      </trkpt>
      <trkpt lat="52.101601" lon="5.568737">
        <ele>9.143014</ele>
        <time>2026-03-27T23:07:18.470Z</time>
      </trkpt>
      <trkpt lat="52.101833" lon="5.569929">
        <ele>9.199727</ele>
        <time>2026-03-27T23:07:29.858Z</time>
      </trkpt>
      <trkpt lat="52.102111" lon="5.570722">
        <ele>9.214893</ele>
        <time>2026-03-27T23:07:38.244Z</time>
      </trkpt>
      <trkpt lat="52.102131" lon="5.571049">
        <ele>9.220352</ele>
        <time>2026-03-27T23:07:41.201Z</time>
      </trkpt>
      <trkpt lat="52.102002" lon="5.571835">
        <ele>9.233866</ele>
        <time>2026-03-27T23:07:48.560Z</time>
      </trkpt>
      <trkpt lat="52.102062" lon="5.572340">
        <ele>9.242410</ele>
        <time>2026-03-27T23:07:53.350Z</time>
      </trkpt>
      <trkpt lat="52.102208" lon="5.572624">
        <ele>9.253403</ele>
        <time>2026-03-27T23:07:56.868Z</time>
      </trkpt>
      <trkpt lat="52.102289" lon="5.572705">
        <ele>9.274440</ele>
        <time>2026-03-27T23:07:58.336Z</time>
      </trkpt>
      <trkpt lat="52.102411" lon="5.572766">
        <ele>9.302684</ele>
        <time>2026-03-27T23:08:00.316Z</time>
      </trkpt>
      <trkpt lat="52.102468" lon="5.572716">
        <ele>9.317013</ele>
        <time>2026-03-27T23:08:01.314Z</time>
      </trkpt>
      <trkpt lat="52.102411" lon="5.572766">
        <ele>9.331342</ele>
        <time>2026-03-27T23:08:02.272Z</time>
      </trkpt>
      <trkpt lat="52.102925" lon="5.573142">
        <ele>9.456049</ele>
        <time>2026-03-27T23:08:18.292Z</time>
      </trkpt>
      <trkpt lat="52.103122" lon="5.573381">
        <ele>9.510420</ele>
        <time>2026-03-27T23:08:25.442Z</time>
      </trkpt>
      <trkpt lat="52.103310" lon="5.573735">
        <ele>9.574033</ele>
        <time>2026-03-27T23:08:33.998Z</time>
      </trkpt>
      <trkpt lat="52.103412" lon="5.573959">
        <ele>9.611937</ele>
        <time>2026-03-27T23:08:39.107Z</time>
      </trkpt>
      <trkpt lat="52.104082" lon="5.575089">
        <ele>9.474044</ele>
        <time>2026-03-27T23:09:06.356Z</time>
      </trkpt>
      <trkpt lat="52.104528" lon="5.575698">
        <ele>9.350679</ele>
        <time>2026-03-27T23:09:21.690Z</time>
      </trkpt>
      <trkpt lat="52.104641" lon="5.575897">
        <ele>9.315401</ele>
        <time>2026-03-27T23:09:25.971Z</time>
      </trkpt>
      <trkpt lat="52.104722" lon="5.576083">
        <ele>9.285720</ele>
        <time>2026-03-27T23:09:29.558Z</time>
      </trkpt>
      <trkpt lat="52.104835" lon="5.576488">
        <ele>9.242760</ele>
        <time>2026-03-27T23:09:36.520Z</time>
      </trkpt>
      <trkpt lat="52.104910" lon="5.576760">
        <ele>9.219654</ele>
        <time>2026-03-27T23:09:41.223Z</time>
      </trkpt>
      <trkpt lat="52.105000" lon="5.577320">
        <ele>9.174794</ele>
        <time>2026-03-27T23:09:50.537Z</time>
      </trkpt>
      <trkpt lat="52.105110" lon="5.577640">
        <ele>9.146375</ele>
        <time>2026-03-27T23:09:56.600Z</time>
      </trkpt>
      <trkpt lat="52.105220" lon="5.577820">
        <ele>9.126697</ele>
        <time>2026-03-27T23:10:00.912Z</time>
      </trkpt>
      <trkpt lat="52.105530" lon="5.577910">
        <ele>9.086966</ele>
        <time>2026-03-27T23:10:09.883Z</time>
      </trkpt>
      <trkpt lat="52.106030" lon="5.578200">
        <ele>9.054357</ele>
        <time>2026-03-27T23:10:25.495Z</time>
      </trkpt>
      <trkpt lat="52.106144" lon="5.578380">
        <ele>9.072981</ele>
        <time>2026-03-27T23:10:30.168Z</time>
      </trkpt>
      <trkpt lat="52.106186" lon="5.578683">
        <ele>9.095355</ele>
        <time>2026-03-27T23:10:35.729Z</time>
      </trkpt>
      <trkpt lat="52.106158" lon="5.579111">
        <ele>9.126357</ele>
        <time>2026-03-27T23:10:43.297Z</time>
      </trkpt>
      <trkpt lat="52.106175" lon="5.579269">
        <ele>9.137911</ele>
        <time>2026-03-27T23:10:46.078Z</time>
      </trkpt>
      <trkpt lat="52.106399" lon="5.579518">
        <ele>9.169719</ele>
        <time>2026-03-27T23:10:53.635Z</time>
      </trkpt>
      <trkpt lat="52.105689" lon="5.580544">
        <ele>9.274016</ele>
        <time>2026-03-27T23:11:07.398Z</time>
      </trkpt>
      <trkpt lat="52.105560" lon="5.580730">
        <ele>9.289824</ele>
        <time>2026-03-27T23:11:09.913Z</time>
      </trkpt>
      <trkpt lat="52.104290" lon="5.582650">
        <ele>9.369121</ele>
        <time>2026-03-27T23:11:36.833Z</time>
      </trkpt>
      <trkpt lat="52.104150" lon="5.582700">
        <ele>9.352388</ele>
        <time>2026-03-27T23:11:38.909Z</time>
      </trkpt>
      <trkpt lat="52.104086" lon="5.582639">
        <ele>9.343730</ele>
        <time>2026-03-27T23:11:39.965Z</time>
      </trkpt>
      <trkpt lat="52.103817" lon="5.581601">
        <ele>9.262945</ele>
        <time>2026-03-27T23:12:04.965Z</time>
      </trkpt>
      <trkpt lat="52.103777" lon="5.581124">
        <ele>9.228423</ele>
        <time>2026-03-27T23:12:15.583Z</time>
      </trkpt>
      <trkpt lat="52.103668" lon="5.580528">
        <ele>9.201052</ele>
        <time>2026-03-27T23:12:29.401Z</time>
      </trkpt>
      <trkpt lat="52.103566" lon="5.580334">
        <ele>9.198553</ele>
        <time>2026-03-27T23:12:35.156Z</time>
      </trkpt>
      <trkpt lat="52.103010" lon="5.579569">
        <ele>9.186954</ele>
        <time>2026-03-27T23:13:02.341Z</time>
      </trkpt>
      <trkpt lat="52.102977" lon="5.579433">
        <ele>9.185523</ele>
        <time>2026-03-27T23:13:05.717Z</time>
      </trkpt>
      <trkpt lat="52.102913" lon="5.578801">
        <ele>9.179255</ele>
        <time>2026-03-27T23:13:20.408Z</time>
      </trkpt>
      <trkpt lat="52.102871" lon="5.578628">
        <ele>9.177434</ele>
        <time>2026-03-27T23:13:24.640Z</time>
      </trkpt>
      <trkpt lat="52.101900" lon="5.577303">
        <ele>9.116313</ele>
        <time>2026-03-27T23:14:11.379Z</time>
      </trkpt>
      <trkpt lat="52.101626" lon="5.578159">
        <ele>9.085225</ele>
        <time>2026-03-27T23:14:27.611Z</time>
      </trkpt>
      <trkpt lat="52.101407" lon="5.578579">
        <ele>9.058920</ele>
        <time>2026-03-27T23:14:36.921Z</time>
      </trkpt>
      <trkpt lat="52.100921" lon="5.579035">
        <ele>9.010617</ele>
        <time>2026-03-27T23:14:52.414Z</time>
      </trkpt>
      <trkpt lat="52.100761" lon="5.579134">
        <ele>8.995877</ele>
        <time>2026-03-27T23:14:57.110Z</time>
      </trkpt>
      <trkpt lat="52.100288" lon="5.579307">
        <ele>8.954131</ele>
        <time>2026-03-27T23:15:10.288Z</time>
      </trkpt>
      <trkpt lat="52.100192" lon="5.579360">
        <ele>8.945402</ele>
        <time>2026-03-27T23:15:13.048Z</time>
      </trkpt>
      <trkpt lat="52.100152" lon="5.579428">
        <ele>8.940421</ele>
        <time>2026-03-27T23:15:14.646Z</time>
      </trkpt>
      <trkpt lat="52.100144" lon="5.579628">
        <ele>8.929820</ele>
        <time>2026-03-27T23:15:18.037Z</time>
      </trkpt>
      <trkpt lat="52.100236" lon="5.580288">
        <ele>8.969866</ele>
        <time>2026-03-27T23:15:29.629Z</time>
      </trkpt>
      <trkpt lat="52.100231" lon="5.580499">
        <ele>8.985250</ele>
        <time>2026-03-27T23:15:33.274Z</time>
      </trkpt>
      <trkpt lat="52.099814" lon="5.582267">
        <ele>9.123223</ele>
        <time>2026-03-27T23:16:06.240Z</time>
      </trkpt>
      <trkpt lat="52.099180" lon="5.584960">
        <ele>9.492763</ele>
        <time>2026-03-27T23:16:56.964Z</time>
      </trkpt>
      <trkpt lat="52.099074" lon="5.585937">
        <ele>9.687030</ele>
        <time>2026-03-27T23:17:14.589Z</time>
      </trkpt>
      <trkpt lat="52.098880" lon="5.587300">
        <ele>9.992984</ele>
        <time>2026-03-27T23:17:39.694Z</time>
      </trkpt>
      <trkpt lat="52.098688" lon="5.588405">
        <ele>10.232597</ele>
        <time>2026-03-27T23:18:00.705Z</time>
      </trkpt>
      <trkpt lat="52.098440" lon="5.590362">
        <ele>10.603437</ele>
        <time>2026-03-27T23:18:37.098Z</time>
      </trkpt>
      <trkpt lat="52.097928" lon="5.590354">
        <ele>10.670546</ele>
        <time>2026-03-27T23:18:44.458Z</time>
      </trkpt>
      <trkpt lat="52.097666" lon="5.590291">
        <ele>10.600445</ele>
        <time>2026-03-27T23:18:48.124Z</time>
      </trkpt>
      <trkpt lat="52.097392" lon="5.590121">
        <ele>10.522831</ele>
        <time>2026-03-27T23:18:52.155Z</time>
      </trkpt>
      <trkpt lat="52.097060" lon="5.589919">
        <ele>10.429016</ele>
        <time>2026-03-27T23:18:56.967Z</time>
      </trkpt>
      <trkpt lat="52.096418" lon="5.589727">
        <ele>10.256241</ele>
        <time>2026-03-27T23:19:05.773Z</time>
      </trkpt>
      <trkpt lat="52.096344" lon="5.589715">
        <ele>10.236557</ele>
        <time>2026-03-27T23:19:06.809Z</time>
      </trkpt>
      <trkpt lat="52.094506" lon="5.589465">
        <ele>9.868140</ele>
        <time>2026-03-27T23:19:32.730Z</time>
      </trkpt>
      <trkpt lat="52.094169" lon="5.589399">
        <ele>9.885508</ele>
        <time>2026-03-27T23:19:37.661Z</time>
      </trkpt>
      <trkpt lat="52.093005" lon="5.589104">
        <ele>9.945786</ele>
        <time>2026-03-27T23:19:55.861Z</time>
      </trkpt>
      <trkpt lat="52.092400" lon="5.588744">
        <ele>9.849285</ele>
        <time>2026-03-27T23:20:05.510Z</time>
      </trkpt>
      <trkpt lat="52.092074" lon="5.588689">
        <ele>9.761087</ele>
        <time>2026-03-27T23:20:10.070Z</time>
      </trkpt>
      <trkpt lat="52.091296" lon="5.588693">
        <ele>9.551723</ele>
        <time>2026-03-27T23:20:20.525Z</time>
      </trkpt>
      <trkpt lat="52.091035" lon="5.588648">
        <ele>9.481094</ele>
        <time>2026-03-27T23:20:23.975Z</time>
      </trkpt>
      <trkpt lat="52.089629" lon="5.587921">
        <ele>9.290498</ele>
        <time>2026-03-27T23:20:44.735Z</time>
      </trkpt>
      <trkpt lat="52.089491" lon="5.588801">
        <ele>9.284463</ele>
        <time>2026-03-27T23:20:53.607Z</time>
      </trkpt>
      <trkpt lat="52.089398" lon="5.589819">
        <ele>9.400505</ele>
        <time>2026-03-27T23:21:03.694Z</time>
      </trkpt>
      <trkpt lat="52.089340" lon="5.590150">
        <ele>9.439314</ele>
        <time>2026-03-27T23:21:07.039Z</time>
      </trkpt>
      <trkpt lat="52.089141" lon="5.590783">
        <ele>9.519485</ele>
        <time>2026-03-27T23:21:13.857Z</time>
      </trkpt>
      <trkpt lat="52.088714" lon="5.590657">
        <ele>9.577506</ele>
        <time>2026-03-27T23:21:48.494Z</time>
      </trkpt>
      <trkpt lat="52.086786" lon="5.590775">
        <ele>9.582968</ele>
        <time>2026-03-27T23:24:21.567Z</time>
      </trkpt>
      <trkpt lat="52.084850" lon="5.590894">
        <ele>9.479238</ele>
        <time>2026-03-27T23:26:55.101Z</time>
      </trkpt>
      <trkpt lat="52.084664" lon="5.590827">
        <ele>9.461479</ele>
        <time>2026-03-27T23:27:10.105Z</time>
      </trkpt>
      <trkpt lat="52.084348" lon="5.590610">
        <ele>9.429505</ele>
        <time>2026-03-27T23:27:37.245Z</time>
      </trkpt>
      <trkpt lat="52.084190" lon="5.590563">
        <ele>9.414531</ele>
        <time>2026-03-27T23:27:49.911Z</time>
      </trkpt>
      <trkpt lat="52.082940" lon="5.590875">
        <ele>9.363202</ele>
        <time>2026-03-27T23:29:30.152Z</time>
      </trkpt>
      <trkpt lat="52.080367" lon="5.590990">
        <ele>9.470097</ele>
        <time>2026-03-27T23:32:55.141Z</time>
      </trkpt>
      <trkpt lat="52.078769" lon="5.591120">
        <ele>9.475773</ele>
        <time>2026-03-27T23:35:02.382Z</time>
      </trkpt>
      <trkpt lat="52.078707" lon="5.591165">
        <ele>9.474558</ele>
        <time>2026-03-27T23:35:07.780Z</time>
      </trkpt>
      <trkpt lat="52.078674" lon="5.591240">
        <ele>9.473543</ele>
        <time>2026-03-27T23:35:12.280Z</time>
      </trkpt>
      <trkpt lat="52.078458" lon="5.591839">
        <ele>9.465906</ele>
        <time>2026-03-27T23:35:46.101Z</time>
      </trkpt>
      <trkpt lat="52.078397" lon="5.592006">
        <ele>9.463606</ele>
        <time>2026-03-27T23:35:55.525Z</time>
      </trkpt>
      <trkpt lat="52.078356" lon="5.592062">
        <ele>9.459576</ele>
        <time>2026-03-27T23:35:59.776Z</time>
      </trkpt>
      <trkpt lat="52.077875" lon="5.592139">
        <ele>9.423194</ele>
        <time>2026-03-27T23:36:37.911Z</time>
      </trkpt>
      <trkpt lat="52.077795" lon="5.592108">
        <ele>9.417003</ele>
        <time>2026-03-27T23:36:44.394Z</time>
      </trkpt>
      <trkpt lat="52.077766" lon="5.592061">
        <ele>9.413922</ele>
        <time>2026-03-27T23:36:47.613Z</time>
      </trkpt>
      <trkpt lat="52.077555" lon="5.591208">
        <ele>9.371383</ele>
        <time>2026-03-27T23:37:32.274Z</time>
      </trkpt>
      <trkpt lat="52.077464" lon="5.591051">
        <ele>9.361399</ele>
        <time>2026-03-27T23:37:42.806Z</time>
      </trkpt>
      <trkpt lat="52.077221" lon="5.591044">
        <ele>9.343104</ele>
        <time>2026-03-27T23:38:02.095Z</time>
      </trkpt>
      <trkpt lat="52.076794" lon="5.591129">
        <ele>9.320184</ele>
        <time>2026-03-27T23:38:36.258Z</time>
      </trkpt>
      <trkpt lat="52.076737" lon="5.591101">
        <ele>9.318097</ele>
        <time>2026-03-27T23:38:41.031Z</time>
      </trkpt>
      <trkpt lat="52.076495" lon="5.590819">
        <ele>9.307666</ele>
        <time>2026-03-27T23:39:04.727Z</time>
      </trkpt>
      <trkpt lat="52.076937" lon="5.589045">
        <ele>9.266437</ele>
        <time>2026-03-27T23:39:22.063Z</time>
      </trkpt>
      <trkpt lat="52.077491" lon="5.587003">
        <ele>9.107375</ele>
        <time>2026-03-27T23:39:41.236Z</time>
      </trkpt>
      <trkpt lat="52.077621" lon="5.586395">
        <ele>9.060792</ele>
        <time>2026-03-27T23:39:47.040Z</time>
      </trkpt>
      <trkpt lat="52.077827" lon="5.585434">
        <ele>9.098860</ele>
        <time>2026-03-27T23:39:56.776Z</time>
      </trkpt>
      <trkpt lat="52.077942" lon="5.584566">
        <ele>9.142584</ele>
        <time>2026-03-27T23:40:05.251Z</time>
      </trkpt>
      <trkpt lat="52.077955" lon="5.584459">
        <ele>9.147955</ele>
        <time>2026-03-27T23:40:06.303Z</time>
      </trkpt>
      <trkpt lat="52.078263" lon="5.581963">
        <ele>9.145327</ele>
        <time>2026-03-27T23:40:29.661Z</time>
      </trkpt>
      <trkpt lat="52.078317" lon="5.581522">
        <ele>9.129975</ele>
        <time>2026-03-27T23:40:33.553Z</time>
      </trkpt>
      <trkpt lat="52.078328" lon="5.581427">
        <ele>9.126675</ele>
        <time>2026-03-27T23:40:34.405Z</time>
      </trkpt>
      <trkpt lat="52.078498" lon="5.581432">
        <ele>9.117230</ele>
        <time>2026-03-27T23:40:36.798Z</time>
      </trkpt>
      <trkpt lat="52.078756" lon="5.576618">
        <ele>8.504662</ele>
        <time>2026-03-27T23:41:56.918Z</time>
      </trkpt>
      <trkpt lat="52.078862" lon="5.574411">
        <ele>8.230458</ele>
        <time>2026-03-27T23:42:33.515Z</time>
      </trkpt>
      <trkpt lat="52.078900" lon="5.574329">
        <ele>8.222322</ele>
        <time>2026-03-27T23:42:35.237Z</time>
      </trkpt>
      <trkpt lat="52.078941" lon="5.574300">
        <ele>8.216559</ele>
        <time>2026-03-27T23:42:36.437Z</time>
      </trkpt>
      <trkpt lat="52.078997" lon="5.574260">
        <ele>8.208675</ele>
        <time>2026-03-27T23:42:38.117Z</time>
      </trkpt>
      <trkpt lat="52.079586" lon="5.574049">
        <ele>8.130931</ele>
        <time>2026-03-27T23:42:54.609Z</time>
      </trkpt>
      <trkpt lat="52.080117" lon="5.572752">
        <ele>8.058355</ele>
        <time>2026-03-27T23:43:21.050Z</time>
      </trkpt>
      <trkpt lat="52.081089" lon="5.571286">
        <ele>8.101776</ele>
        <time>2026-03-27T23:43:58.016Z</time>
      </trkpt>
      <trkpt lat="52.081199" lon="5.571105">
        <ele>8.106902</ele>
        <time>2026-03-27T23:44:02.413Z</time>
      </trkpt>
      <trkpt lat="52.081285" lon="5.570891">
        <ele>8.118384</ele>
        <time>2026-03-27T23:44:06.872Z</time>
      </trkpt>
      <trkpt lat="52.081403" lon="5.570519">
        <ele>8.137327</ele>
        <time>2026-03-27T23:44:14.156Z</time>
      </trkpt>
      <trkpt lat="52.081507" lon="5.570045">
        <ele>8.160101</ele>
        <time>2026-03-27T23:44:22.893Z</time>
      </trkpt>
      <trkpt lat="52.081674" lon="5.568810">
        <ele>8.217320</ele>
        <time>2026-03-27T23:44:44.814Z</time>
      </trkpt>
      <trkpt lat="52.081679" lon="5.568391">
        <ele>8.236283</ele>
        <time>2026-03-27T23:44:52.011Z</time>
      </trkpt>
      <trkpt lat="52.081626" lon="5.567895">
        <ele>8.207116</ele>
        <time>2026-03-27T23:45:00.589Z</time>
      </trkpt>
      <trkpt lat="52.081669" lon="5.567017">
        <ele>8.141645</ele>
        <time>2026-03-27T23:45:15.525Z</time>
      </trkpt>
      <trkpt lat="52.081877" lon="5.566987">
        <ele>8.116387</ele>
        <time>2026-03-27T23:45:18.533Z</time>
      </trkpt>
      <trkpt lat="52.082098" lon="5.566905">
        <ele>8.088970</ele>
        <time>2026-03-27T23:45:21.765Z</time>
      </trkpt>
      <trkpt lat="52.082851" lon="5.566626">
        <ele>8.028241</ele>
        <time>2026-03-27T23:45:32.451Z</time>
      </trkpt>
      <trkpt lat="52.083194" lon="5.566716">
        <ele>8.038460</ele>
        <time>2026-03-27T23:45:37.371Z</time>
      </trkpt>
      <trkpt lat="52.083641" lon="5.566904">
        <ele>8.052040</ele>
        <time>2026-03-27T23:45:44.191Z</time>
      </trkpt>
      <trkpt lat="52.084146" lon="5.567093">
        <ele>8.067282</ele>
        <time>2026-03-27T23:45:52.203Z</time>
      </trkpt>
      <trkpt lat="52.084376" lon="5.567068">
        <ele>8.074062</ele>
        <time>2026-03-27T23:45:55.870Z</time>
      </trkpt>
      <trkpt lat="52.084496" lon="5.567048">
        <ele>8.086919</ele>
        <time>2026-03-27T23:45:57.811Z</time>
      </trkpt>
      <trkpt lat="52.085229" lon="5.566939">
        <ele>8.179096</ele>
        <time>2026-03-27T23:46:09.781Z</time>
      </trkpt>
      <trkpt lat="52.085347" lon="5.567001">
        <ele>8.194625</ele>
        <time>2026-03-27T23:46:11.740Z</time>
      </trkpt>
      <trkpt lat="52.087102" lon="5.568500">
        <ele>8.370945</ele>
        <time>2026-03-27T23:46:40.998Z</time>
      </trkpt>
      <trkpt lat="52.087510" lon="5.568810">
        <ele>8.398953</ele>
        <time>2026-03-27T23:46:47.823Z</time>
      </trkpt>
      <trkpt lat="52.087560" lon="5.568855">
        <ele>8.402507</ele>
        <time>2026-03-27T23:46:48.703Z</time>
      </trkpt>
      <trkpt lat="52.088206" lon="5.569442">
        <ele>8.481219</ele>
        <time>2026-03-27T23:47:00.056Z</time>
      </trkpt>
      <trkpt lat="52.088526" lon="5.569838">
        <ele>8.528528</ele>
        <time>2026-03-27T23:47:06.245Z</time>
      </trkpt>
      <trkpt lat="52.088923" lon="5.570041">
        <ele>8.577500</ele>
        <time>2026-03-27T23:47:12.641Z</time>
      </trkpt>
      <trkpt lat="52.088730" lon="5.571860">
        <ele>8.675963</ele>
        <time>2026-03-27T23:47:36.048Z</time>
      </trkpt>
      <trkpt lat="52.088740" lon="5.572130">
        <ele>8.687689</ele>
        <time>2026-03-27T23:47:39.453Z</time>
      </trkpt>
      <trkpt lat="52.088833" lon="5.572719">
        <ele>8.714052</ele>
        <time>2026-03-27T23:47:47.084Z</time>
      </trkpt>
      <trkpt lat="52.089028" lon="5.573649">
        <ele>8.763631</ele>
        <time>2026-03-27T23:47:59.347Z</time>
      </trkpt>
      <trkpt lat="52.089127" lon="5.574023">
        <ele>8.801149</ele>
        <time>2026-03-27T23:48:04.516Z</time>
      </trkpt>
      <trkpt lat="52.089528" lon="5.574981">
        <ele>8.907944</ele>
        <time>2026-03-27T23:48:19.553Z</time>
      </trkpt>
      <trkpt lat="52.089685" lon="5.575527">
        <ele>8.963482</ele>
        <time>2026-03-27T23:48:27.529Z</time>
      </trkpt>
      <trkpt lat="52.090001" lon="5.576765">
        <ele>8.915107</ele>
        <time>2026-03-27T23:48:44.395Z</time>
      </trkpt>
      <trkpt lat="52.090450" lon="5.575930">
        <ele>8.754487</ele>
        <time>2026-03-27T23:48:54.004Z</time>
      </trkpt>
      <trkpt lat="52.091117" lon="5.574987">
        <ele>8.552816</ele>
        <time>2026-03-27T23:49:05.517Z</time>
      </trkpt>
      <trkpt lat="52.092065" lon="5.573433">
        <ele>8.276850</ele>
        <time>2026-03-27T23:49:24.375Z</time>
      </trkpt>
      <trkpt lat="52.092144" lon="5.573344">
        <ele>8.257143</ele>
        <time>2026-03-27T23:49:25.807Z</time>
      </trkpt>
      <trkpt lat="52.092362" lon="5.573191">
        <ele>8.254437</ele>
        <time>2026-03-27T23:49:29.466Z</time>
      </trkpt>
      <trkpt lat="52.092767" lon="5.572980">
        <ele>8.378012</ele>
        <time>2026-03-27T23:49:36.185Z</time>
      </trkpt>
      <trkpt lat="52.093702" lon="5.572392">
        <ele>8.669299</ele>
        <time>2026-03-27T23:49:52.929Z</time>
      </trkpt>
      <trkpt lat="52.093963" lon="5.572174">
        <ele>8.751341</ele>
        <time>2026-03-27T23:49:57.592Z</time>
      </trkpt>
      <trkpt lat="52.094372" lon="5.571745">
        <ele>8.789319</ele>
        <time>2026-03-27T23:50:05.280Z</time>
      </trkpt>
      <trkpt lat="52.095542" lon="5.569718">
        <ele>8.858333</ele>
        <time>2026-03-27T23:50:30.546Z</time>
      </trkpt>
      <trkpt lat="52.095980" lon="5.568830">
        <ele>8.803583</ele>
        <time>2026-03-27T23:50:40.399Z</time>
      </trkpt>
      <trkpt lat="52.096218" lon="5.568527">
        <ele>8.779938</ele>
        <time>2026-03-27T23:50:44.779Z</time>
      </trkpt>
      <trkpt lat="52.096478" lon="5.568224">
        <ele>8.754914</ele>
        <time>2026-03-27T23:50:49.431Z</time>
      </trkpt>
      <trkpt lat="52.097000" lon="5.567473">
        <ele>8.759645</ele>
        <time>2026-03-27T23:50:59.777Z</time>
      </trkpt>
      <trkpt lat="52.097141" lon="5.567360">
        <ele>8.762097</ele>
        <time>2026-03-27T23:51:02.158Z</time>
      </trkpt>
      <trkpt lat="52.097328" lon="5.567278">
        <ele>8.765119</ele>
        <time>2026-03-27T23:51:05.110Z</time>
      </trkpt>
      <trkpt lat="52.096968" lon="5.565290">
        <ele>8.681918</ele>
        <time>2026-03-27T23:51:30.838Z</time>
      </trkpt>
      <trkpt lat="52.096959" lon="5.565070">
        <ele>8.653461</ele>
        <time>2026-03-27T23:51:33.492Z</time>
      </trkpt>
      <trkpt lat="52.096990" lon="5.564780">
        <ele>8.615470</ele>
        <time>2026-03-27T23:51:37.016Z</time>
      </trkpt>
      <trkpt lat="52.097310" lon="5.562610">
        <ele>8.338452</ele>
        <time>2026-03-27T23:52:03.191Z</time>
      </trkpt>
      <trkpt lat="52.097340" lon="5.562280">
        <ele>8.301929</ele>
        <time>2026-03-27T23:52:07.162Z</time>
      </trkpt>
      <trkpt lat="52.097221" lon="5.561968">
        <ele>8.261722</ele>
        <time>2026-03-27T23:52:11.527Z</time>
      </trkpt>
      <trkpt lat="52.096577" lon="5.561255">
        <ele>8.122919</ele>
        <time>2026-03-27T23:52:26.897Z</time>
      </trkpt>
      <trkpt lat="52.096355" lon="5.560970">
        <ele>8.076682</ele>
        <time>2026-03-27T23:52:32.580Z</time>
      </trkpt>
      <trkpt lat="52.096280" lon="5.560783">
        <ele>8.066932</ele>
        <time>2026-03-27T23:52:35.321Z</time>
      </trkpt>
      <trkpt lat="52.096222" lon="5.560548">
        <ele>8.055876</ele>
        <time>2026-03-27T23:52:38.424Z</time>
      </trkpt>
      <trkpt lat="52.096163" lon="5.560086">
        <ele>8.035276</ele>
        <time>2026-03-27T23:52:44.184Z</time>
      </trkpt>
      <trkpt lat="52.096061" lon="5.559023">
        <ele>7.988306</ele>
        <time>2026-03-27T23:52:57.412Z</time>
      </trkpt>
      <trkpt lat="52.095947" lon="5.558667">
        <ele>7.970780</ele>
        <time>2026-03-27T23:53:02.464Z</time>
      </trkpt>
      <trkpt lat="52.095862" lon="5.558530">
        <ele>7.962280</ele>
        <time>2026-03-27T23:53:04.894Z</time>
      </trkpt>
      <trkpt lat="52.095711" lon="5.558375">
        <ele>7.943769</ele>
        <time>2026-03-27T23:53:08.428Z</time>
      </trkpt>
      <trkpt lat="52.095334" lon="5.558060">
        <ele>7.827032</ele>
        <time>2026-03-27T23:53:16.695Z</time>
      </trkpt>
      <trkpt lat="52.094948" lon="5.557615">
        <ele>7.696732</ele>
        <time>2026-03-27T23:53:25.815Z</time>
      </trkpt>
      <trkpt lat="52.094384" lon="5.556881">
        <ele>7.497810</ele>
        <time>2026-03-27T23:53:39.319Z</time>
      </trkpt>
      <trkpt lat="52.093515" lon="5.555701">
        <ele>7.246066</ele>
        <time>2026-03-27T23:54:00.893Z</time>
      </trkpt>
      <trkpt lat="52.093222" lon="5.555200">
        <ele>7.155010</ele>
        <time>2026-03-27T23:54:09.270Z</time>
      </trkpt>
      <trkpt lat="52.093092" lon="5.554892">
        <ele>7.105818</ele>
        <time>2026-03-27T23:54:13.919Z</time>
      </trkpt>
      <trkpt lat="52.093070" lon="5.554834">
        <ele>7.096845</ele>
        <time>2026-03-27T23:54:14.567Z</time>
      </trkpt>
      <trkpt lat="52.092762" lon="5.554028">
        <ele>7.109937</ele>
        <time>2026-03-27T23:54:23.554Z</time>
      </trkpt>
      <trkpt lat="52.092564" lon="5.553556">
        <ele>7.139764</ele>
        <time>2026-03-27T23:54:28.854Z</time>
      </trkpt>
      <trkpt lat="52.092450" lon="5.553390">
        <ele>7.152757</ele>
        <time>2026-03-27T23:54:31.102Z</time>
      </trkpt>
      <trkpt lat="52.091364" lon="5.552289">
        <ele>7.262727</ele>
        <time>2026-03-27T23:54:50.544Z</time>
      </trkpt>
      <trkpt lat="52.091125" lon="5.552166">
        <ele>7.284745</ele>
        <time>2026-03-27T23:54:54.373Z</time>
      </trkpt>
      <trkpt lat="52.090200" lon="5.551988">
        <ele>7.366559</ele>
        <time>2026-03-27T23:55:08.629Z</time>
      </trkpt>
      <trkpt lat="52.089892" lon="5.551875">
        <ele>7.365097</ele>
        <time>2026-03-27T23:55:13.378Z</time>
      </trkpt>
      <trkpt lat="52.089416" lon="5.551475">
        <ele>7.304635</ele>
        <time>2026-03-27T23:55:21.277Z</time>
      </trkpt>
      <trkpt lat="52.087551" lon="5.550220">
        <ele>7.085993</ele>
        <time>2026-03-27T23:55:49.865Z</time>
      </trkpt>
      <trkpt lat="52.086567" lon="5.549413">
        <ele>6.965458</ele>
        <time>2026-03-27T23:56:05.945Z</time>
      </trkpt>
      <trkpt lat="52.086355" lon="5.549204">
        <ele>6.931067</ele>
        <time>2026-03-27T23:56:09.582Z</time>
      </trkpt>
      <trkpt lat="52.086240" lon="5.549031">
        <ele>6.909339</ele>
        <time>2026-03-27T23:56:11.837Z</time>
      </trkpt>
      <trkpt lat="52.085745" lon="5.548108">
        <ele>6.804891</ele>
        <time>2026-03-27T23:56:22.519Z</time>
      </trkpt>
      <trkpt lat="52.085584" lon="5.547857">
        <ele>6.773956</ele>
        <time>2026-03-27T23:56:25.683Z</time>
      </trkpt>
      <trkpt lat="52.085372" lon="5.547681">
        <ele>6.742310</ele>
        <time>2026-03-27T23:56:29.024Z</time>
      </trkpt>
      <trkpt lat="52.085217" lon="5.547594">
        <ele>6.729166</ele>
        <time>2026-03-27T23:56:31.346Z</time>
      </trkpt>
      <trkpt lat="52.084929" lon="5.547594">
        <ele>6.706078</ele>
        <time>2026-03-27T23:56:35.439Z</time>
      </trkpt>
      <trkpt lat="52.084678" lon="5.547723">
        <ele>6.684977</ele>
        <time>2026-03-27T23:56:39.224Z</time>
      </trkpt>
      <trkpt lat="52.084291" lon="5.548041">
        <ele>6.650221</ele>
        <time>2026-03-27T23:56:45.551Z</time>
      </trkpt>
      <trkpt lat="52.084194" lon="5.548117">
        <ele>6.641591</ele>
        <time>2026-03-27T23:56:47.729Z</time>
      </trkpt>
      <trkpt lat="52.083741" lon="5.548579">
        <ele>6.599644</ele>
        <time>2026-03-27T23:56:58.496Z</time>
      </trkpt>
      <trkpt lat="52.083125" lon="5.549301">
        <ele>6.582571</ele>
        <time>2026-03-27T23:57:13.762Z</time>
      </trkpt>
      <trkpt lat="52.082904" lon="5.549554">
        <ele>6.576494</ele>
        <time>2026-03-27T23:57:19.169Z</time>
      </trkpt>
      <trkpt lat="52.081923" lon="5.550680">
        <ele>6.661019</ele>
        <time>2026-03-27T23:57:43.361Z</time>
      </trkpt>
      <trkpt lat="52.081415" lon="5.551285">
        <ele>6.803918</ele>
        <time>2026-03-27T23:57:56.592Z</time>
      </trkpt>
      <trkpt lat="52.081276" lon="5.551486">
        <ele>6.846129</ele>
        <time>2026-03-27T23:58:00.641Z</time>
      </trkpt>
      <trkpt lat="52.081045" lon="5.551906">
        <ele>6.924757</ele>
        <time>2026-03-27T23:58:08.226Z</time>
      </trkpt>
      <trkpt lat="52.080988" lon="5.552005">
        <ele>6.943682</ele>
        <time>2026-03-27T23:58:10.078Z</time>
      </trkpt>
      <trkpt lat="52.080720" lon="5.552380">
        <ele>7.035848</ele>
        <time>2026-03-27T23:58:17.843Z</time>
      </trkpt>
      <trkpt lat="52.080480" lon="5.552604">
        <ele>7.112015</ele>
        <time>2026-03-27T23:58:23.972Z</time>
      </trkpt>
      <trkpt lat="52.078971" lon="5.553698">
        <ele>7.430165</ele>
        <time>2026-03-27T23:58:58.851Z</time>
      </trkpt>
      <trkpt lat="52.078835" lon="5.553752">
        <ele>7.417980</ele>
        <time>2026-03-27T23:59:01.572Z</time>
      </trkpt>
      <trkpt lat="52.078658" lon="5.553757">
        <ele>7.402570</ele>
        <time>2026-03-27T23:59:04.965Z</time>
      </trkpt>
      <trkpt lat="52.077608" lon="5.553504">
        <ele>7.310177</ele>
        <time>2026-03-27T23:59:25.706Z</time>
      </trkpt>
      <trkpt lat="52.077623" lon="5.554699">
        <ele>7.265510</ele>
        <time>2026-03-27T23:59:40.075Z</time>
      </trkpt>
      <trkpt lat="52.077341" lon="5.556020">
        <ele>7.214655</ele>
        <time>2026-03-28T00:00:48.381Z</time>
      </trkpt>
      <trkpt lat="52.077093" lon="5.556788">
        <ele>7.193276</ele>
        <time>2026-03-28T00:01:30.719Z</time>
      </trkpt>
      <trkpt lat="52.076725" lon="5.557590">
        <ele>7.178789</ele>
        <time>2026-03-28T00:02:19.703Z</time>
      </trkpt>
      <trkpt lat="52.076434" lon="5.558360">
        <ele>7.165706</ele>
        <time>2026-03-28T00:03:03.758Z</time>
      </trkpt>
      <trkpt lat="52.076208" lon="5.558641">
        <ele>7.159007</ele>
        <time>2026-03-28T00:03:26.218Z</time>
      </trkpt>
      <trkpt lat="52.075838" lon="5.558846">
        <ele>7.186954</ele>
        <time>2026-03-28T00:03:57.101Z</time>
      </trkpt>
      <trkpt lat="52.075777" lon="5.558950">
        <ele>7.194734</ele>
        <time>2026-03-28T00:04:04.106Z</time>
      </trkpt>
      <trkpt lat="52.075650" lon="5.559675">
        <ele>7.235537</ele>
        <time>2026-03-28T00:04:40.863Z</time>
      </trkpt>
      <trkpt lat="52.075603" lon="5.560076">
        <ele>7.257632</ele>
        <time>2026-03-28T00:05:00.968Z</time>
      </trkpt>
      <trkpt lat="52.075605" lon="5.560352">
        <ele>7.272571</ele>
        <time>2026-03-28T00:05:14.587Z</time>
      </trkpt>
      <trkpt lat="52.075631" lon="5.560517">
        <ele>7.281790</ele>
        <time>2026-03-28T00:05:23.010Z</time>
      </trkpt>
      <trkpt lat="52.075915" lon="5.561523">
        <ele>7.314981</ele>
        <time>2026-03-28T00:06:17.839Z</time>
      </trkpt>
      <trkpt lat="52.075972" lon="5.561818">
        <ele>7.314297</ele>
        <time>2026-03-28T00:06:33.125Z</time>
      </trkpt>
      <trkpt lat="52.075958" lon="5.562060">
        <ele>7.313759</ele>
        <time>2026-03-28T00:06:45.106Z</time>
      </trkpt>
      <trkpt lat="52.075718" lon="5.561995">
        <ele>7.312883</ele>
        <time>2026-03-28T00:06:54.245Z</time>
      </trkpt>
      <trkpt lat="52.073324" lon="5.561349">
        <ele>7.106709</ele>
        <time>2026-03-28T00:08:22.103Z</time>
      </trkpt>
      <trkpt lat="52.073062" lon="5.561112">
        <ele>7.066706</ele>
        <time>2026-03-28T00:08:33.520Z</time>
      </trkpt>
      <trkpt lat="52.072238" lon="5.560272">
        <ele>7.065103</ele>
        <time>2026-03-28T00:09:01.308Z</time>
      </trkpt>
      <trkpt lat="52.071899" lon="5.559933">
        <ele>7.064447</ele>
        <time>2026-03-28T00:09:12.396Z</time>
      </trkpt>
      <trkpt lat="52.070983" lon="5.559014">
        <ele>6.961190</ele>
        <time>2026-03-28T00:09:41.036Z</time>
      </trkpt>
      <trkpt lat="52.070325" lon="5.559448">
        <ele>6.849400</ele>
        <time>2026-03-28T00:10:00.065Z</time>
      </trkpt>
      <trkpt lat="52.068883" lon="5.560398">
        <ele>6.918063</ele>
        <time>2026-03-28T00:10:43.952Z</time>
      </trkpt>
      <trkpt lat="52.068598" lon="5.560570">
        <ele>6.955433</ele>
        <time>2026-03-28T00:10:52.617Z</time>
      </trkpt>
      <trkpt lat="52.068517" lon="5.560572">
        <ele>6.965392</ele>
        <time>2026-03-28T00:10:54.925Z</time>
      </trkpt>
      <trkpt lat="52.068493" lon="5.560851">
        <ele>6.986681</ele>
        <time>2026-03-28T00:11:01.473Z</time>
      </trkpt>
      <trkpt lat="52.067767" lon="5.560806">
        <ele>7.130347</ele>
        <time>2026-03-28T00:11:12.785Z</time>
      </trkpt>
      <trkpt lat="52.067304" lon="5.560778">
        <ele>7.228958</ele>
        <time>2026-03-28T00:11:20.087Z</time>
      </trkpt>
      <trkpt lat="52.067059" lon="5.560673">
        <ele>7.282882</ele>
        <time>2026-03-28T00:11:24.189Z</time>
      </trkpt>
      <trkpt lat="52.067078" lon="5.560542">
        <ele>7.300492</ele>
        <time>2026-03-28T00:11:25.536Z</time>
      </trkpt>
      <trkpt lat="52.066446" lon="5.560392">
        <ele>7.311129</ele>
        <time>2026-03-28T00:11:39.024Z</time>
      </trkpt>
      <trkpt lat="52.066198" lon="5.560248">
        <ele>7.231973</ele>
        <time>2026-03-28T00:11:46.368Z</time>
      </trkpt>
      <trkpt lat="52.066066" lon="5.560220">
        <ele>7.191958</ele>
        <time>2026-03-28T00:11:50.044Z</time>
      </trkpt>
      <trkpt lat="52.065744" lon="5.560179">
        <ele>7.094868</ele>
        <time>2026-03-28T00:11:58.788Z</time>
      </trkpt>
      <trkpt lat="52.065425" lon="5.560154">
        <ele>6.998865</ele>
        <time>2026-03-28T00:12:07.163Z</time>
      </trkpt>
      <trkpt lat="52.064245" lon="5.560063">
        <ele>6.495307</ele>
        <time>2026-03-28T00:12:36.793Z</time>
      </trkpt>
      <trkpt lat="52.063818" lon="5.559982">
        <ele>6.270188</ele>
        <time>2026-03-28T00:12:47.867Z</time>
      </trkpt>
      <trkpt lat="52.062767" lon="5.559777">
        <ele>5.953605</ele>
        <time>2026-03-28T00:13:16.518Z</time>
      </trkpt>
      <trkpt lat="52.062172" lon="5.559744">
        <ele>6.040185</ele>
        <time>2026-03-28T00:13:33.408Z</time>
      </trkpt>
      <trkpt lat="52.059598" lon="5.559600">
        <ele>6.749267</ele>
        <time>2026-03-28T00:14:48.290Z</time>
      </trkpt>
      <trkpt lat="52.059297" lon="5.559541">
        <ele>6.820366</ele>
        <time>2026-03-28T00:14:57.298Z</time>
      </trkpt>
      <trkpt lat="52.059166" lon="5.559483">
        <ele>6.847854</ele>
        <time>2026-03-28T00:15:01.315Z</time>
      </trkpt>
      <trkpt lat="52.059088" lon="5.559414">
        <ele>6.865831</ele>
        <time>2026-03-28T00:15:03.961Z</time>
      </trkpt>
      <trkpt lat="52.059020" lon="5.559276">
        <ele>6.887847</ele>
        <time>2026-03-28T00:15:07.148Z</time>
      </trkpt>
      <trkpt lat="52.058898" lon="5.559425">
        <ele>6.918737</ele>
        <time>2026-03-28T00:15:09.645Z</time>
      </trkpt>
      <trkpt lat="52.058858" lon="5.559330">
        <ele>6.933070</ele>
        <time>2026-03-28T00:15:10.787Z</time>
      </trkpt>
      <trkpt lat="52.058814" lon="5.559242">
        <ele>6.947190</ele>
        <time>2026-03-28T00:15:11.918Z</time>
      </trkpt>
      <trkpt lat="52.058504" lon="5.559182">
        <ele>7.010398</ele>
        <time>2026-03-28T00:15:20.972Z</time>
      </trkpt>
      <trkpt lat="52.057865" lon="5.558978">
        <ele>7.134187</ele>
        <time>2026-03-28T00:15:38.965Z</time>
      </trkpt>
      <trkpt lat="52.056352" lon="5.558643">
        <ele>6.912971</ele>
        <time>2026-03-28T00:16:20.112Z</time>
      </trkpt>
      <trkpt lat="52.054766" lon="5.558512">
        <ele>7.107312</ele>
        <time>2026-03-28T00:17:05.001Z</time>
      </trkpt>
      <trkpt lat="52.054023" lon="5.558381">
        <ele>7.272790</ele>
        <time>2026-03-28T00:17:26.906Z</time>
      </trkpt>
      <trkpt lat="52.052595" lon="5.558055">
        <ele>7.705673</ele>
        <time>2026-03-28T00:18:08.763Z</time>
      </trkpt>
      <trkpt lat="52.051309" lon="5.557643">
        <ele>7.902027</ele>
        <time>2026-03-28T00:18:46.530Z</time>
      </trkpt>
      <trkpt lat="52.050697" lon="5.557447">
        <ele>7.976074</ele>
        <time>2026-03-28T00:19:03.645Z</time>
      </trkpt>
      <trkpt lat="52.050512" lon="5.557399">
        <ele>7.963061</ele>
        <time>2026-03-28T00:19:06.230Z</time>
      </trkpt>
      <trkpt lat="52.050436" lon="5.557443">
        <ele>7.957458</ele>
        <time>2026-03-28T00:19:07.344Z</time>
      </trkpt>
      <trkpt lat="52.050380" lon="5.557579">
        <ele>7.950466</ele>
        <time>2026-03-28T00:19:08.738Z</time>
      </trkpt>
      <trkpt lat="52.050242" lon="5.558350">
        <ele>7.916166</ele>
        <time>2026-03-28T00:19:15.619Z</time>
      </trkpt>
      <trkpt lat="52.050195" lon="5.558483">
        <ele>7.909614</ele>
        <time>2026-03-28T00:19:16.924Z</time>
      </trkpt>
      <trkpt lat="52.050096" lon="5.558639">
        <ele>7.900038</ele>
        <time>2026-03-28T00:19:18.864Z</time>
      </trkpt>
      <trkpt lat="52.050002" lon="5.558677">
        <ele>7.893310</ele>
        <time>2026-03-28T00:19:20.262Z</time>
      </trkpt>
      <trkpt lat="52.049942" lon="5.558664">
        <ele>7.889106</ele>
        <time>2026-03-28T00:19:21.120Z</time>
      </trkpt>
      <trkpt lat="52.049423" lon="5.558301">
        <ele>7.886283</ele>
        <time>2026-03-28T00:19:29.727Z</time>
      </trkpt>
      <trkpt lat="52.049341" lon="5.558316">
        <ele>7.915559</ele>
        <time>2026-03-28T00:19:31.067Z</time>
      </trkpt>
      <trkpt lat="52.049256" lon="5.558398">
        <ele>7.950624</ele>
        <time>2026-03-28T00:19:32.720Z</time>
      </trkpt>
      <trkpt lat="52.049233" lon="5.558421">
        <ele>7.960204</ele>
        <time>2026-03-28T00:19:33.175Z</time>
      </trkpt>
      <trkpt lat="52.049060" lon="5.558546">
        <ele>8.027368</ele>
        <time>2026-03-28T00:19:36.487Z</time>
      </trkpt>
      <trkpt lat="52.048852" lon="5.558567">
        <ele>8.101305</ele>
        <time>2026-03-28T00:19:40.257Z</time>
      </trkpt>
      <trkpt lat="52.048868" lon="5.558178">
        <ele>8.186371</ele>
        <time>2026-03-28T00:19:44.521Z</time>
      </trkpt>
      <trkpt lat="52.048877" lon="5.558052">
        <ele>8.214047</ele>
        <time>2026-03-28T00:19:45.879Z</time>
      </trkpt>
      <trkpt lat="52.048878" lon="5.558038">
        <ele>8.217122</ele>
        <time>2026-03-28T00:19:46.029Z</time>
      </trkpt>
      <trkpt lat="52.048881" lon="5.557973">
        <ele>8.231344</ele>
        <time>2026-03-28T00:19:46.692Z</time>
      </trkpt>
      <trkpt lat="52.048907" lon="5.557648">
        <ele>8.302853</ele>
        <time>2026-03-28T00:19:51.117Z</time>
      </trkpt>
      <trkpt lat="52.048939" lon="5.557460">
        <ele>8.345415</ele>
        <time>2026-03-28T00:19:53.692Z</time>
      </trkpt>
      <trkpt lat="52.049051" lon="5.556789">
        <ele>8.492025</ele>
        <time>2026-03-28T00:20:02.530Z</time>
      </trkpt>
      <trkpt lat="52.049088" lon="5.556575">
        <ele>8.462367</ele>
        <time>2026-03-28T00:20:05.256Z</time>
      </trkpt>
      <trkpt lat="52.049256" lon="5.555550">
        <ele>8.320841</ele>
        <time>2026-03-28T00:20:56.397Z</time>
      </trkpt>
      <trkpt lat="52.049396" lon="5.554446">
        <ele>8.170450</ele>
        <time>2026-03-28T00:21:50.411Z</time>
      </trkpt>
      <trkpt lat="52.049546" lon="5.552785">
        <ele>7.958186</ele>
        <time>2026-03-28T00:23:11.977Z</time>
      </trkpt>
      <trkpt lat="52.049582" lon="5.552630">
        <ele>7.937728</ele>
        <time>2026-03-28T00:23:20.049Z</time>
      </trkpt>
      <trkpt lat="52.049720" lon="5.552486">
        <ele>7.904806</ele>
        <time>2026-03-28T00:23:33.074Z</time>
      </trkpt>
      <trkpt lat="52.049802" lon="5.552297">
        <ele>7.876246</ele>
        <time>2026-03-28T00:23:44.268Z</time>
      </trkpt>
      <trkpt lat="52.049809" lon="5.552209">
        <ele>7.865289</ele>
        <time>2026-03-28T00:23:48.573Z</time>
      </trkpt>
      <trkpt lat="52.049875" lon="5.550574">
        <ele>7.568847</ele>
        <time>2026-03-28T00:25:07.333Z</time>
      </trkpt>
      <trkpt lat="52.049903" lon="5.549894">
        <ele>7.385244</ele>
        <time>2026-03-28T00:25:18.176Z</time>
      </trkpt>
      <trkpt lat="52.050485" lon="5.548175">
        <ele>6.908021</ele>
        <time>2026-03-28T00:25:49.474Z</time>
      </trkpt>
      <trkpt lat="52.051493" lon="5.545494">
        <ele>6.604471</ele>
        <time>2026-03-28T00:26:42.383Z</time>
      </trkpt>
      <trkpt lat="52.051533" lon="5.545306">
        <ele>6.612914</ele>
        <time>2026-03-28T00:26:45.788Z</time>
      </trkpt>
      <trkpt lat="52.051499" lon="5.545123">
        <ele>6.621028</ele>
        <time>2026-03-28T00:26:49.064Z</time>
      </trkpt>
      <trkpt lat="52.051346" lon="5.544920">
        <ele>6.634656</ele>
        <time>2026-03-28T00:26:54.579Z</time>
      </trkpt>
      <trkpt lat="52.050902" lon="5.543490">
        <ele>6.702646</ele>
        <time>2026-03-28T00:27:22.566Z</time>
      </trkpt>
      <trkpt lat="52.050259" lon="5.542450">
        <ele>6.715000</ele>
        <time>2026-03-28T00:27:48.314Z</time>
      </trkpt>
      <trkpt lat="52.050232" lon="5.542370">
        <ele>6.715700</ele>
        <time>2026-03-28T00:27:49.902Z</time>
      </trkpt>
      <trkpt lat="52.049627" lon="5.541439">
        <ele>6.726088</ele>
        <time>2026-03-28T00:28:55.606Z</time>
      </trkpt>
      <trkpt lat="52.048997" lon="5.540483">
        <ele>6.850020</ele>
        <time>2026-03-28T00:30:04.050Z</time>
      </trkpt>
      <trkpt lat="52.048892" lon="5.540330">
        <ele>6.870762</ele>
        <time>2026-03-28T00:30:15.522Z</time>
      </trkpt>
      <trkpt lat="52.048661" lon="5.539992">
        <ele>6.916480</ele>
        <time>2026-03-28T00:30:40.723Z</time>
      </trkpt>
      <trkpt lat="52.048057" lon="5.539281">
        <ele>6.988440</ele>
        <time>2026-03-28T00:31:40.525Z</time>
      </trkpt>
      <trkpt lat="52.047984" lon="5.539481">
        <ele>6.986932</ele>
        <time>2026-03-28T00:31:42.665Z</time>
      </trkpt>
      <trkpt lat="52.047576" lon="5.540593">
        <ele>6.978535</ele>
        <time>2026-03-28T00:31:54.084Z</time>
      </trkpt>
      <trkpt lat="52.047518" lon="5.540675">
        <ele>6.977725</ele>
        <time>2026-03-28T00:31:55.131Z</time>
      </trkpt>
      <trkpt lat="52.047417" lon="5.540699">
        <ele>6.976648</ele>
        <time>2026-03-28T00:31:56.495Z</time>
      </trkpt>
      <trkpt lat="52.044840" lon="5.538525">
        <ele>7.292553</ele>
        <time>2026-03-28T00:32:40.942Z</time>
      </trkpt>
      <trkpt lat="52.043822" lon="5.537648">
        <ele>7.565368</ele>
        <time>2026-03-28T00:32:59.386Z</time>
      </trkpt>
      <trkpt lat="52.043643" lon="5.537475">
        <ele>7.610207</ele>
        <time>2026-03-28T00:33:02.643Z</time>
      </trkpt>
      <trkpt lat="52.043527" lon="5.537250">
        <ele>7.649089</ele>
        <time>2026-03-28T00:33:05.434Z</time>
      </trkpt>
      <trkpt lat="52.043478" lon="5.537013">
        <ele>7.682202</ele>
        <time>2026-03-28T00:33:07.813Z</time>
      </trkpt>
      <trkpt lat="52.043486" lon="5.536506">
        <ele>7.749370</ele>
        <time>2026-03-28T00:33:12.802Z</time>
      </trkpt>
      <trkpt lat="52.043513" lon="5.535608">
        <ele>7.868441</ele>
        <time>2026-03-28T00:33:22.042Z</time>
      </trkpt>
      <trkpt lat="52.043557" lon="5.535609">
        <ele>7.877916</ele>
        <time>2026-03-28T00:33:23.014Z</time>
      </trkpt>
      <trkpt lat="52.043555" lon="5.535406">
        <ele>7.904804</ele>
        <time>2026-03-28T00:33:24.987Z</time>
      </trkpt>
      <trkpt lat="52.043494" lon="5.535154">
        <ele>7.940670</ele>
        <time>2026-03-28T00:33:27.539Z</time>
      </trkpt>
      <trkpt lat="52.043409" lon="5.535000">
        <ele>7.897846</ele>
        <time>2026-03-28T00:33:29.394Z</time>
      </trkpt>
      <trkpt lat="52.043305" lon="5.534901">
        <ele>7.828316</ele>
        <time>2026-03-28T00:33:31.062Z</time>
      </trkpt>
      <trkpt lat="52.043166" lon="5.534882">
        <ele>7.747837</ele>
        <time>2026-03-28T00:33:32.876Z</time>
      </trkpt>
      <trkpt lat="52.042844" lon="5.534851">
        <ele>7.561734</ele>
        <time>2026-03-28T00:33:38.723Z</time>
      </trkpt>
      <trkpt lat="52.042427" lon="5.534788">
        <ele>7.320110</ele>
        <time>2026-03-28T00:33:44.158Z</time>
      </trkpt>
      <trkpt lat="52.042272" lon="5.534679">
        <ele>7.222676</ele>
        <time>2026-03-28T00:33:46.279Z</time>
      </trkpt>
      <trkpt lat="52.042221" lon="5.534706">
        <ele>7.191731</ele>
        <time>2026-03-28T00:33:46.928Z</time>
      </trkpt>
      <trkpt lat="52.042138" lon="5.534562">
        <ele>7.121699</ele>
        <time>2026-03-28T00:33:48.415Z</time>
      </trkpt>
      <trkpt lat="52.041372" lon="5.532495">
        <ele>6.432246</ele>
        <time>2026-03-28T00:34:07.090Z</time>
      </trkpt>
      <trkpt lat="52.040959" lon="5.531373">
        <ele>6.144600</ele>
        <time>2026-03-28T00:34:19.756Z</time>
      </trkpt>
      <trkpt lat="52.040775" lon="5.530826">
        <ele>6.153484</ele>
        <time>2026-03-28T00:34:25.668Z</time>
      </trkpt>
      <trkpt lat="52.040675" lon="5.530383">
        <ele>6.160208</ele>
        <time>2026-03-28T00:34:30.000Z</time>
      </trkpt>
      <trkpt lat="52.040655" lon="5.530239">
        <ele>6.162312</ele>
        <time>2026-03-28T00:34:31.369Z</time>
      </trkpt>
      <trkpt lat="52.040474" lon="5.528942">
        <ele>6.181264</ele>
        <time>2026-03-28T00:34:43.704Z</time>
      </trkpt>
      <trkpt lat="52.040463" lon="5.528884">
        <ele>6.182129</ele>
        <time>2026-03-28T00:34:44.218Z</time>
      </trkpt>
      <trkpt lat="52.040401" lon="5.528719">
        <ele>6.164145</ele>
        <time>2026-03-28T00:34:45.906Z</time>
      </trkpt>
      <trkpt lat="52.040263" lon="5.528569">
        <ele>6.115377</ele>
        <time>2026-03-28T00:34:48.161Z</time>
      </trkpt>
      <trkpt lat="52.040153" lon="5.528486">
        <ele>6.079752</ele>
        <time>2026-03-28T00:34:49.790Z</time>
      </trkpt>
      <trkpt lat="52.039915" lon="5.528437">
        <ele>6.009275</ele>
        <time>2026-03-28T00:34:53.014Z</time>
      </trkpt>
      <trkpt lat="52.039434" lon="5.528215">
        <ele>5.862387</ele>
        <time>2026-03-28T00:34:59.822Z</time>
      </trkpt>
      <trkpt lat="52.038664" lon="5.527659">
        <ele>5.670128</ele>
        <time>2026-03-28T00:35:11.324Z</time>
      </trkpt>
      <trkpt lat="52.038245" lon="5.527340">
        <ele>5.721480</ele>
        <time>2026-03-28T00:35:17.752Z</time>
      </trkpt>
      <trkpt lat="52.036105" lon="5.525667">
        <ele>6.340513</ele>
        <time>2026-03-28T00:35:56.497Z</time>
      </trkpt>
      <trkpt lat="52.035568" lon="5.525264">
        <ele>6.585075</ele>
        <time>2026-03-28T00:36:06.279Z</time>
      </trkpt>
      <trkpt lat="52.034704" lon="5.524627">
        <ele>6.980497</ele>
        <time>2026-03-28T00:36:21.862Z</time>
      </trkpt>
      <trkpt lat="52.031931" lon="5.522604">
        <ele>7.990987</ele>
        <time>2026-03-28T00:37:11.711Z</time>
      </trkpt>
      <trkpt lat="52.031875" lon="5.522564">
        <ele>7.987487</ele>
        <time>2026-03-28T00:37:12.606Z</time>
      </trkpt>
      <trkpt lat="52.031078" lon="5.522010">
        <ele>7.937882</ele>
        <time>2026-03-28T00:37:24.729Z</time>
      </trkpt>
      <trkpt lat="52.030615" lon="5.521639">
        <ele>7.909000</ele>
        <time>2026-03-28T00:37:31.796Z</time>
      </trkpt>
      <trkpt lat="52.026178" lon="5.518197">
        <ele>8.352845</ele>
        <time>2026-03-28T00:38:47.170Z</time>
      </trkpt>
      <trkpt lat="52.026069" lon="5.518175">
        <ele>8.362337</ele>
        <time>2026-03-28T00:38:48.854Z</time>
      </trkpt>
      <trkpt lat="52.026009" lon="5.518204">
        <ele>8.367746</ele>
        <time>2026-03-28T00:38:49.802Z</time>
      </trkpt>
      <trkpt lat="52.025958" lon="5.518229">
        <ele>8.372349</ele>
        <time>2026-03-28T00:38:50.597Z</time>
      </trkpt>
      <trkpt lat="52.025933" lon="5.518000">
        <ele>8.384715</ele>
        <time>2026-03-28T00:38:53.480Z</time>
      </trkpt>
      <trkpt lat="52.025755" lon="5.517856">
        <ele>8.401699</ele>
        <time>2026-03-28T00:38:58.997Z</time>
      </trkpt>
      <trkpt lat="52.025297" lon="5.517511">
        <ele>8.444240</ele>
        <time>2026-03-28T00:39:13.034Z</time>
      </trkpt>
      <trkpt lat="52.024954" lon="5.517245">
        <ele>8.476269</ele>
        <time>2026-03-28T00:39:23.540Z</time>
      </trkpt>
      <trkpt lat="52.023422" lon="5.516059">
        <ele>8.682798</ele>
        <time>2026-03-28T00:40:11.961Z</time>
      </trkpt>
      <trkpt lat="52.022900" lon="5.515636">
        <ele>8.774261</ele>
        <time>2026-03-28T00:40:28.664Z</time>
      </trkpt>
      <trkpt lat="52.022048" lon="5.514949">
        <ele>8.852155</ele>
        <time>2026-03-28T00:40:55.370Z</time>
      </trkpt>
      <trkpt lat="52.020058" lon="5.513435">
        <ele>8.987107</ele>
        <time>2026-03-28T00:41:56.238Z</time>
      </trkpt>
      <trkpt lat="52.019360" lon="5.512983">
        <ele>9.051897</ele>
        <time>2026-03-28T00:42:17.746Z</time>
      </trkpt>
      <trkpt lat="52.019200" lon="5.512799">
        <ele>9.088974</ele>
        <time>2026-03-28T00:42:23.394Z</time>
      </trkpt>
      <trkpt lat="52.019063" lon="5.512533">
        <ele>9.134473</ele>
        <time>2026-03-28T00:42:29.579Z</time>
      </trkpt>
      <trkpt lat="52.019054" lon="5.512327">
        <ele>9.161563</ele>
        <time>2026-03-28T00:42:33.263Z</time>
      </trkpt>
      <trkpt lat="52.017964" lon="5.510994">
        <ele>9.437311</ele>
        <time>2026-03-28T00:43:12.751Z</time>
      </trkpt>
      <trkpt lat="52.017572" lon="5.510572">
        <ele>9.428914</ele>
        <time>2026-03-28T00:43:25.707Z</time>
      </trkpt>
      <trkpt lat="52.016863" lon="5.510011">
        <ele>9.414832</ele>
        <time>2026-03-28T00:43:47.340Z</time>
      </trkpt>
      <trkpt lat="52.016625" lon="5.509829">
        <ele>9.410135</ele>
        <time>2026-03-28T00:43:54.595Z</time>
      </trkpt>
      <trkpt lat="52.016613" lon="5.509820">
        <ele>9.409899</ele>
        <time>2026-03-28T00:43:54.939Z</time>
      </trkpt>
      <trkpt lat="52.016588" lon="5.509803">
        <ele>9.409415</ele>
        <time>2026-03-28T00:43:55.678Z</time>
      </trkpt>
      <trkpt lat="52.016075" lon="5.509407">
        <ele>9.413682</ele>
        <time>2026-03-28T00:44:11.415Z</time>
      </trkpt>
      <trkpt lat="52.015912" lon="5.509220">
        <ele>9.417370</ele>
        <time>2026-03-28T00:44:17.014Z</time>
      </trkpt>
      <trkpt lat="52.015806" lon="5.508915">
        <ele>9.421353</ele>
        <time>2026-03-28T00:44:23.086Z</time>
      </trkpt>
      <trkpt lat="52.015611" lon="5.507834">
        <ele>9.434165</ele>
        <time>2026-03-28T00:44:42.358Z</time>
      </trkpt>
      <trkpt lat="52.015380" lon="5.506317">
        <ele>9.462030</ele>
        <time>2026-03-28T00:45:09.151Z</time>
      </trkpt>
      <trkpt lat="52.015277" lon="5.505814">
        <ele>9.472988</ele>
        <time>2026-03-28T00:45:18.200Z</time>
      </trkpt>
      <trkpt lat="52.014814" lon="5.504127">
        <ele>9.510710</ele>
        <time>2026-03-28T00:45:50.180Z</time>
      </trkpt>
      <trkpt lat="52.014428" lon="5.502721">
        <ele>9.541227</ele>
        <time>2026-03-28T00:46:16.210Z</time>
      </trkpt>
      <trkpt lat="52.012507" lon="5.502426">
        <ele>9.945456</ele>
        <time>2026-03-28T00:48:50.383Z</time>
      </trkpt>
      <trkpt lat="52.012405" lon="5.502372">
        <ele>9.974920</ele>
        <time>2026-03-28T00:48:59.298Z</time>
      </trkpt>
      <trkpt lat="52.012279" lon="5.502230">
        <ele>10.017037</ele>
        <time>2026-03-28T00:49:11.965Z</time>
      </trkpt>
      <trkpt lat="52.012106" lon="5.501917">
        <ele>10.176116</ele>
        <time>2026-03-28T00:49:33.320Z</time>
      </trkpt>
      <trkpt lat="52.011703" lon="5.501108">
        <ele>10.779327</ele>
        <time>2026-03-28T00:49:44.885Z</time>
      </trkpt>
      <trkpt lat="52.011381" lon="5.501145">
        <ele>11.083296</ele>
        <time>2026-03-28T00:49:50.977Z</time>
      </trkpt>
      <trkpt lat="52.010993" lon="5.501209">
        <ele>11.450536</ele>
        <time>2026-03-28T00:49:58.298Z</time>
      </trkpt>
      <trkpt lat="52.007982" lon="5.501917">
        <ele>15.216544</ele>
        <time>2026-03-28T00:50:58.962Z</time>
      </trkpt>
      <trkpt lat="52.006256" lon="5.502323">
        <ele>17.089562</ele>
        <time>2026-03-28T00:51:33.966Z</time>
      </trkpt>
      <trkpt lat="52.006136" lon="5.502354">
        <ele>17.192867</ele>
        <time>2026-03-28T00:51:36.103Z</time>
      </trkpt>
      <trkpt lat="52.006159" lon="5.502427">
        <ele>17.235785</ele>
        <time>2026-03-28T00:51:37.166Z</time>
      </trkpt>
      <trkpt lat="52.006913" lon="5.504799">
        <ele>18.537781</ele>
        <time>2026-03-28T00:52:03.760Z</time>
      </trkpt>
      <trkpt lat="52.007350" lon="5.506278">
        <ele>19.320343</ele>
        <time>2026-03-28T00:52:23.335Z</time>
      </trkpt>
      <trkpt lat="52.007738" lon="5.507589">
        <ele>20.259728</ele>
        <time>2026-03-28T00:52:40.904Z</time>
      </trkpt>
      <trkpt lat="52.008631" lon="5.510805">
        <ele>21.869536</ele>
        <time>2026-03-28T00:53:20.784Z</time>
      </trkpt>
      <trkpt lat="52.008759" lon="5.510968">
        <ele>21.960917</ele>
        <time>2026-03-28T00:53:23.520Z</time>
      </trkpt>
      <trkpt lat="52.009215" lon="5.512596">
        <ele>21.046767</ele>
        <time>2026-03-28T00:53:38.026Z</time>
      </trkpt>
      <trkpt lat="52.009246" lon="5.512730">
        <ele>20.934926</ele>
        <time>2026-03-28T00:53:39.038Z</time>
      </trkpt>
      <trkpt lat="52.010151" lon="5.515551">
        <ele>17.897380</ele>
        <time>2026-03-28T00:54:00.312Z</time>
      </trkpt>
      <trkpt lat="52.010365" lon="5.516215">
        <ele>17.076934</ele>
        <time>2026-03-28T00:54:05.587Z</time>
      </trkpt>
      <trkpt lat="52.011039" lon="5.517921">
        <ele>16.029712</ele>
        <time>2026-03-28T00:54:20.941Z</time>
      </trkpt>
      <trkpt lat="52.011199" lon="5.518336">
        <ele>15.848625</ele>
        <time>2026-03-28T00:54:26.410Z</time>
      </trkpt>
      <trkpt lat="52.011211" lon="5.518458">
        <ele>15.802937</ele>
        <time>2026-03-28T00:54:27.817Z</time>
      </trkpt>
      <trkpt lat="52.011107" lon="5.520008">
        <ele>15.716888</ele>
        <time>2026-03-28T00:54:48.181Z</time>
      </trkpt>
      <trkpt lat="52.011031" lon="5.521576">
        <ele>16.025259</ele>
        <time>2026-03-28T00:55:10.118Z</time>
      </trkpt>
      <trkpt lat="52.010968" lon="5.522439">
        <ele>15.995387</ele>
        <time>2026-03-28T00:55:21.292Z</time>
      </trkpt>
      <trkpt lat="52.010931" lon="5.523049">
        <ele>15.798045</ele>
        <time>2026-03-28T00:55:28.448Z</time>
      </trkpt>
      <trkpt lat="52.010877" lon="5.523917">
        <ele>15.517166</ele>
        <time>2026-03-28T00:55:37.969Z</time>
      </trkpt>
      <trkpt lat="52.010761" lon="5.525852">
        <ele>15.153694</ele>
        <time>2026-03-28T00:55:59.169Z</time>
      </trkpt>
      <trkpt lat="52.010741" lon="5.525962">
        <ele>15.150442</ele>
        <time>2026-03-28T00:56:00.485Z</time>
      </trkpt>
      <trkpt lat="52.010622" lon="5.526390">
        <ele>15.137126</ele>
        <time>2026-03-28T00:56:06.155Z</time>
      </trkpt>
      <trkpt lat="52.010506" lon="5.526635">
        <ele>15.128362</ele>
        <time>2026-03-28T00:56:10.171Z</time>
      </trkpt>
      <trkpt lat="52.010272" lon="5.527050">
        <ele>15.112404</ele>
        <time>2026-03-28T00:56:17.880Z</time>
      </trkpt>
      <trkpt lat="52.009512" lon="5.527759">
        <ele>15.506909</ele>
        <time>2026-03-28T00:56:38.014Z</time>
      </trkpt>
      <trkpt lat="52.009496" lon="5.527776">
        <ele>15.521885</ele>
        <time>2026-03-28T00:56:38.475Z</time>
      </trkpt>
      <trkpt lat="52.008637" lon="5.528651">
        <ele>16.316124</ele>
        <time>2026-03-28T00:57:02.703Z</time>
      </trkpt>
      <trkpt lat="52.008553" lon="5.528773">
        <ele>16.404389</ele>
        <time>2026-03-28T00:57:05.194Z</time>
      </trkpt>
      <trkpt lat="52.008406" lon="5.529169">
        <ele>16.586416</ele>
        <time>2026-03-28T00:57:11.528Z</time>
      </trkpt>
      <trkpt lat="52.007976" lon="5.531246">
        <ele>17.288915</ele>
        <time>2026-03-28T00:57:42.408Z</time>
      </trkpt>
      <trkpt lat="52.007944" lon="5.531517">
        <ele>17.377377</ele>
        <time>2026-03-28T00:57:46.098Z</time>
      </trkpt>
      <trkpt lat="52.007941" lon="5.531972">
        <ele>17.362586</ele>
        <time>2026-03-28T00:57:51.938Z</time>
      </trkpt>
      <trkpt lat="52.008105" lon="5.532932">
        <ele>17.051059</ele>
        <time>2026-03-28T00:58:03.545Z</time>
      </trkpt>
      <trkpt lat="52.008121" lon="5.533173">
        <ele>16.975264</ele>
        <time>2026-03-28T00:58:06.220Z</time>
      </trkpt>
      <trkpt lat="52.008077" lon="5.533398">
        <ele>16.901444</ele>
        <time>2026-03-28T00:58:08.802Z</time>
      </trkpt>
      <trkpt lat="52.007719" lon="5.534390">
        <ele>16.541876</ele>
        <time>2026-03-28T00:58:21.096Z</time>
      </trkpt>
      <trkpt lat="52.007133" lon="5.536494">
        <ele>16.107471</ele>
        <time>2026-03-28T00:58:47.920Z</time>
      </trkpt>
      <trkpt lat="52.007037" lon="5.536729">
        <ele>16.055094</ele>
        <time>2026-03-28T00:58:51.675Z</time>
      </trkpt>
      <trkpt lat="52.006556" lon="5.537828">
        <ele>15.899201</ele>
        <time>2026-03-28T00:59:08.451Z</time>
      </trkpt>
      <trkpt lat="52.006308" lon="5.538367">
        <ele>15.839524</ele>
        <time>2026-03-28T00:59:16.676Z</time>
      </trkpt>
      <trkpt lat="52.006239" lon="5.538507">
        <ele>15.823620</ele>
        <time>2026-03-28T00:59:18.781Z</time>
      </trkpt>
      <trkpt lat="52.006236" lon="5.538559">
        <ele>15.818988</ele>
        <time>2026-03-28T00:59:19.359Z</time>
      </trkpt>
      <trkpt lat="52.006153" lon="5.538626">
        <ele>15.805636</ele>
        <time>2026-03-28T00:59:21.076Z</time>
      </trkpt>
      <trkpt lat="52.006110" lon="5.538723">
        <ele>15.795035</ele>
        <time>2026-03-28T00:59:22.427Z</time>
      </trkpt>
      <trkpt lat="52.005643" lon="5.539268">
        <ele>15.801379</ele>
        <time>2026-03-28T00:59:33.222Z</time>
      </trkpt>
      <trkpt lat="52.005415" lon="5.539473">
        <ele>15.998203</ele>
        <time>2026-03-28T00:59:38.659Z</time>
      </trkpt>
      <trkpt lat="52.005299" lon="5.539596">
        <ele>16.102830</ele>
        <time>2026-03-28T00:59:41.787Z</time>
      </trkpt>
      <trkpt lat="52.005226" lon="5.539467">
        <ele>16.184301</ele>
        <time>2026-03-28T00:59:43.773Z</time>
      </trkpt>
      <trkpt lat="52.005130" lon="5.539457">
        <ele>16.256958</ele>
        <time>2026-03-28T00:59:45.546Z</time>
      </trkpt>
      <trkpt lat="52.004728" lon="5.539596">
        <ele>16.567388</ele>
        <time>2026-03-28T00:59:53.543Z</time>
      </trkpt>
      <trkpt lat="52.003503" lon="5.539844">
        <ele>17.093179</ele>
        <time>2026-03-28T01:00:17.787Z</time>
      </trkpt>
      <trkpt lat="52.002964" lon="5.539739">
        <ele>17.101279</ele>
        <time>2026-03-28T01:00:25.576Z</time>
      </trkpt>
      <trkpt lat="52.002952" lon="5.539843">
        <ele>17.102251</ele>
        <time>2026-03-28T01:00:26.780Z</time>
      </trkpt>
      <trkpt lat="52.002933" lon="5.539988">
        <ele>17.103613</ele>
        <time>2026-03-28T01:00:28.486Z</time>
      </trkpt>
      <trkpt lat="52.002906" lon="5.540118">
        <ele>17.104874</ele>
        <time>2026-03-28T01:00:30.020Z</time>
      </trkpt>
      <trkpt lat="52.002739" lon="5.540415">
        <ele>17.108568</ele>
        <time>2026-03-28T01:00:34.460Z</time>
      </trkpt>
      <trkpt lat="52.002318" lon="5.541056">
        <ele>16.877266</ele>
        <time>2026-03-28T01:00:44.339Z</time>
      </trkpt>
      <trkpt lat="52.002164" lon="5.541195">
        <ele>16.762135</ele>
        <time>2026-03-28T01:00:47.299Z</time>
      </trkpt>
      <trkpt lat="52.001172" lon="5.541519">
        <ele>16.100896</ele>
        <time>2026-03-28T01:01:05.808Z</time>
      </trkpt>
      <trkpt lat="52.001030" lon="5.541590">
        <ele>16.003803</ele>
        <time>2026-03-28T01:01:08.608Z</time>
      </trkpt>
      <trkpt lat="52.000530" lon="5.541990">
        <ele>16.027928</ele>
        <time>2026-03-28T01:01:19.463Z</time>
      </trkpt>
      <trkpt lat="51.999889" lon="5.542564">
        <ele>16.175375</ele>
        <time>2026-03-28T01:01:34.971Z</time>
      </trkpt>
      <trkpt lat="51.999498" lon="5.542919">
        <ele>16.265608</ele>
        <time>2026-03-28T01:01:44.923Z</time>
      </trkpt>
      <trkpt lat="51.999362" lon="5.543038">
        <ele>16.296727</ele>
        <time>2026-03-28T01:01:48.443Z</time>
      </trkpt>
      <trkpt lat="51.998743" lon="5.543582">
        <ele>16.422826</ele>
        <time>2026-03-28T01:02:04.538Z</time>
      </trkpt>
      <trkpt lat="51.998635" lon="5.543693">
        <ele>16.445684</ele>
        <time>2026-03-28T01:02:07.378Z</time>
      </trkpt>
      <trkpt lat="51.998264" lon="5.544073">
        <ele>16.524128</ele>
        <time>2026-03-28T01:02:16.648Z</time>
      </trkpt>
      <trkpt lat="51.998030" lon="5.544555">
        <ele>16.591718</ele>
        <time>2026-03-28T01:02:24.063Z</time>
      </trkpt>
      <trkpt lat="51.997754" lon="5.545307">
        <ele>16.340062</ele>
        <time>2026-03-28T01:02:33.959Z</time>
      </trkpt>
      <trkpt lat="51.997271" lon="5.546246">
        <ele>15.782034</ele>
        <time>2026-03-28T01:02:46.995Z</time>
      </trkpt>
      <trkpt lat="51.996813" lon="5.547162">
        <ele>15.264715</ele>
        <time>2026-03-28T01:02:59.811Z</time>
      </trkpt>
      <trkpt lat="51.996464" lon="5.548070">
        <ele>15.006503</ele>
        <time>2026-03-28T01:03:12.429Z</time>
      </trkpt>
      <trkpt lat="51.995951" lon="5.549279">
        <ele>14.652306</ele>
        <time>2026-03-28T01:03:30.286Z</time>
      </trkpt>
      <trkpt lat="51.995190" lon="5.551670">
        <ele>13.527948</ele>
        <time>2026-03-28T01:04:00.117Z</time>
      </trkpt>
      <trkpt lat="51.994605" lon="5.553218">
        <ele>13.027259</ele>
        <time>2026-03-28T01:04:19.725Z</time>
      </trkpt>
      <trkpt lat="51.994400" lon="5.553657">
        <ele>12.910941</ele>
        <time>2026-03-28T01:04:26.053Z</time>
      </trkpt>
      <trkpt lat="51.994040" lon="5.554423">
        <ele>12.707502</ele>
        <time>2026-03-28T01:04:38.078Z</time>
      </trkpt>
      <trkpt lat="51.992975" lon="5.556613">
        <ele>13.608180</ele>
        <time>2026-03-28T01:05:17.810Z</time>
      </trkpt>
      <trkpt lat="51.992611" lon="5.557202">
        <ele>13.729952</ele>
        <time>2026-03-28T01:05:28.889Z</time>
      </trkpt>
      <trkpt lat="51.992121" lon="5.557894">
        <ele>13.801679</ele>
        <time>2026-03-28T01:05:42.456Z</time>
      </trkpt>
      <trkpt lat="51.991636" lon="5.558402">
        <ele>13.865427</ele>
        <time>2026-03-28T01:05:53.857Z</time>
      </trkpt>
      <trkpt lat="51.989050" lon="5.560780">
        <ele>13.862048</ele>
        <time>2026-03-28T01:06:52.491Z</time>
      </trkpt>
      <trkpt lat="51.988530" lon="5.561360">
        <ele>13.968849</ele>
        <time>2026-03-28T01:07:06.641Z</time>
      </trkpt>
      <trkpt lat="51.988208" lon="5.561764">
        <ele>14.086846</ele>
        <time>2026-03-28T01:07:15.730Z</time>
      </trkpt>
      <trkpt lat="51.987580" lon="5.562540">
        <ele>14.406055</ele>
        <time>2026-03-28T01:07:33.004Z</time>
      </trkpt>
      <trkpt lat="51.987138" lon="5.562932">
        <ele>14.609772</ele>
        <time>2026-03-28T01:07:43.814Z</time>
      </trkpt>
      <trkpt lat="51.986234" lon="5.563756">
        <ele>14.590044</ele>
        <time>2026-03-28T01:08:06.315Z</time>
      </trkpt>
      <trkpt lat="51.985700" lon="5.564250">
        <ele>14.473796</ele>
        <time>2026-03-28T01:08:18.636Z</time>
      </trkpt>
      <trkpt lat="51.985380" lon="5.564470">
        <ele>14.408067</ele>
        <time>2026-03-28T01:08:24.821Z</time>
      </trkpt>
      <trkpt lat="51.984927" lon="5.564721">
        <ele>13.835439</ele>
        <time>2026-03-28T01:08:32.807Z</time>
      </trkpt>
      <trkpt lat="51.984330" lon="5.564980">
        <ele>12.938090</ele>
        <time>2026-03-28T01:08:42.789Z</time>
      </trkpt>
      <trkpt lat="51.983990" lon="5.565060">
        <ele>12.439200</ele>
        <time>2026-03-28T01:08:48.275Z</time>
      </trkpt>
      <trkpt lat="51.982570" lon="5.565190">
        <ele>11.170743</ele>
        <time>2026-03-28T01:09:11.969Z</time>
      </trkpt>
      <trkpt lat="51.982330" lon="5.565190">
        <ele>11.020042</ele>
        <time>2026-03-28T01:09:16.444Z</time>
      </trkpt>
      <trkpt lat="51.981780" lon="5.565080">
        <ele>10.672077</ele>
        <time>2026-03-28T01:09:28.140Z</time>
      </trkpt>
      <trkpt lat="51.981470" lon="5.564910">
        <ele>11.022740</ele>
        <time>2026-03-28T01:09:35.918Z</time>
      </trkpt>
      <trkpt lat="51.980840" lon="5.564560">
        <ele>11.883614</ele>
        <time>2026-03-28T01:09:52.980Z</time>
      </trkpt>
      <trkpt lat="51.980610" lon="5.564500">
        <ele>12.184789</ele>
        <time>2026-03-28T01:09:59.171Z</time>
      </trkpt>
      <trkpt lat="51.980340" lon="5.564480">
        <ele>12.534228</ele>
        <time>2026-03-28T01:10:06.432Z</time>
      </trkpt>
      <trkpt lat="51.979260" lon="5.564630">
        <ele>14.160439</ele>
        <time>2026-03-28T01:10:35.354Z</time>
      </trkpt>
      <trkpt lat="51.978320" lon="5.564924">
        <ele>15.687371</ele>
        <time>2026-03-28T01:11:00.480Z</time>
      </trkpt>
      <trkpt lat="51.978254" lon="5.564945">
        <ele>15.794648</ele>
        <time>2026-03-28T01:11:02.253Z</time>
      </trkpt>
      <trkpt lat="51.977707" lon="5.565149">
        <ele>17.203236</ele>
        <time>2026-03-28T01:11:17.677Z</time>
      </trkpt>
      <trkpt lat="51.977670" lon="5.565200">
        <ele>17.327575</ele>
        <time>2026-03-28T01:11:19.023Z</time>
      </trkpt>
      <trkpt lat="51.977560" lon="5.565087">
        <ele>17.661041</ele>
        <time>2026-03-28T01:11:22.639Z</time>
      </trkpt>
      <trkpt lat="51.976431" lon="5.564428">
        <ele>20.962015</ele>
        <time>2026-03-28T01:12:00.591Z</time>
      </trkpt>
      <trkpt lat="51.976219" lon="5.564266">
        <ele>22.043008</ele>
        <time>2026-03-28T01:12:09.293Z</time>
      </trkpt>
      <trkpt lat="51.976144" lon="5.564223">
        <ele>22.409964</ele>
        <time>2026-03-28T01:12:12.283Z</time>
      </trkpt>
      <trkpt lat="51.975679" lon="5.564166">
        <ele>24.561340</ele>
        <time>2026-03-28T01:12:30.479Z</time>
      </trkpt>
      <trkpt lat="51.975444" lon="5.564142">
        <ele>25.647651</ele>
        <time>2026-03-28T01:12:40.021Z</time>
      </trkpt>
      <trkpt lat="51.973397" lon="5.564179">
        <ele>36.024745</ele>
        <time>2026-03-28T01:14:04.508Z</time>
      </trkpt>
      <trkpt lat="51.972351" lon="5.564132">
        <ele>40.998991</ele>
        <time>2026-03-28T01:14:48.233Z</time>
      </trkpt>
      <trkpt lat="51.972347" lon="5.563750">
        <ele>42.031667</ele>
        <time>2026-03-28T01:14:56.578Z</time>
      </trkpt>
      <trkpt lat="51.972247" lon="5.563332">
        <ele>43.243706</ele>
        <time>2026-03-28T01:15:06.115Z</time>
      </trkpt>
      <trkpt lat="51.972325" lon="5.561733">
        <ele>46.201067</ele>
        <time>2026-03-28T01:15:34.316Z</time>
      </trkpt>
      <trkpt lat="51.972382" lon="5.560697">
        <ele>46.285751</ele>
        <time>2026-03-28T01:15:44.592Z</time>
      </trkpt>
      <trkpt lat="51.972390" lon="5.560539">
        <ele>46.298658</ele>
        <time>2026-03-28T01:15:45.818Z</time>
      </trkpt>
      <trkpt lat="51.972573" lon="5.558644">
        <ele>45.933586</ele>
        <time>2026-03-28T01:15:59.097Z</time>
      </trkpt>
      <trkpt lat="51.972595" lon="5.558101">
        <ele>45.585485</ele>
        <time>2026-03-28T01:16:02.887Z</time>
      </trkpt>
      <trkpt lat="51.972592" lon="5.557362">
        <ele>45.112747</ele>
        <time>2026-03-28T01:16:08.514Z</time>
      </trkpt>
      <trkpt lat="51.972631" lon="5.557075">
        <ele>44.924743</ele>
        <time>2026-03-28T01:16:10.952Z</time>
      </trkpt>
      <trkpt lat="51.972693" lon="5.556882">
        <ele>44.785506</ele>
        <time>2026-03-28T01:16:12.832Z</time>
      </trkpt>
      <trkpt lat="51.972785" lon="5.556703">
        <ele>44.636384</ele>
        <time>2026-03-28T01:16:14.917Z</time>
      </trkpt>
      <trkpt lat="51.972828" lon="5.556622">
        <ele>44.567986</ele>
        <time>2026-03-28T01:16:15.870Z</time>
      </trkpt>
      <trkpt lat="51.973075" lon="5.556352">
        <ele>44.434012</ele>
        <time>2026-03-28T01:16:20.164Z</time>
      </trkpt>
      <trkpt lat="51.973249" lon="5.556085">
        <ele>44.347044</ele>
        <time>2026-03-28T01:16:23.606Z</time>
      </trkpt>
      <trkpt lat="51.973950" lon="5.555160">
        <ele>44.018915</ele>
        <time>2026-03-28T01:16:36.213Z</time>
      </trkpt>
      <trkpt lat="51.975366" lon="5.553804">
        <ele>42.919244</ele>
        <time>2026-03-28T01:16:57.014Z</time>
      </trkpt>
      <trkpt lat="51.976123" lon="5.552976">
        <ele>41.862778</ele>
        <time>2026-03-28T01:17:08.471Z</time>
      </trkpt>
      <trkpt lat="51.976296" lon="5.552615">
        <ele>41.368815</ele>
        <time>2026-03-28T01:17:11.897Z</time>
      </trkpt>
      <trkpt lat="51.976296" lon="5.552615">
        <ele>41.368815</ele>
        <time>2026-03-28T01:17:11.899Z</time>
      </trkpt>
      <trkpt lat="51.976324" lon="5.552425">
        <ele>41.157828</ele>
        <time>2026-03-28T01:17:13.324Z</time>
      </trkpt>
      <trkpt lat="51.976317" lon="5.552127">
        <ele>40.835761</ele>
        <time>2026-03-28T01:17:15.454Z</time>
      </trkpt>
      <trkpt lat="51.976229" lon="5.551083">
        <ele>39.697755</ele>
        <time>2026-03-28T01:17:22.532Z</time>
      </trkpt>
      <trkpt lat="51.976191" lon="5.550866">
        <ele>39.454113</ele>
        <time>2026-03-28T01:17:23.973Z</time>
      </trkpt>
      <trkpt lat="51.975995" lon="5.550144">
        <ele>37.810263</ele>
        <time>2026-03-28T01:17:28.882Z</time>
      </trkpt>
      <trkpt lat="51.975954" lon="5.549626">
        <ele>36.644230</ele>
        <time>2026-03-28T01:17:32.060Z</time>
      </trkpt>
      <trkpt lat="51.975980" lon="5.549330">
        <ele>35.976673</ele>
        <time>2026-03-28T01:17:33.868Z</time>
      </trkpt>
      <trkpt lat="51.976080" lon="5.548890">
        <ele>34.929566</ele>
        <time>2026-03-28T01:17:36.707Z</time>
      </trkpt>
      <trkpt lat="51.976180" lon="5.548570">
        <ele>34.128432</ele>
        <time>2026-03-28T01:17:38.873Z</time>
      </trkpt>
      <trkpt lat="51.976383" lon="5.548067">
        <ele>32.781267</ele>
        <time>2026-03-28T01:17:42.488Z</time>
      </trkpt>
      <trkpt lat="51.976464" lon="5.547806">
        <ele>32.051808</ele>
        <time>2026-03-28T01:17:44.236Z</time>
      </trkpt>
      <trkpt lat="51.976554" lon="5.547339">
        <ele>30.830472</ele>
        <time>2026-03-28T01:17:47.167Z</time>
      </trkpt>
      <trkpt lat="51.976744" lon="5.544369">
        <ele>24.647673</ele>
        <time>2026-03-28T01:18:05.063Z</time>
      </trkpt>
      <trkpt lat="51.976757" lon="5.544158">
        <ele>24.429775</ele>
        <time>2026-03-28T01:18:06.436Z</time>
      </trkpt>
      <trkpt lat="51.976759" lon="5.543806">
        <ele>24.068056</ele>
        <time>2026-03-28T01:18:08.882Z</time>
      </trkpt>
      <trkpt lat="51.976488" lon="5.543046">
        <ele>23.165692</ele>
        <time>2026-03-28T01:18:15.647Z</time>
      </trkpt>
      <trkpt lat="51.976628" lon="5.542962">
        <ele>22.916707</ele>
        <time>2026-03-28T01:18:17.900Z</time>
      </trkpt>
      <trkpt lat="51.977009" lon="5.542820">
        <ele>22.672810</ele>
        <time>2026-03-28T01:18:24.825Z</time>
      </trkpt>
      <trkpt lat="51.977843" lon="5.542482">
        <ele>23.395550</ele>
        <time>2026-03-28T01:18:42.153Z</time>
      </trkpt>
      <trkpt lat="51.979099" lon="5.541973">
        <ele>24.146058</ele>
        <time>2026-03-28T01:19:04.522Z</time>
      </trkpt>
      <trkpt lat="51.980295" lon="5.541416">
        <ele>24.380794</ele>
        <time>2026-03-28T01:19:22.742Z</time>
      </trkpt>
      <trkpt lat="51.980992" lon="5.540986">
        <ele>25.079131</ele>
        <time>2026-03-28T01:19:34.582Z</time>
      </trkpt>
      <trkpt lat="51.981114" lon="5.540963">
        <ele>25.198851</ele>
        <time>2026-03-28T01:19:36.771Z</time>
      </trkpt>
      <trkpt lat="51.981212" lon="5.540984">
        <ele>25.295206</ele>
        <time>2026-03-28T01:19:38.573Z</time>
      </trkpt>
      <trkpt lat="51.981289" lon="5.541049">
        <ele>25.379802</ele>
        <time>2026-03-28T01:19:40.196Z</time>
      </trkpt>
      <trkpt lat="51.982381" lon="5.542763">
        <ele>27.511824</ele>
        <time>2026-03-28T01:20:13.319Z</time>
      </trkpt>
      <trkpt lat="51.982487" lon="5.542935">
        <ele>27.790186</ele>
        <time>2026-03-28T01:20:16.806Z</time>
      </trkpt>
      <trkpt lat="51.982980" lon="5.543730">
        <ele>29.080824</ele>
        <time>2026-03-28T01:20:32.487Z</time>
      </trkpt>
      <trkpt lat="51.983150" lon="5.544040">
        <ele>29.569143</ele>
        <time>2026-03-28T01:20:38.172Z</time>
      </trkpt>
      <trkpt lat="51.983273" lon="5.544133">
        <ele>29.867127</ele>
        <time>2026-03-28T01:20:41.191Z</time>
      </trkpt>
      <trkpt lat="51.983314" lon="5.544111">
        <ele>29.961960</ele>
        <time>2026-03-28T01:20:42.176Z</time>
      </trkpt>
      <trkpt lat="51.983800" lon="5.543380">
        <ele>31.416904</ele>
        <time>2026-03-28T01:20:57.313Z</time>
      </trkpt>
      <trkpt lat="51.983900" lon="5.543390">
        <ele>31.636938</ele>
        <time>2026-03-28T01:20:59.637Z</time>
      </trkpt>
      <trkpt lat="51.984510" lon="5.543710">
        <ele>33.044796</ele>
        <time>2026-03-28T01:21:15.049Z</time>
      </trkpt>
      <trkpt lat="51.984840" lon="5.543940">
        <ele>33.954873</ele>
        <time>2026-03-28T01:21:24.190Z</time>
      </trkpt>
      <trkpt lat="51.984940" lon="5.543930">
        <ele>34.241431</ele>
        <time>2026-03-28T01:21:26.800Z</time>
      </trkpt>
      <trkpt lat="51.986625" lon="5.540347">
        <ele>42.082061</ele>
        <time>2026-03-28T01:22:40.824Z</time>
      </trkpt>
      <trkpt lat="51.986673" lon="5.540243">
        <ele>42.304616</ele>
        <time>2026-03-28T01:22:42.894Z</time>
      </trkpt>
      <trkpt lat="51.987770" lon="5.537860">
        <ele>46.261906</ele>
        <time>2026-03-28T01:23:27.468Z</time>
      </trkpt>
      <trkpt lat="51.988265" lon="5.536859">
        <ele>47.119870</ele>
        <time>2026-03-28T01:23:42.182Z</time>
      </trkpt>
      <trkpt lat="51.990170" lon="5.532810">
        <ele>47.259428</ele>
        <time>2026-03-28T01:24:25.752Z</time>
      </trkpt>
      <trkpt lat="51.991834" lon="5.529343">
        <ele>49.170397</ele>
        <time>2026-03-28T01:25:22.168Z</time>
      </trkpt>
      <trkpt lat="51.992140" lon="5.528701">
        <ele>48.869830</ele>
        <time>2026-03-28T01:25:28.284Z</time>
      </trkpt>
      <trkpt lat="51.993197" lon="5.526466">
        <ele>44.205160</ele>
        <time>2026-03-28T01:25:45.590Z</time>
      </trkpt>
      <trkpt lat="51.993442" lon="5.525935">
        <ele>42.777403</ele>
        <time>2026-03-28T01:25:49.568Z</time>
      </trkpt>
      <trkpt lat="51.994156" lon="5.524320">
        <ele>39.644380</ele>
        <time>2026-03-28T01:26:01.971Z</time>
      </trkpt>
      <trkpt lat="51.994231" lon="5.524158">
        <ele>39.339870</ele>
        <time>2026-03-28T01:26:03.412Z</time>
      </trkpt>
      <trkpt lat="51.994590" lon="5.523489">
        <ele>38.006634</ele>
        <time>2026-03-28T01:26:09.967Z</time>
      </trkpt>
      <trkpt lat="51.994649" lon="5.523351">
        <ele>37.830997</ele>
        <time>2026-03-28T01:26:11.272Z</time>
      </trkpt>
      <trkpt lat="51.994695" lon="5.523249">
        <ele>37.737753</ele>
        <time>2026-03-28T01:26:12.254Z</time>
      </trkpt>
      <trkpt lat="51.994731" lon="5.523172">
        <ele>37.666451</ele>
        <time>2026-03-28T01:26:13.009Z</time>
      </trkpt>
      <trkpt lat="51.994755" lon="5.523105">
        <ele>37.609286</ele>
        <time>2026-03-28T01:26:13.602Z</time>
      </trkpt>
      <trkpt lat="51.994781" lon="5.523002">
        <ele>37.527188</ele>
        <time>2026-03-28T01:26:15.338Z</time>
      </trkpt>
      <trkpt lat="51.994780" lon="5.522939">
        <ele>37.480711</ele>
        <time>2026-03-28T01:26:16.317Z</time>
      </trkpt>
      <trkpt lat="51.994753" lon="5.522888">
        <ele>37.431108</ele>
        <time>2026-03-28T01:26:17.361Z</time>
      </trkpt>
      <trkpt lat="51.994096" lon="5.522050">
        <ele>36.430510</ele>
        <time>2026-03-28T01:26:38.146Z</time>
      </trkpt>
      <trkpt lat="51.993377" lon="5.521120">
        <ele>35.182098</ele>
        <time>2026-03-28T01:26:59.649Z</time>
      </trkpt>
      <trkpt lat="51.992765" lon="5.520328">
        <ele>33.916584</ele>
        <time>2026-03-28T01:27:17.856Z</time>
      </trkpt>
      <trkpt lat="51.992178" lon="5.519570">
        <ele>32.682484</ele>
        <time>2026-03-28T01:27:35.577Z</time>
      </trkpt>
      <trkpt lat="51.991916" lon="5.519019">
        <ele>31.882408</ele>
        <time>2026-03-28T01:27:45.323Z</time>
      </trkpt>
      <trkpt lat="51.991733" lon="5.518687">
        <ele>31.370309</ele>
        <time>2026-03-28T01:27:51.549Z</time>
      </trkpt>
      <trkpt lat="51.991425" lon="5.517885">
        <ele>30.284015</ele>
        <time>2026-03-28T01:28:04.740Z</time>
      </trkpt>
      <trkpt lat="51.991410" lon="5.517647">
        <ele>30.009055</ele>
        <time>2026-03-28T01:28:08.073Z</time>
      </trkpt>
      <trkpt lat="51.991183" lon="5.517177">
        <ele>29.400307</ele>
        <time>2026-03-28T01:28:16.485Z</time>
      </trkpt>
      <trkpt lat="51.991318" lon="5.516465">
        <ele>28.953944</ele>
        <time>2026-03-28T01:28:27.359Z</time>
      </trkpt>
      <trkpt lat="51.991343" lon="5.516337">
        <ele>28.873488</ele>
        <time>2026-03-28T01:28:29.403Z</time>
      </trkpt>
      <trkpt lat="51.991461" lon="5.515838">
        <ele>28.553223</ele>
        <time>2026-03-28T01:28:37.750Z</time>
      </trkpt>
      <trkpt lat="51.991928" lon="5.513314">
        <ele>27.361542</ele>
        <time>2026-03-28T01:29:19.632Z</time>
      </trkpt>
      <trkpt lat="51.992167" lon="5.512297">
        <ele>27.041443</ele>
        <time>2026-03-28T01:29:37.465Z</time>
      </trkpt>
      <trkpt lat="51.992222" lon="5.511760">
        <ele>26.881364</ele>
        <time>2026-03-28T01:29:46.285Z</time>
      </trkpt>
      <trkpt lat="51.992272" lon="5.511507">
        <ele>26.733079</ele>
        <time>2026-03-28T01:29:50.552Z</time>
      </trkpt>
      <trkpt lat="51.992366" lon="5.511219">
        <ele>26.544790</ele>
        <time>2026-03-28T01:29:55.768Z</time>
      </trkpt>
      <trkpt lat="51.992465" lon="5.510643">
        <ele>26.199345</ele>
        <time>2026-03-28T01:30:05.245Z</time>
      </trkpt>
      <trkpt lat="51.992521" lon="5.510513">
        <ele>26.107700</ele>
        <time>2026-03-28T01:30:07.749Z</time>
      </trkpt>
      <trkpt lat="51.992633" lon="5.510539">
        <ele>26.001564</ele>
        <time>2026-03-28T01:30:10.647Z</time>
      </trkpt>
      <trkpt lat="51.992662" lon="5.510417">
        <ele>25.926023</ele>
        <time>2026-03-28T01:30:12.689Z</time>
      </trkpt>
      <trkpt lat="51.993005" lon="5.508696">
        <ele>24.608591</ele>
        <time>2026-03-28T01:30:39.249Z</time>
      </trkpt>
      <trkpt lat="51.992998" lon="5.508519">
        <ele>24.415348</ele>
        <time>2026-03-28T01:30:41.760Z</time>
      </trkpt>
      <trkpt lat="51.991557" lon="5.507709">
        <ele>21.794236</ele>
        <time>2026-03-28T01:31:16.521Z</time>
      </trkpt>
      <trkpt lat="51.991463" lon="5.507658">
        <ele>21.665620</ele>
        <time>2026-03-28T01:31:18.823Z</time>
      </trkpt>
      <trkpt lat="51.991418" lon="5.507753">
        <ele>21.569840</ele>
        <time>2026-03-28T01:31:19.652Z</time>
      </trkpt>
      <trkpt lat="51.989610" lon="5.506768">
        <ele>19.475432</ele>
        <time>2026-03-28T01:31:52.248Z</time>
      </trkpt>
      <trkpt lat="51.988862" lon="5.506338">
        <ele>19.124681</ele>
        <time>2026-03-28T01:32:07.891Z</time>
      </trkpt>
      <trkpt lat="51.988477" lon="5.506117">
        <ele>18.944177</ele>
        <time>2026-03-28T01:32:16.198Z</time>
      </trkpt>
      <trkpt lat="51.988276" lon="5.503784">
        <ele>18.137621</ele>
        <time>2026-03-28T01:32:43.344Z</time>
      </trkpt>
      <trkpt lat="51.988116" lon="5.501922">
        <ele>17.134639</ele>
        <time>2026-03-28T01:33:03.429Z</time>
      </trkpt>
      <trkpt lat="51.988091" lon="5.501774">
        <ele>17.031419</ele>
        <time>2026-03-28T01:33:05.049Z</time>
      </trkpt>
      <trkpt lat="51.988014" lon="5.501720">
        <ele>16.939814</ele>
        <time>2026-03-28T01:33:06.473Z</time>
      </trkpt>
      <trkpt lat="51.988117" lon="5.501342">
        <ele>16.661799</ele>
        <time>2026-03-28T01:33:10.801Z</time>
      </trkpt>
      <trkpt lat="51.988180" lon="5.501157">
        <ele>16.519613</ele>
        <time>2026-03-28T01:33:13.001Z</time>
      </trkpt>
      <trkpt lat="51.988188" lon="5.500927">
        <ele>16.364672</ele>
        <time>2026-03-28T01:33:15.405Z</time>
      </trkpt>
      <trkpt lat="51.988284" lon="5.500819">
        <ele>16.237119</ele>
        <time>2026-03-28T01:33:17.366Z</time>
      </trkpt>
      <trkpt lat="51.989133" lon="5.498280">
        <ele>14.142791</ele>
        <time>2026-03-28T01:33:47.472Z</time>
      </trkpt>
      <trkpt lat="51.989449" lon="5.496285">
        <ele>13.097778</ele>
        <time>2026-03-28T01:34:09.167Z</time>
      </trkpt>
      <trkpt lat="51.989455" lon="5.496019">
        <ele>12.984952</ele>
        <time>2026-03-28T01:34:12.151Z</time>
      </trkpt>
      <trkpt lat="51.989519" lon="5.495884">
        <ele>12.912736</ele>
        <time>2026-03-28T01:34:14.094Z</time>
      </trkpt>
      <trkpt lat="51.989680" lon="5.494852">
        <ele>12.513125</ele>
        <time>2026-03-28T01:34:26.899Z</time>
      </trkpt>
      <trkpt lat="51.989849" lon="5.494166">
        <ele>12.622668</ele>
        <time>2026-03-28T01:34:36.668Z</time>
      </trkpt>
      <trkpt lat="51.989913" lon="5.494165">
        <ele>12.638078</ele>
        <time>2026-03-28T01:34:38.091Z</time>
      </trkpt>
      <trkpt lat="51.990190" lon="5.493877">
        <ele>12.717266</ele>
        <time>2026-03-28T01:34:45.313Z</time>
      </trkpt>
      <trkpt lat="51.990460" lon="5.493570">
        <ele>12.796621</ele>
        <time>2026-03-28T01:34:52.498Z</time>
      </trkpt>
      <trkpt lat="51.990642" lon="5.493316">
        <ele>12.854397</ele>
        <time>2026-03-28T01:34:57.695Z</time>
      </trkpt>
      <trkpt lat="51.991440" lon="5.491780">
        <ele>12.962969</ele>
        <time>2026-03-28T01:35:23.530Z</time>
      </trkpt>
      <trkpt lat="51.991533" lon="5.491614">
        <ele>12.967544</ele>
        <time>2026-03-28T01:35:26.283Z</time>
      </trkpt>
      <trkpt lat="51.992442" lon="5.488534">
        <ele>12.883381</ele>
        <time>2026-03-28T01:36:07.775Z</time>
      </trkpt>
      <trkpt lat="51.992993" lon="5.487401">
        <ele>12.779625</ele>
        <time>2026-03-28T01:36:25.889Z</time>
      </trkpt>
      <trkpt lat="51.992050" lon="5.486510">
        <ele>12.612796</ele>
        <time>2026-03-28T01:36:47.264Z</time>
      </trkpt>
      <trkpt lat="51.991676" lon="5.486551">
        <ele>12.524632</ele>
        <time>2026-03-28T01:36:54.327Z</time>
      </trkpt>
      <trkpt lat="51.991507" lon="5.486446">
        <ele>12.447226</ele>
        <time>2026-03-28T01:36:57.754Z</time>
      </trkpt>
      <trkpt lat="51.991030" lon="5.486150">
        <ele>12.228781</ele>
        <time>2026-03-28T01:37:07.480Z</time>
      </trkpt>
      <trkpt lat="51.990640" lon="5.486090">
        <ele>12.061197</ele>
        <time>2026-03-28T01:37:14.957Z</time>
      </trkpt>
      <trkpt lat="51.989810" lon="5.485710">
        <ele>11.585955</ele>
        <time>2026-03-28T01:37:30.963Z</time>
      </trkpt>
      <trkpt lat="51.988259" lon="5.484932">
        <ele>10.263096</ele>
        <time>2026-03-28T01:37:59.323Z</time>
      </trkpt>
      <trkpt lat="51.987720" lon="5.484645">
        <ele>10.040564</ele>
        <time>2026-03-28T01:38:09.387Z</time>
      </trkpt>
      <trkpt lat="51.987934" lon="5.484132">
        <ele>9.890868</ele>
        <time>2026-03-28T01:38:16.501Z</time>
      </trkpt>
      <trkpt lat="51.988130" lon="5.483878">
        <ele>9.792491</ele>
        <time>2026-03-28T01:38:21.326Z</time>
      </trkpt>
      <trkpt lat="51.989368" lon="5.482535">
        <ele>9.464964</ele>
        <time>2026-03-28T01:38:52.025Z</time>
      </trkpt>
      <trkpt lat="51.990574" lon="5.481124">
        <ele>8.939241</ele>
        <time>2026-03-28T01:39:20.203Z</time>
      </trkpt>
      <trkpt lat="51.991235" lon="5.480404">
        <ele>8.434523</ele>
        <time>2026-03-28T01:39:34.256Z</time>
      </trkpt>
      <trkpt lat="51.991784" lon="5.479806">
        <ele>8.147372</ele>
        <time>2026-03-28T01:39:42.650Z</time>
      </trkpt>
      <trkpt lat="51.994863" lon="5.476454">
        <ele>8.200104</ele>
        <time>2026-03-28T01:40:36.759Z</time>
      </trkpt>
      <trkpt lat="51.996376" lon="5.474815">
        <ele>10.225744</ele>
        <time>2026-03-28T01:41:12.820Z</time>
      </trkpt>
      <trkpt lat="51.996756" lon="5.474302">
        <ele>11.064436</ele>
        <time>2026-03-28T01:41:23.654Z</time>
      </trkpt>
      <trkpt lat="51.997110" lon="5.473732">
        <ele>11.910507</ele>
        <time>2026-03-28T01:41:34.895Z</time>
      </trkpt>
      <trkpt lat="51.997412" lon="5.473225">
        <ele>12.625440</ele>
        <time>2026-03-28T01:41:45.063Z</time>
      </trkpt>
      <trkpt lat="51.997604" lon="5.472893">
        <ele>13.021024</ele>
        <time>2026-03-28T01:41:51.160Z</time>
      </trkpt>
      <trkpt lat="51.997662" lon="5.472838">
        <ele>13.115761</ele>
        <time>2026-03-28T01:41:52.598Z</time>
      </trkpt>
      <trkpt lat="51.997753" lon="5.472838">
        <ele>13.244123</ele>
        <time>2026-03-28T01:41:54.448Z</time>
      </trkpt>
      <trkpt lat="51.997806" lon="5.472812">
        <ele>13.322219</ele>
        <time>2026-03-28T01:41:55.592Z</time>
      </trkpt>
      <trkpt lat="51.997847" lon="5.472777">
        <ele>13.387555</ele>
        <time>2026-03-28T01:41:56.523Z</time>
      </trkpt>
      <trkpt lat="51.997916" lon="5.472676">
        <ele>13.518578</ele>
        <time>2026-03-28T01:41:58.329Z</time>
      </trkpt>
      <trkpt lat="51.997949" lon="5.472540">
        <ele>13.645532</ele>
        <time>2026-03-28T01:41:59.985Z</time>
      </trkpt>
      <trkpt lat="51.997957" lon="5.472313">
        <ele>13.842999</ele>
        <time>2026-03-28T01:42:02.644Z</time>
      </trkpt>
      <trkpt lat="51.998822" lon="5.470739">
        <ele>15.536610</ele>
        <time>2026-03-28T01:42:28.358Z</time>
      </trkpt>
      <trkpt lat="51.999148" lon="5.471552">
        <ele>16.191407</ele>
        <time>2026-03-28T01:42:40.275Z</time>
      </trkpt>
      <trkpt lat="51.999625" lon="5.472739">
        <ele>17.126281</ele>
        <time>2026-03-28T01:42:56.584Z</time>
      </trkpt>
      <trkpt lat="52.000327" lon="5.474520">
        <ele>18.301795</ele>
        <time>2026-03-28T01:43:19.411Z</time>
      </trkpt>
      <trkpt lat="52.000348" lon="5.474688">
        <ele>18.397085</ele>
        <time>2026-03-28T01:43:21.411Z</time>
      </trkpt>
      <trkpt lat="52.000333" lon="5.474950">
        <ele>18.543350</ele>
        <time>2026-03-28T01:43:24.549Z</time>
      </trkpt>
      <trkpt lat="52.000608" lon="5.474842">
        <ele>18.913197</ele>
        <time>2026-03-28T01:43:33.938Z</time>
      </trkpt>
      <trkpt lat="52.000705" lon="5.474798">
        <ele>19.073393</ele>
        <time>2026-03-28T01:43:37.338Z</time>
      </trkpt>
      <trkpt lat="52.000847" lon="5.474559">
        <ele>19.398659</ele>
        <time>2026-03-28T01:43:44.391Z</time>
      </trkpt>
      <trkpt lat="52.001591" lon="5.472963">
        <ele>21.359085</ele>
        <time>2026-03-28T01:44:28.053Z</time>
      </trkpt>
      <trkpt lat="52.001759" lon="5.472947">
        <ele>21.523466</ele>
        <time>2026-03-28T01:44:33.635Z</time>
      </trkpt>
      <trkpt lat="52.001835" lon="5.472876">
        <ele>21.539938</ele>
        <time>2026-03-28T01:44:36.477Z</time>
      </trkpt>
      <trkpt lat="52.001881" lon="5.472785">
        <ele>21.553558</ele>
        <time>2026-03-28T01:44:38.796Z</time>
      </trkpt>
      <trkpt lat="52.001964" lon="5.472389">
        <ele>21.601945</ele>
        <time>2026-03-28T01:44:46.749Z</time>
      </trkpt>
      <trkpt lat="52.002063" lon="5.472057">
        <ele>21.644616</ele>
        <time>2026-03-28T01:44:53.550Z</time>
      </trkpt>
      <trkpt lat="52.002084" lon="5.471849">
        <ele>21.668996</ele>
        <time>2026-03-28T01:44:57.312Z</time>
      </trkpt>
      <trkpt lat="52.002110" lon="5.471583">
        <ele>21.700150</ele>
        <time>2026-03-28T01:45:02.024Z</time>
      </trkpt>
      <trkpt lat="52.002262" lon="5.471023">
        <ele>21.770941</ele>
        <time>2026-03-28T01:45:12.127Z</time>
      </trkpt>
      <trkpt lat="52.002777" lon="5.470011">
        <ele>21.460992</ele>
        <time>2026-03-28T01:45:32.203Z</time>
      </trkpt>
      <trkpt lat="52.002868" lon="5.469859">
        <ele>21.334990</ele>
        <time>2026-03-28T01:45:35.423Z</time>
      </trkpt>
      <trkpt lat="52.002713" lon="5.469692">
        <ele>21.155442</ele>
        <time>2026-03-28T01:45:39.997Z</time>
      </trkpt>
      <trkpt lat="52.001866" lon="5.468995">
        <ele>20.238867</ele>
        <time>2026-03-28T01:46:03.085Z</time>
      </trkpt>
      <trkpt lat="52.001860" lon="5.468989">
        <ele>20.232066</ele>
        <time>2026-03-28T01:46:03.257Z</time>
      </trkpt>
      <trkpt lat="52.001656" lon="5.468779">
        <ele>20.109776</ele>
        <time>2026-03-28T01:46:09.343Z</time>
      </trkpt>
      <trkpt lat="52.001630" lon="5.468745">
        <ele>20.109344</ele>
        <time>2026-03-28T01:46:09.945Z</time>
      </trkpt>
      <trkpt lat="52.001441" lon="5.468521">
        <ele>20.106320</ele>
        <time>2026-03-28T01:46:14.226Z</time>
      </trkpt>
      <trkpt lat="52.001965" lon="5.466676">
        <ele>20.090149</ele>
        <time>2026-03-28T01:46:39.634Z</time>
      </trkpt>
      <trkpt lat="52.002339" lon="5.465674">
        <ele>20.696436</ele>
        <time>2026-03-28T01:46:57.519Z</time>
      </trkpt>
      <trkpt lat="52.002362" lon="5.465611">
        <ele>20.745656</ele>
        <time>2026-03-28T01:46:58.665Z</time>
      </trkpt>
      <trkpt lat="52.002416" lon="5.465658">
        <ele>20.812529</ele>
        <time>2026-03-28T01:47:00.261Z</time>
      </trkpt>
      <trkpt lat="52.003122" lon="5.464353">
        <ele>21.979979</ele>
        <time>2026-03-28T01:47:27.812Z</time>
      </trkpt>
      <trkpt lat="52.003241" lon="5.464144">
        <ele>22.026471</ele>
        <time>2026-03-28T01:47:32.112Z</time>
      </trkpt>
      <trkpt lat="52.003337" lon="5.463976">
        <ele>21.994493</ele>
        <time>2026-03-28T01:47:35.391Z</time>
      </trkpt>
      <trkpt lat="52.003864" lon="5.463044">
        <ele>21.817950</ele>
        <time>2026-03-28T01:47:50.818Z</time>
      </trkpt>
      <trkpt lat="52.003324" lon="5.462493">
        <ele>21.673439</ele>
        <time>2026-03-28T01:48:01.852Z</time>
      </trkpt>
      <trkpt lat="52.003311" lon="5.462481">
        <ele>21.670050</ele>
        <time>2026-03-28T01:48:02.099Z</time>
      </trkpt>
      <trkpt lat="52.003081" lon="5.462251">
        <ele>21.643769</ele>
        <time>2026-03-28T01:48:06.802Z</time>
      </trkpt>
      <trkpt lat="52.002963" lon="5.462136">
        <ele>21.643769</ele>
        <time>2026-03-28T01:48:09.210Z</time>
      </trkpt>
      <trkpt lat="52.003089" lon="5.461667">
        <ele>21.643769</ele>
        <time>2026-03-28T01:48:14.785Z</time>
      </trkpt>
      <trkpt lat="52.003096" lon="5.461639">
        <ele>21.643769</ele>
        <time>2026-03-28T01:48:15.124Z</time>
      </trkpt>
      <trkpt lat="52.003568" lon="5.461798">
        <ele>21.643769</ele>
        <time>2026-03-28T01:48:32.366Z</time>
      </trkpt>
      <trkpt lat="52.003747" lon="5.461395">
        <ele>21.643769</ele>
        <time>2026-03-28T01:48:53.657Z</time>
      </trkpt>
    </trkseg>
  </trk>
</gpx>